Pastebin launched a little side project called HostCabi.net, check it out ;-)Don't like ads? PRO users don't see any ads ;-)
Guest

xbmc.log

By: a guest on Jun 21st, 2010  |  syntax: XML  |  size: 199.95 KB  |  hits: 70  |  expires: Never
download  |  raw  |  embed  |  report abuse  |  print
Text below is selected. Please press Ctrl+C to copy to your clipboard. (⌘+C on Mac)
  1. 02:25:33 T:1220 M:1781698560  NOTICE: -----------------------------------------------------------------------
  2. 02:25:33 T:1220 M:1781694464  NOTICE: Starting XBMC, Platform: Windows 7, 64-bit (WoW) build 7600. Built on Jun 19 2010 (SVN:31202, compiler 1500)
  3. 02:25:33 T:1220 M:1781694464  NOTICE: Intel(R) Core(TM)2 Duo CPU     T9400  @ 2.53GHz
  4. 02:25:33 T:1220 M:1781694464  NOTICE: Desktop Resolution: 1920x1200 32Bit at 59Hz
  5. 02:25:33 T:1220 M:1781694464  NOTICE: Running with administrator rights
  6. 02:25:33 T:1220 M:1781694464  NOTICE: special://xbmc/ is mapped to: C:\Program Files (x86)\XBMC
  7. 02:25:33 T:1220 M:1781694464  NOTICE: special://xbmcbin/ is mapped to: C:\Program Files (x86)\XBMC
  8. 02:25:33 T:1220 M:1781694464  NOTICE: special://masterprofile/ is mapped to: C:\Users\Nick\AppData\Roaming\XBMC\userdata
  9. 02:25:33 T:1220 M:1781694464  NOTICE: special://home/ is mapped to: C:\Users\Nick\AppData\Roaming\XBMC
  10. 02:25:33 T:1220 M:1781694464  NOTICE: special://temp/ is mapped to: C:\Users\Nick\AppData\Roaming\XBMC\cache
  11. 02:25:33 T:1220 M:1781694464  NOTICE: The executable running is: C:\Program Files (x86)\XBMC\XBMC.exe
  12. 02:25:33 T:1220 M:1781694464  NOTICE: Log File is located: C:\Users\Nick\AppData\Roaming\XBMC\xbmc.log
  13. 02:25:33 T:1220 M:1781694464  NOTICE: -----------------------------------------------------------------------
  14. 02:25:33 T:1220 M:1781673984  NOTICE: Setup SDL
  15. 02:25:33 T:1220 M:1781444608  NOTICE: Found screen: Generic PnP Monitor on NVIDIA GeForce 9800M GT, adapter 0.
  16. 02:25:33 T:1220 M:1781436416  NOTICE: Primary mode: 1920x1200 @ 59.94 - Full Screen
  17. 02:25:33 T:1220 M:1782358016  NOTICE: Additional mode: 640x480 @ 59.94 - Full Screen
  18. 02:25:33 T:1220 M:1782427648  NOTICE: Additional mode: 640x480 @ 60.00 - Full Screen
  19. 02:25:33 T:1220 M:1782497280  NOTICE: Additional mode: 640x480 @ 59.94 - Full Screen
  20. 02:25:33 T:1220 M:1782566912  NOTICE: Additional mode: 640x480 @ 60.00 - Full Screen
  21. 02:25:33 T:1220 M:1782636544  NOTICE: Additional mode: 640x480 @ 59.94 - Full Screen
  22. 02:25:33 T:1220 M:1782706176  NOTICE: Additional mode: 640x480 @ 60.00 - Full Screen
  23. 02:25:33 T:1220 M:1782775808  NOTICE: Additional mode: 720x480 @ 59.94 - Full Screen
  24. 02:25:33 T:1220 M:1782845440  NOTICE: Additional mode: 720x480 @ 60.00 - Full Screen
  25. 02:25:33 T:1220 M:1782915072  NOTICE: Additional mode: 720x480 @ 59.94 - Full Screen
  26. 02:25:33 T:1220 M:1782984704  NOTICE: Additional mode: 720x480 @ 60.00 - Full Screen
  27. 02:25:33 T:1220 M:1783005184  NOTICE: Additional mode: 720x480 @ 59.94 - Full Screen
  28. 02:25:33 T:1220 M:1782829056  NOTICE: Additional mode: 720x480 @ 60.00 - Full Screen
  29. 02:25:33 T:1220 M:1782849536  NOTICE: Additional mode: 720x576 @ 59.94 - Full Screen
  30. 02:25:33 T:1220 M:1782870016  NOTICE: Additional mode: 720x576 @ 60.00 - Full Screen
  31. 02:25:33 T:1220 M:1782743040  NOTICE: Additional mode: 720x576 @ 59.94 - Full Screen
  32. 02:25:33 T:1220 M:1782665216  NOTICE: Additional mode: 720x576 @ 60.00 - Full Screen
  33. 02:25:33 T:1220 M:1782587392  NOTICE: Additional mode: 720x576 @ 59.94 - Full Screen
  34. 02:25:33 T:1220 M:1782067200  NOTICE: Additional mode: 720x576 @ 60.00 - Full Screen
  35. 02:25:33 T:1220 M:1781743616  NOTICE: Additional mode: 800x600 @ 59.94 - Full Screen
  36. 02:25:33 T:1220 M:1781420032  NOTICE: Additional mode: 800x600 @ 60.00 - Full Screen
  37. 02:25:33 T:1220 M:1780998144  NOTICE: Additional mode: 800x600 @ 59.94 - Full Screen
  38. 02:25:33 T:1220 M:1780969472  NOTICE: Additional mode: 800x600 @ 60.00 - Full Screen
  39. 02:25:33 T:1220 M:1780744192  NOTICE: Additional mode: 800x600 @ 59.94 - Full Screen
  40. 02:25:33 T:1220 M:1780813824  NOTICE: Additional mode: 800x600 @ 60.00 - Full Screen
  41. 02:25:33 T:1220 M:1780883456  NOTICE: Additional mode: 1024x768 @ 59.94 - Full Screen
  42. 02:25:33 T:1220 M:1780953088  NOTICE: Additional mode: 1024x768 @ 60.00 - Full Screen
  43. 02:25:33 T:1220 M:1781022720  NOTICE: Additional mode: 1024x768 @ 59.94 - Full Screen
  44. 02:25:33 T:1220 M:1781092352  NOTICE: Additional mode: 1024x768 @ 60.00 - Full Screen
  45. 02:25:33 T:1220 M:1781161984  NOTICE: Additional mode: 1024x768 @ 59.94 - Full Screen
  46. 02:25:33 T:1220 M:1781231616  NOTICE: Additional mode: 1024x768 @ 60.00 - Full Screen
  47. 02:25:33 T:1220 M:1781301248  NOTICE: Additional mode: 1152x864 @ 59.94 - Full Screen
  48. 02:25:33 T:1220 M:1781370880  NOTICE: Additional mode: 1152x864 @ 60.00 - Full Screen
  49. 02:25:33 T:1220 M:1781440512  NOTICE: Additional mode: 1152x864 @ 59.94 - Full Screen
  50. 02:25:33 T:1220 M:1781510144  NOTICE: Additional mode: 1152x864 @ 60.00 - Full Screen
  51. 02:25:33 T:1220 M:1781579776  NOTICE: Additional mode: 1152x864 @ 59.94 - Full Screen
  52. 02:25:33 T:1220 M:1781649408  NOTICE: Additional mode: 1152x864 @ 60.00 - Full Screen
  53. 02:25:33 T:1220 M:1781719040  NOTICE: Additional mode: 1280x720 @ 59.94 - Full Screen
  54. 02:25:33 T:1220 M:1781788672  NOTICE: Additional mode: 1280x720 @ 60.00 - Full Screen
  55. 02:25:33 T:1220 M:1781858304  NOTICE: Additional mode: 1280x720 @ 59.94 - Full Screen
  56. 02:25:33 T:1220 M:1781927936  NOTICE: Additional mode: 1280x720 @ 60.00 - Full Screen
  57. 02:25:33 T:1220 M:1781997568  NOTICE: Additional mode: 1280x720 @ 59.94 - Full Screen
  58. 02:25:33 T:1220 M:1782067200  NOTICE: Additional mode: 1280x720 @ 60.00 - Full Screen
  59. 02:25:33 T:1220 M:1782136832  NOTICE: Additional mode: 1280x768 @ 59.94 - Full Screen
  60. 02:25:33 T:1220 M:1782206464  NOTICE: Additional mode: 1280x768 @ 60.00 - Full Screen
  61. 02:25:33 T:1220 M:1782276096  NOTICE: Additional mode: 1280x768 @ 59.94 - Full Screen
  62. 02:25:33 T:1220 M:1782345728  NOTICE: Additional mode: 1280x768 @ 60.00 - Full Screen
  63. 02:25:33 T:1220 M:1782415360  NOTICE: Additional mode: 1280x768 @ 59.94 - Full Screen
  64. 02:25:33 T:1220 M:1782484992  NOTICE: Additional mode: 1280x768 @ 60.00 - Full Screen
  65. 02:25:33 T:1220 M:1782554624  NOTICE: Additional mode: 1280x800 @ 59.94 - Full Screen
  66. 02:25:33 T:1220 M:1782624256  NOTICE: Additional mode: 1280x800 @ 60.00 - Full Screen
  67. 02:25:33 T:1220 M:1782693888  NOTICE: Additional mode: 1280x800 @ 59.94 - Full Screen
  68. 02:25:33 T:1220 M:1782763520  NOTICE: Additional mode: 1280x800 @ 60.00 - Full Screen
  69. 02:25:33 T:1220 M:1782833152  NOTICE: Additional mode: 1280x800 @ 59.94 - Full Screen
  70. 02:25:33 T:1220 M:1782902784  NOTICE: Additional mode: 1280x800 @ 60.00 - Full Screen
  71. 02:25:33 T:1220 M:1782972416  NOTICE: Additional mode: 1280x960 @ 59.94 - Full Screen
  72. 02:25:33 T:1220 M:1782992896  NOTICE: Additional mode: 1280x960 @ 60.00 - Full Screen
  73. 02:25:33 T:1220 M:1782964224  NOTICE: Additional mode: 1280x960 @ 59.94 - Full Screen
  74. 02:25:33 T:1220 M:1782837248  NOTICE: Additional mode: 1280x960 @ 60.00 - Full Screen
  75. 02:25:33 T:1220 M:1782808576  NOTICE: Additional mode: 1280x960 @ 59.94 - Full Screen
  76. 02:25:33 T:1220 M:1782681600  NOTICE: Additional mode: 1280x960 @ 60.00 - Full Screen
  77. 02:25:33 T:1220 M:1782652928  NOTICE: Additional mode: 1280x1024 @ 59.94 - Full Screen
  78. 02:25:33 T:1220 M:1782378496  NOTICE: Additional mode: 1280x1024 @ 60.00 - Full Screen
  79. 02:25:33 T:1220 M:1781907456  NOTICE: Additional mode: 1280x1024 @ 59.94 - Full Screen
  80. 02:25:33 T:1220 M:1781682176  NOTICE: Additional mode: 1280x1024 @ 60.00 - Full Screen
  81. 02:25:33 T:1220 M:1781456896  NOTICE: Additional mode: 1280x1024 @ 59.94 - Full Screen
  82. 02:25:33 T:1220 M:1780985856  NOTICE: Additional mode: 1280x1024 @ 60.00 - Full Screen
  83. 02:25:33 T:1220 M:1780957184  NOTICE: Additional mode: 1360x768 @ 59.94 - Full Screen
  84. 02:25:33 T:1220 M:1780731904  NOTICE: Additional mode: 1360x768 @ 60.00 - Full Screen
  85. 02:25:33 T:1220 M:1780801536  NOTICE: Additional mode: 1360x768 @ 59.94 - Full Screen
  86. 02:25:33 T:1220 M:1780871168  NOTICE: Additional mode: 1360x768 @ 60.00 - Full Screen
  87. 02:25:33 T:1220 M:1780940800  NOTICE: Additional mode: 1360x768 @ 59.94 - Full Screen
  88. 02:25:33 T:1220 M:1781010432  NOTICE: Additional mode: 1360x768 @ 60.00 - Full Screen
  89. 02:25:33 T:1220 M:1781080064  NOTICE: Additional mode: 1600x900 @ 59.94 - Full Screen
  90. 02:25:33 T:1220 M:1781149696  NOTICE: Additional mode: 1600x900 @ 60.00 - Full Screen
  91. 02:25:33 T:1220 M:1781219328  NOTICE: Additional mode: 1600x900 @ 59.94 - Full Screen
  92. 02:25:33 T:1220 M:1781288960  NOTICE: Additional mode: 1600x900 @ 60.00 - Full Screen
  93. 02:25:33 T:1220 M:1781358592  NOTICE: Additional mode: 1600x900 @ 59.94 - Full Screen
  94. 02:25:33 T:1220 M:1781428224  NOTICE: Additional mode: 1600x900 @ 60.00 - Full Screen
  95. 02:25:33 T:1220 M:1781497856  NOTICE: Additional mode: 1600x1024 @ 59.94 - Full Screen
  96. 02:25:33 T:1220 M:1781567488  NOTICE: Additional mode: 1600x1024 @ 60.00 - Full Screen
  97. 02:25:33 T:1220 M:1781637120  NOTICE: Additional mode: 1600x1024 @ 59.94 - Full Screen
  98. 02:25:33 T:1220 M:1781706752  NOTICE: Additional mode: 1600x1024 @ 60.00 - Full Screen
  99. 02:25:33 T:1220 M:1781776384  NOTICE: Additional mode: 1600x1024 @ 59.94 - Full Screen
  100. 02:25:33 T:1220 M:1781846016  NOTICE: Additional mode: 1600x1024 @ 60.00 - Full Screen
  101. 02:25:33 T:1220 M:1781915648  NOTICE: Additional mode: 1600x1200 @ 59.94 - Full Screen
  102. 02:25:33 T:1220 M:1781985280  NOTICE: Additional mode: 1600x1200 @ 60.00 - Full Screen
  103. 02:25:33 T:1220 M:1782054912  NOTICE: Additional mode: 1600x1200 @ 59.94 - Full Screen
  104. 02:25:33 T:1220 M:1782124544  NOTICE: Additional mode: 1600x1200 @ 60.00 - Full Screen
  105. 02:25:33 T:1220 M:1782194176  NOTICE: Additional mode: 1600x1200 @ 59.94 - Full Screen
  106. 02:25:33 T:1220 M:1782263808  NOTICE: Additional mode: 1600x1200 @ 60.00 - Full Screen
  107. 02:25:33 T:1220 M:1782333440  NOTICE: Additional mode: 1680x1050 @ 59.94 - Full Screen
  108. 02:25:33 T:1220 M:1782403072  NOTICE: Additional mode: 1680x1050 @ 60.00 - Full Screen
  109. 02:25:33 T:1220 M:1782472704  NOTICE: Additional mode: 1680x1050 @ 59.94 - Full Screen
  110. 02:25:33 T:1220 M:1782542336  NOTICE: Additional mode: 1680x1050 @ 60.00 - Full Screen
  111. 02:25:33 T:1220 M:1782611968  NOTICE: Additional mode: 1680x1050 @ 59.94 - Full Screen
  112. 02:25:33 T:1220 M:1782681600  NOTICE: Additional mode: 1680x1050 @ 60.00 - Full Screen
  113. 02:25:33 T:1220 M:1782751232  NOTICE: Additional mode: 1920x1080 @ 59.94 - Full Screen
  114. 02:25:33 T:1220 M:1782820864  NOTICE: Additional mode: 1920x1080 @ 60.00 - Full Screen
  115. 02:25:33 T:1220 M:1782890496  NOTICE: Additional mode: 1920x1080 @ 59.94 - Full Screen
  116. 02:25:33 T:1220 M:1782960128  NOTICE: Additional mode: 1920x1080 @ 60.00 - Full Screen
  117. 02:25:33 T:1220 M:1782980608  NOTICE: Additional mode: 1920x1080 @ 59.94 - Full Screen
  118. 02:25:33 T:1220 M:1783050240  NOTICE: Additional mode: 1920x1080 @ 60.00 - Full Screen
  119. 02:25:33 T:1220 M:1782824960  NOTICE: Additional mode: 1920x1200 @ 59.94 - Full Screen
  120. 02:25:33 T:1220 M:1782747136  NOTICE: Additional mode: 1920x1200 @ 60.00 - Full Screen
  121. 02:25:33 T:1220 M:1782706176  NOTICE: load settings...
  122. 02:25:33 T:1220 M:1782628352  NOTICE: special://profile/ is mapped to: special://masterprofile/
  123. 02:25:33 T:1220 M:1782624256  NOTICE: loading special://masterprofile/guisettings.xml
  124. 02:25:33 T:1220 M:1782554624  NOTICE: Getting hardware information now...
  125. 02:25:33 T:1220 M:1782554624  NOTICE: Checking resolution 12
  126. 02:25:33 T:1220 M:1782542336  NOTICE: Loading player core factory settings from special://xbmc/system/playercorefactory.xml.
  127. 02:25:33 T:1220 M:1782538240  NOTICE: Loaded playercorefactory configuration
  128. 02:25:33 T:1220 M:1782538240  NOTICE: Loading player core factory settings from special://masterprofile/playercorefactory.xml.
  129. 02:25:33 T:1220 M:1782538240  NOTICE: special://masterprofile/playercorefactory.xml does not exist. Skipping.
  130. 02:25:33 T:1220 M:1782538240  NOTICE: No advancedsettings.xml to load (special://masterprofile/advancedsettings.xml)
  131. 02:25:33 T:1220 M:1782538240  NOTICE: Default DVD Player: dvdplayer
  132. 02:25:33 T:1220 M:1782538240  NOTICE: Default Video Player: dvdplayer
  133. 02:25:33 T:1220 M:1782538240  NOTICE: Default Audio Player: paplayer
  134. 02:25:33 T:1220 M:1782538240  NOTICE: Enabled debug logging due to GUI setting (2)
  135. 02:25:33 T:1220 M:1782657024  NOTICE: Loading media sources from special://masterprofile/sources.xml
  136. 02:25:33 T:1220 M:1782607872    INFO: load language info file: special://xbmc/language/English/langinfo.xml
  137. 02:25:33 T:1220 M:1782591488    INFO: load language file:special://xbmc/language/English/strings.xml
  138. 02:25:33 T:1220 M:1782587392   DEBUG: Win32DllLoader::Load(special://xbmcbin/system/cpluff.dll)
  139. 02:25:33 T:1220 M:1782431744   DEBUG: Win32DllLoader::Load(special://xbmcbin/system/libexpat.dll)
  140. 02:25:33 T:1220 M:1779519488    INFO: ADDON: cpluff: 'Plug-in repository.xbmc.org has been installed.'
  141. 02:25:33 T:1220 M:1779519488    INFO: ADDON: cpluff: 'Plug-in screensaver.xbmc.builtin.black has been installed.'
  142. 02:25:33 T:1220 M:1779519488    INFO: ADDON: cpluff: 'Plug-in screensaver.rsxs.euphoria has been installed.'
  143. 02:25:33 T:1220 M:1779519488    INFO: ADDON: cpluff: 'Plug-in visualization.projectm has been installed.'
  144. 02:25:33 T:1220 M:1779519488    INFO: ADDON: cpluff: 'Plug-in screensaver.xbmc.builtin.dim has been installed.'
  145. 02:25:33 T:1220 M:1779519488    INFO: ADDON: cpluff: 'Plug-in metadata.themoviedb.org has been installed.'
  146. 02:25:33 T:1220 M:1779519488    INFO: ADDON: cpluff: 'Plug-in xbmc.metadata has been installed.'
  147. 02:25:33 T:1220 M:1779519488    INFO: ADDON: cpluff: 'Plug-in skin.confluence has been installed.'
  148. 02:25:33 T:1220 M:1779519488    INFO: ADDON: cpluff: 'Plug-in visualization.glspectrum has been installed.'
  149. 02:25:33 T:1220 M:1779519488    INFO: ADDON: cpluff: 'Plug-in xbmc.gui has been installed.'
  150. 02:25:33 T:1220 M:1779519488    INFO: ADDON: cpluff: 'Plug-in visualization.milkdrop has been installed.'
  151. 02:25:33 T:1220 M:1779519488    INFO: ADDON: cpluff: 'Plug-in visualization.dxspectrum has been installed.'
  152. 02:25:33 T:1220 M:1779519488    INFO: ADDON: cpluff: 'Plug-in xbmc.core has been installed.'
  153. 02:25:33 T:1220 M:1779519488    INFO: ADDON: cpluff: 'Plug-in screensaver.xbmc.builtin.slideshow has been installed.'
  154. 02:25:33 T:1220 M:1779519488    INFO: ADDON: cpluff: 'Plug-in metadata.common.htbackdrops.com has been installed.'
  155. 02:25:33 T:1220 M:1779519488    INFO: ADDON: cpluff: 'Plug-in metadata.tvdb.com has been installed.'
  156. 02:25:33 T:1220 M:1779519488    INFO: ADDON: cpluff: 'Plug-in metadata.common.allmusic.com has been installed.'
  157. 02:25:33 T:1220 M:1779519488    INFO: ADDON: cpluff: 'Plug-in metadata.allmusic.com has been installed.'
  158. 02:25:33 T:1220 M:1779519488    INFO: ADDON: cpluff: 'Plug-in weather.xbmc.builtin has been installed.'
  159. 02:25:33 T:1220 M:1779519488    INFO: ADDON: cpluff: 'Plug-in metadata.common.last.fm has been installed.'
  160. 02:25:33 T:1220 M:1779519488    INFO: ADDON: cpluff: 'Plug-in metadata.common.themoviedb.org has been installed.'
  161. 02:25:33 T:1220 M:1779519488    INFO: ADDON: cpluff: 'Plug-in metadata.common.dtrailer.com has been installed.'
  162. 02:25:33 T:1220 M:1779519488    INFO: ADDON: cpluff: 'Plug-in xbmc.python has been installed.'
  163. 02:25:33 T:1220 M:1779519488    INFO: ADDON: cpluff: 'Plug-in xbmc.addon has been installed.'
  164. 02:25:33 T:1220 M:1779519488    INFO: ADDON: cpluff: 'Plug-in visualization.waveform has been installed.'
  165. 02:25:33 T:1220 M:1779519488    INFO: ADDON: cpluff: 'Plug-in screensaver.rsxs.plasma has been installed.'
  166. 02:25:33 T:1220 M:1779519488    INFO: ADDON: cpluff: 'Plug-in metadata.mtv.com has been installed.'
  167. 02:25:33 T:1220 M:1779519488    INFO: ADDON: cpluff: 'Plug-in visualization.itunes has been installed.'
  168. 02:25:33 T:1220 M:1779519488 WARNING: ADDON: cpluff: 'Not all directories were successfully scanned.'
  169. 02:25:33 T:5256 M:1779494912   DEBUG: thread start, auto delete: 0
  170. 02:25:33 T:1220 M:1778667520   DEBUG: CWinSystemWin32::ResizeInternal - resizing due to size change (0,0,1920,1200 fullscreen)->(0,0,1920,1200 fullscreen)
  171. 02:25:33 T:1220 M:1778528256   DEBUG: CWinEventsWin32::WndProcWindow is active
  172. 02:25:33 T:1220 M:1778536448   DEBUG: CWinEventsWin32::WndProcWindow gained focus
  173. 02:25:33 T:1220 M:1778114560   DEBUG: CRenderSystemDX::InitRenderSystem - using D3D9Ex
  174. 02:25:33 T:1220 M:1778102272   DEBUG: CRenderSystemDX::CreateDevice on adapter 0
  175. 02:25:33 T:1220 M:1778102272 WARNING: CRenderSystemDX::BuildPresentParameters - xbmc compiled with an d3d sdk not supporting D3DSWAPEFFECT_FLIPEX
  176. 02:25:33 T:1220 M:1768853504   ERROR: CRenderSystemDX::CreateDevice - adapter 0: nvd3dum.dll, NVIDIA GeForce 9800M GT, VendorId 4318, DeviceId 1547
  177. 02:25:33 T:1220 M:1768849408   DEBUG: CRenderSystemDX::CreateDevice - using D3DCAPS2_DYNAMICTEXTURES
  178. 02:25:33 T:1220 M:1768849408   DEBUG: CRenderSystemDX::CreateDevice - texture caps: 0x0001ECC5
  179. 02:25:33 T:1220 M:1768845312   DEBUG: CRenderSystemDX::CreateDevice - RENDER_CAPS_DXT
  180. 02:25:33 T:1220 M:1768845312   DEBUG: CRenderSystemDX::CreateDevice - RENDER_CAPS_NPOT
  181. 02:25:33 T:1220 M:1768845312   DEBUG: CRenderSystemDX::CreateDevice - RENDER_CAPS_DXT_NPOT
  182. 02:25:33 T:1220 M:1768833024   DEBUG: CWinSystemWin32::SetFullScreen (windowed fullscreen) on screen 0 with size 1920x1200, refresh 59.940056
  183. 02:25:33 T:1220 M:1768828928 WARNING: CRenderSystemDX::BuildPresentParameters - xbmc compiled with an d3d sdk not supporting D3DSWAPEFFECT_FLIPEX
  184. 02:25:33 T:1220 M:1768747008    INFO: load default splash image: C:\Program Files (x86)\XBMC\media\Splash.png
  185. 02:25:33 T:1220 M:1768644608   DEBUG: Win32DllLoader::Load(special://xbmcbin/system/ImageLib.dll)
  186. 02:25:33 T:1220 M:1764564992    INFO: load keymapping
  187. 02:25:33 T:1220 M:1764499456    INFO: Loading special://xbmc/system/keymaps/gamepad.xml
  188. 02:25:33 T:1220 M:1764450304    INFO: Loading special://xbmc/system/keymaps/joystick.AppleRemote.xml
  189. 02:25:33 T:1220 M:1764425728    INFO: Loading special://xbmc/system/keymaps/joystick.Harmony.xml
  190. 02:25:33 T:1220 M:1764401152    INFO: Loading special://xbmc/system/keymaps/joystick.Logitech.RumblePad.2.xml
  191. 02:25:33 T:1220 M:1764360192    INFO: Loading special://xbmc/system/keymaps/joystick.Microsoft.Xbox.Controller.S.xml
  192. 02:25:33 T:1220 M:1764315136    INFO: Loading special://xbmc/system/keymaps/joystick.PS3.Remote.Keyboard.xml
  193. 02:25:33 T:1220 M:1764302848    INFO: Loading special://xbmc/system/keymaps/joystick.WiiRemote.xml
  194. 02:25:33 T:1220 M:1764290560    INFO: Loading special://xbmc/system/keymaps/keyboard.xml
  195. 02:25:33 T:1220 M:1764265984    INFO: Loading special://xbmc/system/keymaps/remote.xml
  196. 02:25:33 T:1220 M:1764290560    INFO: Loading special://xbmc/system/IRSSmap.xml
  197. 02:25:33 T:1220 M:1764286464    INFO: * Adding remote mapping for device 'Microsoft MCE'
  198. 02:25:33 T:1220 M:1764286464    INFO: * Adding remote mapping for device 'Abstract'
  199. 02:25:33 T:1220 M:1764265984   DEBUG: CButtonTranslator::Load - no userdata IRSSmap.xml found, skipping
  200. 02:25:33 T:1220 M:1764265984    INFO: GUI format 1920x1200 1920x1200 @ 59.94 - Full Screen
  201. 02:25:33 T:1220 M:1764261888    INFO: creating subdirectories
  202. 02:25:33 T:1220 M:1764261888    INFO: userdata folder: special://masterprofile/
  203. 02:25:33 T:1220 M:1764261888    INFO: recording folder:
  204. 02:25:33 T:1220 M:1764261888    INFO: screenshots folder:
  205. 02:25:33 T:1220 M:1764261888    INFO: thumbnails folder: special://masterprofile/Thumbnails
  206. 02:25:33 T:1220 M:1764225024  NOTICE: initializing playlistplayer
  207. 02:25:33 T:1220 M:1764225024  NOTICE: DONE initializing playlistplayer
  208. 02:25:33 T:1220 M:1764225024   DEBUG: DPMS: supported power-saving modes: OFF STANDBY
  209. 02:25:33 T:1220 M:1763819520    INFO: Default 4:3 resolution directory is C:\Program Files (x86)\XBMC\addons\skin.confluence\720p
  210. 02:25:33 T:1220 M:1763819520    INFO: Default 16:9 resolution directory is C:\Program Files (x86)\XBMC\addons\skin.confluence\720p
  211. 02:25:33 T:1220 M:1763799040    INFO:   delete old skin...
  212. 02:25:33 T:1220 M:1763733504   DEBUG: ------ Window Deinit (Pointer.xml) ------
  213. 02:25:33 T:1220 M:1763729408   DEBUG: ------ Window Deinit (DialogMuteBug.xml) ------
  214. 02:25:33 T:1220 M:1763520512    INFO:   load skin from:C:\Program Files (x86)\XBMC\addons\skin.confluence
  215. 02:25:33 T:1220 M:1763471360    INFO: Loading skin includes from C:\Program Files (x86)\XBMC\addons\skin.confluence\720p\includes.xml
  216. 02:25:33 T:1220 M:1760714752    INFO:   load fonts for skin...
  217. 02:25:33 T:1220 M:1760702464    INFO: Loading fonts from C:\Program Files (x86)\XBMC\addons\skin.confluence\720p\Font.xml
  218. 02:25:33 T:1220 M:1753206784    INFO:   load new skin...
  219. 02:25:33 T:1220 M:1753206784    INFO: Loading skin file: Home.xml
  220. 02:25:33 T:1220 M:1752870912   DEBUG: Load Home.xml: 42.55ms
  221. 02:25:33 T:1220 M:1752866816    INFO: Loading user windows, path C:\Program Files (x86)\XBMC\addons\skin.confluence\720p
  222. 02:25:33 T:1220 M:1752862720    INFO: Loading skin file: C:\Program Files (x86)\XBMC\addons\skin.confluence\720p\custom_DiscDialog_1113.xml
  223. 02:25:33 T:1220 M:1752858624    INFO: Loading skin file: C:\Program Files (x86)\XBMC\addons\skin.confluence\720p\custom_SkinSetting_1111.xml
  224. 02:25:33 T:1220 M:1752788992   DEBUG: Load Skin XML: 52.49ms
  225. 02:25:33 T:1220 M:1752788992    INFO:   initialize new skin...
  226. 02:25:33 T:1220 M:1752788992    INFO: Loading skin file: Pointer.xml
  227. 02:25:33 T:1220 M:1752784896   DEBUG: Load Pointer.xml: 1.15ms
  228. 02:25:33 T:1220 M:1752702976   DEBUG: Alloc resources: 7.21ms (1.19 ms skin load)
  229. 02:25:33 T:1220 M:1752702976    INFO: Loading skin file: DialogVolumeBar.xml
  230. 02:25:33 T:1220 M:1752702976   DEBUG: Load DialogVolumeBar.xml: 1.89ms
  231. 02:25:33 T:1220 M:1752768512   DEBUG: Alloc resources: 2.13ms (1.93 ms skin load)
  232. 02:25:33 T:1220 M:1752768512    INFO: Loading skin file: DialogSeekBar.xml
  233. 02:25:33 T:1220 M:1752690688   DEBUG: Load DialogSeekBar.xml: 6.25ms
  234. 02:25:33 T:1220 M:1752756224   DEBUG: Alloc resources: 6.50ms (6.30 ms skin load)
  235. 02:25:33 T:1220 M:1752756224    INFO: Loading skin file: DialogKaiToast.xml
  236. 02:25:33 T:1220 M:1752756224   DEBUG: Load DialogKaiToast.xml: 1.84ms
  237. 02:25:33 T:1220 M:1752756224   DEBUG: Alloc resources: 1.88ms (1.88 ms skin load)
  238. 02:25:33 T:1220 M:1752756224    INFO: Loading skin file: DialogMuteBug.xml
  239. 02:25:33 T:1220 M:1752756224   DEBUG: Load DialogMuteBug.xml: 1.05ms
  240. 02:25:33 T:1220 M:1752756224   DEBUG: Alloc resources: 1.09ms (1.09 ms skin load)
  241. 02:25:33 T:1220 M:1752756224    INFO: Loading skin file: DialogVolumeBar.xml
  242. 02:25:33 T:1220 M:1752760320   DEBUG: Load DialogVolumeBar.xml: 1.80ms
  243. 02:25:33 T:1220 M:1752760320    INFO: Loading skin file: DialogKaiToast.xml
  244. 02:25:33 T:1220 M:1752682496   DEBUG: Load DialogKaiToast.xml: 1.85ms
  245. 02:25:33 T:1220 M:1752682496    INFO: Loading skin file: DialogSeekBar.xml
  246. 02:25:33 T:1220 M:1752682496   DEBUG: Load DialogSeekBar.xml: 5.80ms
  247. 02:25:33 T:1220 M:1752682496    INFO: Loading skin file: DialogBusy.xml
  248. 02:25:33 T:1220 M:1752678400   DEBUG: Load DialogBusy.xml: 1.36ms
  249. 02:25:33 T:1220 M:1752670208   DEBUG: CGUIAudioManager::Initialize
  250. 02:25:33 T:1220 M:1752670208   DEBUG: CAudioContext::SetActiveDevice - SetActiveDevice from 1 to 2
  251. 02:25:33 T:1220 M:1752670208   DEBUG: CAudioContext::RemoveActiveDevice - Removing device 1
  252. 02:25:33 T:1220 M:1752539136   DEBUG: CWDSound::direct_sound_enumerator_member_callback - found Device: Primary Sound Driver
  253. 02:25:33 T:1220 M:1752539136   DEBUG: CWDSound::direct_sound_enumerator_member_callback - found Device: Speakers (High Definition Audio Device)
  254. 02:25:33 T:1220 M:1752539136   DEBUG: CWDSound::direct_sound_enumerator_member_callback - found Device: Speakers (USB Multimedia Audio Device)
  255. 02:25:33 T:1220 M:1752539136   DEBUG: CWDSound::direct_sound_enumerator_member_callback - found Device: Digital Audio (S/PDIF) (High Definition Audio Device)
  256. 02:25:33 T:1220 M:1752539136   DEBUG: CWDSound::direct_sound_enumerator_member_callback - found Device: Speakers (High Definition Audio Device)
  257. 02:25:33 T:1220 M:1752469504    INFO: Loading C:\Program Files (x86)\XBMC\addons\skin.confluence\sounds\sounds.xml
  258. 02:25:33 T:1220 M:1752465408    INFO:   skin loaded...
  259. 02:25:33 T:1220 M:1752461312   DEBUG: Activating window ID: 12999
  260. 02:25:33 T:1220 M:1752453120   DEBUG: Checking if window ID 12999 is locked.
  261. 02:25:33 T:1220 M:1752444928   DEBUG: ------ Window Init (Startup.xml) ------
  262. 02:25:33 T:1220 M:1752444928    INFO: Loading skin file: Startup.xml
  263. 02:25:33 T:1220 M:1752440832   DEBUG: Load Startup.xml: 2.94ms
  264. 02:25:33 T:1220 M:1752440832   DEBUG: Alloc resources: 2.99ms (2.98 ms skin load)
  265. 02:25:33 T:1220 M:1752436736    INFO: removing tempfiles
  266. 02:25:33 T:1220 M:1752432640  NOTICE: initialize done
  267. 02:25:33 T:1220 M:1752432640  NOTICE: Running the application...
  268. 02:25:33 T:1220 M:1752432640   DEBUG: CApplication::ExecuteXBMCAction : Translating SetFocus(10)
  269. 02:25:33 T:1220 M:1752432640   DEBUG: CApplication::ExecuteXBMCAction : To SetFocus(10)
  270. 02:25:33 T:1220 M:1752424448   DEBUG: XBPython::Process - no user autoexec.py (C:\Users\Nick\AppData\Roaming\XBMC\scripts\autoexec.py) found, skipping
  271. 02:25:33 T:1220 M:1752424448   DEBUG: XBPython::Process - no system autoexec.py (C:\Program Files (x86)\XBMC\scripts\autoexec.py) found, skipping
  272. 02:25:33 T:1220 M:1752420352   DEBUG: CNetwork::NetworkMessage - Starting network services
  273. 02:25:33 T:1220 M:1752408064  NOTICE: ES: Starting event server
  274. 02:25:33 T:6048 M:1752403968   DEBUG: thread start, auto delete: 0
  275. 02:25:33 T:6048 M:1752395776  NOTICE: ES: Starting UDP Event server on 127.0.0.1:9777
  276. 02:25:33 T:1220 M:1752387584   DEBUG: CLastfmScrobbler: Clearing session.
  277. 02:25:33 T:1220 M:1752383488   DEBUG: CLibrefmScrobbler: Clearing session.
  278. 02:25:33 T:6048 M:1752375296  NOTICE: UDP: Listening on port 9777
  279. 02:25:33 T:3668 M:1752371200   DEBUG: thread start, auto delete: 0
  280. 02:25:33 T:3668 M:1752334336    INFO: JSONRPC Server: Successfully initialized
  281. 02:25:33 T:5020 M:1752334336   DEBUG: thread start, auto delete: 1
  282. 02:25:34 T:1220 M:1747279872   DEBUG: CApplication::ExecuteXBMCAction : Translating ReplaceWindow(Home)
  283. 02:25:34 T:1220 M:1747279872   DEBUG: CApplication::ExecuteXBMCAction : To ReplaceWindow(Home)
  284. 02:25:34 T:1220 M:1746345984   DEBUG: Activating window ID: 10000
  285. 02:25:34 T:1220 M:1746345984   DEBUG: Checking if window ID 10000 is locked.
  286. 02:25:34 T:1220 M:1746345984   DEBUG: ------ Window Deinit (Startup.xml) ------
  287. 02:25:34 T:1220 M:1746345984   DEBUG: ------ Window Init (Home.xml) ------
  288. 02:25:34 T:1220 M:1745903616   DEBUG: Alloc resources: 1.84ms (0.00 ms skin load)
  289. 02:25:34 T:5040 M:1745895424   DEBUG: thread start, auto delete: 1
  290. 02:25:34 T:5040 M:1745895424    INFO: WEATHER: Downloading weather
  291. 02:25:34 T:5040 M:1745887232   DEBUG: Win32DllLoader::Load(special://xbmcbin/system/libcurl.dll)
  292. 02:25:34 T:5040 M:1745661952   DEBUG: Win32DllLoader::Load(special://xbmcbin/system/libidn-11.dll)
  293. 02:25:34 T:5040 M:1745661952   DEBUG: Win32DllLoader::Load(special://xbmcbin/system/libeay32.dll)
  294. 02:25:34 T:5040 M:1745649664   DEBUG: Win32DllLoader::Load(special://xbmcbin/system/libssl32.dll)
  295. 02:25:34 T:5040 M:1745223680   DEBUG: Win32DllLoader::Load(ADVAPI32.DLL)
  296. 02:25:34 T:5040 M:1745174528   DEBUG: Win32DllLoader::Load(KERNEL32.DLL)
  297. 02:25:34 T:5040 M:1745174528   DEBUG: Win32DllLoader::Load(NETAPI32.DLL)
  298. 02:25:34 T:5084 M:1740738560   DEBUG: thread start, auto delete: 0
  299. 02:25:34 T:1220 M:1739661312   DEBUG: CApplication::ExecuteXBMCAction : Translating SetFocus(9000)
  300. 02:25:34 T:1220 M:1739661312   DEBUG: CApplication::ExecuteXBMCAction : To SetFocus(9000)
  301. 02:25:34 T:4932 M:1738907648   DEBUG: thread start, auto delete: 1
  302. 02:25:34 T:5020 M:1736978432   DEBUG: CImageLoader::DoWork - took 132 ms to load special://skin/backgrounds/videos.jpg
  303. 02:25:34 T:5040 M:1738088448   DEBUG: FreeLibrary(NETAPI32.DLL) -> 083BDB90
  304. 02:25:34 T:5040 M:1738088448   DEBUG: Win32DllLoader::Unload NETAPI32.DLL
  305. 02:25:34 T:5040 M:1738227712   DEBUG: FreeLibrary(ADVAPI32.DLL) -> 083BEBD0
  306. 02:25:34 T:5040 M:1738227712   DEBUG: Win32DllLoader::Unload ADVAPI32.DLL
  307. 02:25:34 T:5040 M:1738227712   DEBUG: Win32DllLoader::Load(USER32.DLL)
  308. 02:25:34 T:5040 M:1738227712   DEBUG: FreeLibrary(USER32.DLL) -> 083BEBD0
  309. 02:25:34 T:5040 M:1738227712   DEBUG: Win32DllLoader::Unload USER32.DLL
  310. 02:25:34 T:5020 M:1738932224   DEBUG: CImageLoader::DoWork - took 220 ms to load special://skin/backgrounds/videos.jpg
  311. 02:25:35 T:5040 M:1737220096   DEBUG: FreeLibrary(KERNEL32.DLL) -> 083BEC20
  312. 02:25:35 T:5040 M:1737281536   DEBUG: Win32DllLoader::Unload KERNEL32.DLL
  313. 02:25:36 T:5040 M:1738764288   DEBUG: Win32DllLoader::Load(secur32.dll)
  314. 02:25:36 T:5084 M:1738674176   DEBUG: FileCurl::Open(0A77FCBC) http://feeds.feedburner.com/xbmc
  315. 02:25:36 T:5084 M:1738649600    INFO: XCURL::DllLibCurlGlobal::easy_aquire - Created session to http://feeds.feedburner.com
  316. 02:25:36 T:5040 M:1738555392   DEBUG: FileCurl::Open(0A4FFCAC) http://xoap.weather.com/weather/local/USNY0996?cc=*&unit=m&dayf=4&prod=xoap&link=xoap&par=1004124588&key=079f24145f208494
  317. 02:25:36 T:5040 M:1738555392    INFO: XCURL::DllLibCurlGlobal::easy_aquire - Created session to http://xoap.weather.com
  318. 02:25:36 T:1220 M:1738588160   DEBUG: SDLKeyboard: scancode: 77, sym: 275, unicode: 0, modifier: 0
  319. 02:25:36 T:1220 M:1738551296   DEBUG: CApplication::OnKey: 61479 pressed, action is Right
  320. 02:25:37 T:5084 M:1737576448   DEBUG: FileCurl::Close(0A77FCBC) http://feeds.feedburner.com/xbmc
  321. 02:25:37 T:5084 M:1737576448   DEBUG: Got rss feed: http://feeds.feedburner.com/xbmc
  322. 02:25:37 T:5084 M:1737576448   DEBUG: RSS feed encoding: UTF-8
  323. 02:25:37 T:5084 M:1737572352   DEBUG: Parsed rss feed: http://feeds.feedburner.com/xbmc
  324. 02:25:37 T:5084 M:1737572352   DEBUG: Thread 5084 terminating
  325. 02:25:37 T:5040 M:1737613312   DEBUG: FileCurl::Close(0A4FFCAC) http://xoap.weather.com/weather/local/USNY0996?cc=*&unit=m&dayf=4&prod=xoap&link=xoap&par=1004124588&key=079f24145f208494
  326. 02:25:37 T:5040 M:1737613312    INFO: WEATHER: Weather download successful
  327. 02:25:37 T:5040 M:1737601024   DEBUG: CZipManager::GetZipList - Processing zip://special%3a%2f%2fxbmc%2fmedia%2fweather%2ezip/
  328. 02:25:38 T:1220 M:1733738496   DEBUG: SDLKeyboard: scancode: 28, sym: 13, unicode: 13, modifier: 0
  329. 02:25:38 T:1220 M:1733738496   DEBUG: CApplication::OnKey: 61453 pressed, action is Select
  330. 02:25:38 T:1220 M:1733726208   DEBUG: CApplication::ExecuteXBMCAction : Translating ActivateWindow(VideoFiles)
  331. 02:25:38 T:1220 M:1733726208   DEBUG: CApplication::ExecuteXBMCAction : To ActivateWindow(VideoFiles)
  332. 02:25:38 T:1220 M:1733726208   DEBUG: Activating window ID: 10024
  333. 02:25:38 T:1220 M:1733726208   DEBUG: Checking if window ID 10024 is locked.
  334. 02:25:38 T:1220 M:1733726208   DEBUG: ------ Window Deinit (Home.xml) ------
  335. 02:25:38 T:1220 M:1735307264    INFO: Attempting to default to:
  336. 02:25:38 T:1220 M:1735475200   DEBUG: ------ Window Init (MyVideo.xml) ------
  337. 02:25:38 T:1220 M:1735475200    INFO: Loading skin file: MyVideo.xml
  338. 02:25:38 T:1220 M:1735204864   DEBUG: Load MyVideo.xml: 50.87ms
  339. 02:25:38 T:1220 M:1735127040   DEBUG: Alloc resources: 55.57ms (50.92 ms skin load)
  340. 02:25:38 T:1220 M:1735114752   DEBUG: CGUIMediaWindow::GetDirectory ()
  341. 02:25:38 T:1220 M:1735114752   DEBUG:   ParentPath = []
  342. 02:25:38 T:3360 M:1735016448   DEBUG: thread start, auto delete: 0
  343. 02:25:38 T:3360 M:1735012352   DEBUG: Thread 3360 terminating
  344. 02:25:39 T:1220 M:1735041024   DEBUG: SDLKeyboard: scancode: 28, sym: 13, unicode: 13, modifier: 0
  345. 02:25:39 T:1220 M:1735041024   DEBUG: CApplication::OnKey: 61453 pressed, action is Select
  346. 02:25:39 T:1220 M:1734983680    INFO: Loading skin file: DialogMediaSource.xml
  347. 02:25:39 T:1220 M:1734963200   DEBUG: Load DialogMediaSource.xml: 5.74ms
  348. 02:25:39 T:1220 M:1734946816   DEBUG: ------ Window Init (DialogMediaSource.xml) ------
  349. 02:25:39 T:1220 M:1734955008   DEBUG: Alloc resources: 0.49ms (0.00 ms skin load)
  350. 02:25:41 T:1220 M:1741627392   DEBUG: SDLKeyboard: scancode: 77, sym: 275, unicode: 0, modifier: 0
  351. 02:25:41 T:1220 M:1741627392   DEBUG: CApplication::OnKey: 61479 pressed, action is Right
  352. 02:25:42 T:1220 M:1742254080   DEBUG: SDLKeyboard: scancode: 28, sym: 13, unicode: 13, modifier: 0
  353. 02:25:42 T:1220 M:1742254080   DEBUG: CApplication::OnKey: 61453 pressed, action is Select
  354. 02:25:42 T:1220 M:1742319616    INFO: Loading skin file: FileBrowser.xml
  355. 02:25:42 T:1220 M:1742962688   DEBUG: Load FileBrowser.xml: 8.36ms
  356. 02:25:42 T:1220 M:1742303232   DEBUG: ------ Window Init (FileBrowser.xml) ------
  357. 02:25:42 T:1220 M:1742295040   DEBUG: Alloc resources: 0.35ms (0.00 ms skin load)
  358. 02:25:44 T:1220 M:1742266368   DEBUG: SDLKeyboard: scancode: 72, sym: 273, unicode: 0, modifier: 0
  359. 02:25:44 T:1220 M:1742266368   DEBUG: CApplication::OnKey: 61478 pressed, action is Up
  360. 02:25:44 T:1220 M:1742258176   DEBUG: SDLKeyboard: scancode: 72, sym: 273, unicode: 0, modifier: 0
  361. 02:25:44 T:1220 M:1742258176   DEBUG: CApplication::OnKey: 61478 pressed, action is Up
  362. 02:25:45 T:1220 M:1742258176   DEBUG: SDLKeyboard: scancode: 72, sym: 273, unicode: 0, modifier: 0
  363. 02:25:45 T:1220 M:1742258176   DEBUG: CApplication::OnKey: 61478 pressed, action is Up
  364. 02:25:45 T:1220 M:1740902400   DEBUG: SDLKeyboard: scancode: 28, sym: 13, unicode: 13, modifier: 0
  365. 02:25:45 T:1220 M:1740902400   DEBUG: CApplication::OnKey: 61453 pressed, action is Select
  366. 02:25:45 T:4932 M:1740894208   DEBUG: CGetDirectory::DoWork retrieving smb://
  367. 02:25:45 T:1220 M:1740730368   DEBUG: ------ Window Init (DialogBusy.xml) ------
  368. 02:25:45 T:1220 M:1740730368   DEBUG: Alloc resources: 0.01ms (0.01 ms skin load)
  369. 02:25:45 T:4932 M:1741193216   DEBUG: Found Server/Share: \\NICKDESKTOP-PC
  370. 02:25:45 T:4932 M:1741148160   DEBUG: Found Server/Share: \\NICKLAPTOP-PC
  371. 02:25:45 T:4932 M:1741148160   DEBUG: Found Server/Share: \\NICKTV
  372. 02:25:45 T:4932 M:1741107200   ERROR: WnetOpenEnum failed with error 5
  373. 02:25:45 T:4932 M:1741107200   ERROR: WnetOpenEnum failed with error 1222
  374. 02:25:45 T:4932 M:1741168640   DEBUG: CGetDirectory::DoWork retrieving smb:// succeeded
  375. 02:25:45 T:4932 M:1741168640   DEBUG: CGetDirectory::OnJobComplete called
  376. 02:25:46 T:1220 M:1738895360   DEBUG: ------ Window Deinit (DialogBusy.xml) ------
  377. 02:25:46 T:1220 M:1741590528   DEBUG: SDLKeyboard: scancode: 80, sym: 274, unicode: 0, modifier: 0
  378. 02:25:46 T:1220 M:1741590528   DEBUG: CApplication::OnKey: 61480 pressed, action is Down
  379. 02:25:46 T:1220 M:1741619200   DEBUG: SDLKeyboard: scancode: 28, sym: 13, unicode: 13, modifier: 0
  380. 02:25:46 T:1220 M:1741619200   DEBUG: CApplication::OnKey: 61453 pressed, action is Select
  381. 02:25:46 T:5020 M:1741606912   DEBUG: CGetDirectory::DoWork retrieving smb://NICKDESKTOP-PC/
  382. 02:25:46 T:5020 M:1741578240   DEBUG: Trying to connect to \\NICKDESKTOP-PC with username() and password(XXXX)
  383. 02:25:46 T:5020 M:1741578240   DEBUG: Found Server/Share: \\NICKDESKTOP-PC\Downloads
  384. 02:25:46 T:5020 M:1741578240   DEBUG: Found Server/Share: \\NICKDESKTOP-PC\H
  385. 02:25:46 T:5020 M:1741578240   DEBUG: Found Server/Share: \\NICKDESKTOP-PC\Media
  386. 02:25:46 T:5020 M:1741578240   DEBUG: Found Server/Share: \\NICKDESKTOP-PC\Movies
  387. 02:25:46 T:5020 M:1741578240   DEBUG: Found Server/Share: \\NICKDESKTOP-PC\Music
  388. 02:25:46 T:5020 M:1741578240   DEBUG: Found Server/Share: \\NICKDESKTOP-PC\Music2
  389. 02:25:46 T:5020 M:1741578240   DEBUG: Found Server/Share: \\NICKDESKTOP-PC\TV Shows
  390. 02:25:46 T:5020 M:1741578240   DEBUG: Found Server/Share: \\NICKDESKTOP-PC\Users
  391. 02:25:46 T:5020 M:1741578240   DEBUG: Found Server/Share: \\NICKDESKTOP-PC\Web Server
  392. 02:25:46 T:5020 M:1741578240   DEBUG: CGetDirectory::DoWork retrieving smb://NICKDESKTOP-PC/ succeeded
  393. 02:25:46 T:5020 M:1741578240   DEBUG: CGetDirectory::OnJobComplete called
  394. 02:25:47 T:1220 M:1741029376   DEBUG: SDLKeyboard: scancode: 72, sym: 273, unicode: 0, modifier: 0
  395. 02:25:47 T:1220 M:1741029376   DEBUG: CApplication::OnKey: 61478 pressed, action is Up
  396. 02:25:48 T:1220 M:1741037568   DEBUG: SDLKeyboard: scancode: 72, sym: 273, unicode: 0, modifier: 0
  397. 02:25:48 T:1220 M:1741037568   DEBUG: CApplication::OnKey: 61478 pressed, action is Up
  398. 02:25:48 T:1220 M:1741824000   DEBUG: SDLKeyboard: scancode: 72, sym: 273, unicode: 0, modifier: 0
  399. 02:25:48 T:1220 M:1741824000   DEBUG: CApplication::OnKey: 61478 pressed, action is Up
  400. 02:25:48 T:1220 M:1741869056   DEBUG: SDLKeyboard: scancode: 28, sym: 13, unicode: 13, modifier: 0
  401. 02:25:48 T:1220 M:1741869056   DEBUG: CApplication::OnKey: 61453 pressed, action is Select
  402. 02:25:48 T:5040 M:1741856768   DEBUG: CGetDirectory::DoWork retrieving smb://NICKDESKTOP-PC/TV Shows/
  403. 02:25:48 T:5040 M:1741856768   DEBUG: CGetDirectory::DoWork retrieving smb://NICKDESKTOP-PC/TV Shows/ succeeded
  404. 02:25:48 T:5040 M:1741856768   DEBUG: CGetDirectory::OnJobComplete called
  405. 02:25:49 T:1220 M:1741099008   DEBUG: SDLKeyboard: scancode: 75, sym: 276, unicode: 0, modifier: 0
  406. 02:25:49 T:1220 M:1741066240   DEBUG: CApplication::OnKey: 61477 pressed, action is Left
  407. 02:25:50 T:1220 M:1741680640   DEBUG: SDLKeyboard: scancode: 28, sym: 13, unicode: 13, modifier: 0
  408. 02:25:50 T:1220 M:1741680640   DEBUG: CApplication::OnKey: 61453 pressed, action is Select
  409. 02:25:50 T:1220 M:1740894208   DEBUG: ------ Window Deinit (FileBrowser.xml) ------
  410. 02:25:51 T:1220 M:1740894208   DEBUG: SDLKeyboard: scancode: 80, sym: 274, unicode: 0, modifier: 0
  411. 02:25:51 T:1220 M:1740894208   DEBUG: CApplication::OnKey: 61480 pressed, action is Down
  412. 02:25:52 T:1220 M:1740898304   DEBUG: SDLKeyboard: scancode: 80, sym: 274, unicode: 0, modifier: 0
  413. 02:25:52 T:1220 M:1740898304   DEBUG: CApplication::OnKey: 61480 pressed, action is Down
  414. 02:25:52 T:1220 M:1741586432   DEBUG: SDLKeyboard: scancode: 80, sym: 274, unicode: 0, modifier: 0
  415. 02:25:52 T:1220 M:1741586432   DEBUG: CApplication::OnKey: 61480 pressed, trying keyboard action 61480
  416. 02:25:52 T:1220 M:1741586432   DEBUG: CApplication::OnKey: 61480 pressed, action is Down
  417. 02:25:53 T:1220 M:1741631488   DEBUG: SDLKeyboard: scancode: 28, sym: 13, unicode: 13, modifier: 0
  418. 02:25:53 T:1220 M:1741631488   DEBUG: CApplication::OnKey: 61453 pressed, action is Select
  419. 02:25:53 T:1220 M:1741524992   DEBUG: ------ Window Deinit (DialogMediaSource.xml) ------
  420. 02:25:53 T:1220 M:1741164544   DEBUG: CGUIMediaWindow::GetDirectory ()
  421. 02:25:53 T:1220 M:1741164544   DEBUG:   ParentPath = []
  422. 02:25:53 T:4564 M:1741787136   DEBUG: thread start, auto delete: 0
  423. 02:25:53 T:4564 M:1741787136   DEBUG: Thread 4564 terminating
  424. 02:25:56 T:1220 M:1740591104   DEBUG: SDLKeyboard: scancode: 72, sym: 273, unicode: 0, modifier: 0
  425. 02:25:56 T:1220 M:1740591104   DEBUG: CApplication::OnKey: 61478 pressed, action is Up
  426. 02:25:57 T:1220 M:1741262848   DEBUG: SDLKeyboard: scancode: 46, sym: 99, unicode: 99, modifier: 0
  427. 02:25:57 T:1220 M:1741262848   DEBUG: CApplication::OnKey: 61507 pressed, action is ContextMenu
  428. 02:25:57 T:1220 M:1741250560   DEBUG: CFavourites::Load - no userdata favourites found, skipping
  429. 02:25:57 T:1220 M:1741242368    INFO: Loading skin file: DialogContextMenu.xml
  430. 02:25:57 T:1220 M:1741238272   DEBUG: Load DialogContextMenu.xml: 1.77ms
  431. 02:25:57 T:1220 M:1741238272   DEBUG: ------ Window Init (DialogContextMenu.xml) ------
  432. 02:25:57 T:1220 M:1741369344   DEBUG: Alloc resources: 0.40ms (0.00 ms skin load)
  433. 02:25:57 T:1220 M:1738625024   DEBUG: SDLKeyboard: scancode: 80, sym: 274, unicode: 0, modifier: 0
  434. 02:25:57 T:1220 M:1738625024   DEBUG: CApplication::OnKey: 61480 pressed, action is Down
  435. 02:25:59 T:1220 M:1739272192   DEBUG: SDLKeyboard: scancode: 80, sym: 274, unicode: 0, modifier: 0
  436. 02:25:59 T:1220 M:1739272192   DEBUG: CApplication::OnKey: 61480 pressed, action is Down
  437. 02:25:59 T:1220 M:1738928128   DEBUG: SDLKeyboard: scancode: 80, sym: 274, unicode: 0, modifier: 0
  438. 02:25:59 T:1220 M:1738928128   DEBUG: CApplication::OnKey: 61480 pressed, action is Down
  439. 02:26:00 T:1220 M:1738530816   DEBUG: SDLKeyboard: scancode: 80, sym: 274, unicode: 0, modifier: 0
  440. 02:26:00 T:1220 M:1738530816   DEBUG: CApplication::OnKey: 61480 pressed, action is Down
  441. 02:26:00 T:1220 M:1738522624   DEBUG: SDLKeyboard: scancode: 80, sym: 274, unicode: 0, modifier: 0
  442. 02:26:00 T:1220 M:1738522624   DEBUG: CApplication::OnKey: 61480 pressed, action is Down
  443. 02:26:01 T:1220 M:1738522624   DEBUG: SDLKeyboard: scancode: 80, sym: 274, unicode: 0, modifier: 0
  444. 02:26:01 T:1220 M:1738522624   DEBUG: CApplication::OnKey: 61480 pressed, action is Down
  445. 02:26:05 T:1220 M:1739456512   DEBUG: SDLKeyboard: scancode: 28, sym: 13, unicode: 13, modifier: 0
  446. 02:26:05 T:1220 M:1739456512   DEBUG: CApplication::OnKey: 61453 pressed, action is Select
  447. 02:26:05 T:1220 M:1738981376   DEBUG: ------ Window Deinit (DialogContextMenu.xml) ------
  448. 02:26:05 T:1220 M:1740378112   DEBUG: ------ Window Init (DialogContentSettings.xml) ------
  449. 02:26:05 T:1220 M:1740378112    INFO: Loading skin file: DialogContentSettings.xml
  450. 02:26:05 T:1220 M:1739907072   DEBUG: Load DialogContentSettings.xml: 8.58ms
  451. 02:26:05 T:1220 M:1739866112   DEBUG: Alloc resources: 9.88ms (8.63 ms skin load)
  452. 02:26:06 T:1220 M:1739096064   DEBUG: SDLKeyboard: scancode: 28, sym: 13, unicode: 13, modifier: 0
  453. 02:26:06 T:1220 M:1739096064   DEBUG: CApplication::OnKey: 61453 pressed, action is Select
  454. 02:26:07 T:1220 M:1738792960   DEBUG: SDLKeyboard: scancode: 28, sym: 13, unicode: 13, modifier: 0
  455. 02:26:07 T:1220 M:1738792960   DEBUG: CApplication::OnKey: 61453 pressed, action is Select
  456. 02:26:07 T:1220 M:1738145792    INFO: XCURL::DllLibCurlGlobal::CheckIdle - Closing session to http://feeds.feedburner.com (easy=01358E20, multi=014A7730)
  457. 02:26:08 T:1220 M:1738985472    INFO: XCURL::DllLibCurlGlobal::CheckIdle - Closing session to http://xoap.weather.com (easy=01369730, multi=014A77B8)
  458. 02:26:08 T:1220 M:1739014144   DEBUG: FreeLibrary(secur32.dll) -> 083BEC20
  459. 02:26:08 T:1220 M:1739014144   DEBUG: Win32DllLoader::Unload secur32.dll
  460. 02:26:08 T:1220 M:1739038720   DEBUG: SDLKeyboard: scancode: 77, sym: 275, unicode: 0, modifier: 0
  461. 02:26:08 T:1220 M:1739038720   DEBUG: CApplication::OnKey: 61479 pressed, action is Right
  462. 02:26:08 T:1220 M:1739530240   DEBUG: SDLKeyboard: scancode: 77, sym: 275, unicode: 0, modifier: 0
  463. 02:26:08 T:1220 M:1739530240   DEBUG: CApplication::OnKey: 61479 pressed, action is Right
  464. 02:26:09 T:1220 M:1739640832   DEBUG: SDLKeyboard: scancode: 80, sym: 274, unicode: 0, modifier: 0
  465. 02:26:09 T:1220 M:1739640832   DEBUG: CApplication::OnKey: 61480 pressed, action is Down
  466. 02:26:09 T:1220 M:1739345920   DEBUG: SDLKeyboard: scancode: 28, sym: 13, unicode: 13, modifier: 0
  467. 02:26:09 T:1220 M:1739345920   DEBUG: CApplication::OnKey: 61453 pressed, action is Select
  468. 02:26:10 T:1220 M:1739669504   DEBUG: SDLKeyboard: scancode: 28, sym: 13, unicode: 13, modifier: 0
  469. 02:26:10 T:1220 M:1739669504   DEBUG: CApplication::OnKey: 61453 pressed, action is Select
  470. 02:26:11 T:1220 M:1739685888   DEBUG: SDLKeyboard: scancode: 80, sym: 274, unicode: 0, modifier: 0
  471. 02:26:11 T:1220 M:1739685888   DEBUG: CApplication::OnKey: 61480 pressed, action is Down
  472. 02:26:11 T:1220 M:1739415552   DEBUG: SDLKeyboard: scancode: 80, sym: 274, unicode: 0, modifier: 0
  473. 02:26:11 T:1220 M:1739415552   DEBUG: CApplication::OnKey: 61480 pressed, action is Down
  474. 02:26:11 T:1220 M:1739309056   DEBUG: SDLKeyboard: scancode: 80, sym: 274, unicode: 0, modifier: 0
  475. 02:26:11 T:1220 M:1739309056   DEBUG: CApplication::OnKey: 61480 pressed, action is Down
  476. 02:26:14 T:1220 M:1739575296   DEBUG: SDLKeyboard: scancode: 28, sym: 13, unicode: 13, modifier: 0
  477. 02:26:14 T:1220 M:1739575296   DEBUG: CApplication::OnKey: 61453 pressed, action is Select
  478. 02:26:15 T:1220 M:1739526144   DEBUG: ------ Window Deinit (DialogContentSettings.xml) ------
  479. 02:26:15 T:1220 M:1739526144   DEBUG: ------ Window Deinit (DialogContentSettings.xml) ------
  480. 02:26:15 T:1220 M:1740820480   DEBUG: ------ Window Init (DialogVideoScan.xml) ------
  481. 02:26:15 T:1220 M:1740820480    INFO: Loading skin file: DialogVideoScan.xml
  482. 02:26:15 T:1220 M:1740804096   DEBUG: Load DialogVideoScan.xml: 1.81ms
  483. 02:26:15 T:1220 M:1740800000   DEBUG: Alloc resources: 2.14ms (1.86 ms skin load)
  484. 02:26:15 T:3836 M:1740791808   DEBUG: thread start, auto delete: 0
  485. 02:26:15 T:3836 M:1740791808  NOTICE: VideoInfoScanner: Starting scan ..
  486. 02:26:15 T:3836 M:1740746752   DEBUG: Win32DllLoader::Load(ADVAPI32.DLL)
  487. 02:26:15 T:3836 M:1740746752   DEBUG: Win32DllLoader::Load(KERNEL32.DLL)
  488. 02:26:15 T:3836 M:1740746752   DEBUG: Win32DllLoader::Load(NETAPI32.DLL)
  489. 02:26:15 T:3836 M:1740693504   DEBUG: FreeLibrary(NETAPI32.DLL) -> 08360B70
  490. 02:26:15 T:3836 M:1740693504   DEBUG: Win32DllLoader::Unload NETAPI32.DLL
  491. 02:26:15 T:3836 M:1740730368   DEBUG: FreeLibrary(ADVAPI32.DLL) -> 08360C10
  492. 02:26:15 T:3836 M:1740730368   DEBUG: Win32DllLoader::Unload ADVAPI32.DLL
  493. 02:26:15 T:3836 M:1740730368   DEBUG: Win32DllLoader::Load(USER32.DLL)
  494. 02:26:15 T:3836 M:1740730368   DEBUG: FreeLibrary(USER32.DLL) -> 08360C10
  495. 02:26:15 T:3836 M:1740730368   DEBUG: Win32DllLoader::Unload USER32.DLL
  496. 02:26:15 T:4932 M:1740120064   DEBUG: Thread 4932 terminating (autodelete)
  497. 02:26:16 T:5020 M:1740505088   DEBUG: Thread 5020 terminating (autodelete)
  498. 02:26:17 T:3836 M:1740836864   DEBUG: FreeLibrary(KERNEL32.DLL) -> 08360BC0
  499. 02:26:17 T:3836 M:1740857344   DEBUG: Win32DllLoader::Unload KERNEL32.DLL
  500. 02:26:18 T:3836 M:1741500416   DEBUG: Win32DllLoader::Load(secur32.dll)
  501. 02:26:18 T:3836 M:1741488128   DEBUG: scraper: NfoScrape returned
  502. 02:26:18 T:3836 M:1741488128   ERROR: ADDON::CScraper::Run: Unable to parse web site
  503. 02:26:18 T:3836 M:1741488128   DEBUG: FreeLibrary(secur32.dll) -> 08360BC0
  504. 02:26:18 T:3836 M:1741488128   DEBUG: Win32DllLoader::Unload secur32.dll
  505. 02:26:18 T:3836 M:1741500416   DEBUG: VideoInfoScanner: Found matching Full NFO file: smb://NICKDESKTOP-PC/TV Shows/24/tvshow.nfo
  506. 02:26:18 T:3836 M:1741242368   DEBUG: VideoInfoScanner: Adding new item to tvshows:smb://NICKDESKTOP-PC/TV Shows/24/
  507. 02:26:18 T:3836 M:1741156352    INFO: Caching image from: smb://NICKDESKTOP-PC/TV Shows/24/fanart.jpg to special://masterprofile/Thumbnails/Video/Fanart/1a0f1dbc.tbn
  508. 02:26:18 T:3836 M:1741344768    INFO: Caching image from: smb://NICKDESKTOP-PC/TV Shows/24/folder.jpg to special://masterprofile/Thumbnails/Video/1/1a0f1dbc.tbn with width 512 and height 512
  509. 02:26:18 T:3836 M:1740193792   DEBUG: CVideoDatabase::GetStackedTvShowList query: select idShow from tvshow where c00 like (select c00 from tvshow where idShow=1) order by idShow
  510. 02:26:18 T:3836 M:1740189696   DEBUG: CVideoDatabase::GetSeasonsNav query: select episode.c12,path.strPath,tvshow.c00,tvshow.c08,tvshow.c14,tvshow.c13,count(1),count(files.playCount) from episode join tvshowlinkepisode on tvshowlinkepisode.idEpisode=episode.idEpisode join tvshow on tvshow.idShow=tvshowlinkepisode.idShow join files on files.idFile=episode.idFile  join tvshowlinkpath on tvshowlinkpath.idShow = tvshow.idShow join path on path.idPath = tvshowlinkpath.idPath where tvshow.idShow = 1  group by episode.c12
  511. 02:26:18 T:3836 M:1740599296   DEBUG: Win32DllLoader::Load(ADVAPI32.DLL)
  512. 02:26:18 T:3836 M:1740599296   DEBUG: Win32DllLoader::Load(KERNEL32.DLL)
  513. 02:26:18 T:3836 M:1740873728   DEBUG: Win32DllLoader::Load(NETAPI32.DLL)
  514. 02:26:18 T:3836 M:1740857344   DEBUG: FreeLibrary(NETAPI32.DLL) -> 0835ED20
  515. 02:26:18 T:3836 M:1740857344   DEBUG: Win32DllLoader::Unload NETAPI32.DLL
  516. 02:26:18 T:3836 M:1740894208   DEBUG: FreeLibrary(ADVAPI32.DLL) -> 08359500
  517. 02:26:18 T:3836 M:1740894208   DEBUG: Win32DllLoader::Unload ADVAPI32.DLL
  518. 02:26:18 T:3836 M:1741303808   DEBUG: Win32DllLoader::Load(USER32.DLL)
  519. 02:26:18 T:3836 M:1741303808   DEBUG: FreeLibrary(USER32.DLL) -> 08359500
  520. 02:26:18 T:3836 M:1741303808   DEBUG: Win32DllLoader::Unload USER32.DLL
  521. 02:26:18 T:5040 M:1740083200   DEBUG: Thread 5040 terminating (autodelete)
  522. 02:26:20 T:3836 M:1740345344   DEBUG: FreeLibrary(KERNEL32.DLL) -> 0835EE10
  523. 02:26:20 T:3836 M:1740500992   DEBUG: Win32DllLoader::Unload KERNEL32.DLL
  524. 02:26:21 T:3836 M:1740976128   DEBUG: Win32DllLoader::Load(secur32.dll)
  525. 02:26:21 T:3836 M:1741234176   DEBUG: scraper: NfoScrape returned
  526. 02:26:21 T:3836 M:1741234176   ERROR: ADDON::CScraper::Run: Unable to parse web site
  527. 02:26:21 T:3836 M:1741553664   DEBUG: FreeLibrary(secur32.dll) -> 0835EE10
  528. 02:26:21 T:3836 M:1741553664   DEBUG: Win32DllLoader::Unload secur32.dll
  529. 02:26:21 T:3836 M:1741426688   DEBUG: VideoInfoScanner: Found matching Full NFO file: smb://NICKDESKTOP-PC/TV Shows/30 Rock/tvshow.nfo
  530. 02:26:21 T:3836 M:1740218368   DEBUG: VideoInfoScanner: Adding new item to tvshows:smb://NICKDESKTOP-PC/TV Shows/30 Rock/
  531. 02:26:21 T:3836 M:1740308480    INFO: Caching image from: smb://NICKDESKTOP-PC/TV Shows/30 Rock/fanart.jpg to special://masterprofile/Thumbnails/Video/Fanart/9b835758.tbn
  532. 02:26:21 T:3836 M:1740603392    INFO: Caching image from: smb://NICKDESKTOP-PC/TV Shows/30 Rock/folder.jpg to special://masterprofile/Thumbnails/Video/9/9b835758.tbn with width 512 and height 512
  533. 02:26:22 T:3836 M:1740869632   DEBUG: CVideoDatabase::GetStackedTvShowList query: select idShow from tvshow where c00 like (select c00 from tvshow where idShow=2) order by idShow
  534. 02:26:22 T:3836 M:1740869632   DEBUG: CVideoDatabase::GetSeasonsNav query: select episode.c12,path.strPath,tvshow.c00,tvshow.c08,tvshow.c14,tvshow.c13,count(1),count(files.playCount) from episode join tvshowlinkepisode on tvshowlinkepisode.idEpisode=episode.idEpisode join tvshow on tvshow.idShow=tvshowlinkepisode.idShow join files on files.idFile=episode.idFile  join tvshowlinkpath on tvshowlinkpath.idShow = tvshow.idShow join path on path.idPath = tvshowlinkpath.idPath where tvshow.idShow = 2  group by episode.c12
  535. 02:26:22 T:3836 M:1740951552   DEBUG: Win32DllLoader::Load(ADVAPI32.DLL)
  536. 02:26:22 T:3836 M:1740951552   DEBUG: Win32DllLoader::Load(KERNEL32.DLL)
  537. 02:26:22 T:3836 M:1740951552   DEBUG: Win32DllLoader::Load(NETAPI32.DLL)
  538. 02:26:22 T:3836 M:1740914688   DEBUG: FreeLibrary(NETAPI32.DLL) -> 0835B580
  539. 02:26:22 T:3836 M:1740914688   DEBUG: Win32DllLoader::Unload NETAPI32.DLL
  540. 02:26:22 T:3836 M:1740951552   DEBUG: FreeLibrary(ADVAPI32.DLL) -> 08359780
  541. 02:26:22 T:3836 M:1740951552   DEBUG: Win32DllLoader::Unload ADVAPI32.DLL
  542. 02:26:22 T:3836 M:1740951552   DEBUG: Win32DllLoader::Load(USER32.DLL)
  543. 02:26:22 T:3836 M:1740951552   DEBUG: FreeLibrary(USER32.DLL) -> 08359780
  544. 02:26:22 T:3836 M:1740951552   DEBUG: Win32DllLoader::Unload USER32.DLL
  545. 02:26:23 T:3836 M:1741352960   DEBUG: FreeLibrary(KERNEL32.DLL) -> 0835B530
  546. 02:26:23 T:3836 M:1741352960   DEBUG: Win32DllLoader::Unload KERNEL32.DLL
  547. 02:26:25 T:3836 M:1741639680   DEBUG: Win32DllLoader::Load(secur32.dll)
  548. 02:26:25 T:3836 M:1741627392   DEBUG: scraper: NfoScrape returned
  549. 02:26:25 T:3836 M:1741627392   ERROR: ADDON::CScraper::Run: Unable to parse web site
  550. 02:26:25 T:3836 M:1741635584   DEBUG: FreeLibrary(secur32.dll) -> 0835B530
  551. 02:26:25 T:3836 M:1741639680   DEBUG: Win32DllLoader::Unload secur32.dll
  552. 02:26:25 T:1220 M:1741656064   DEBUG: SDLKeyboard: scancode: 56, sym: 308, unicode: 0, modifier: 0
  553. 02:26:25 T:3836 M:1741656064   DEBUG: VideoInfoScanner: Found matching Full NFO file: smb://NICKDESKTOP-PC/TV Shows/Aqua Teen Hunger Force/tvshow.nfo
  554. 02:26:25 T:1220 M:1741656064   DEBUG: CWinEventsWin32::WndProcWindow is active
  555. 02:26:25 T:1220 M:1741656064   DEBUG: CWinEventsWin32::WndProcWindow lost focus
  556. 02:26:25 T:3836 M:1742045184   DEBUG: VideoInfoScanner: Adding new item to tvshows:smb://NICKDESKTOP-PC/TV Shows/Aqua Teen Hunger Force/
  557. 02:26:25 T:3836 M:1742692352    INFO: Caching image from: smb://NICKDESKTOP-PC/TV Shows/Aqua Teen Hunger Force/fanart.jpg to special://masterprofile/Thumbnails/Video/Fanart/c297f214.tbn
  558. 02:26:25 T:3836 M:1743425536    INFO: Caching image from: smb://NICKDESKTOP-PC/TV Shows/Aqua Teen Hunger Force/folder.jpg to special://masterprofile/Thumbnails/Video/c/c297f214.tbn with width 512 and height 512
  559. 02:26:25 T:3836 M:1742041088   DEBUG: CVideoDatabase::GetStackedTvShowList query: select idShow from tvshow where c00 like (select c00 from tvshow where idShow=3) order by idShow
  560. 02:26:25 T:3836 M:1742041088   DEBUG: CVideoDatabase::GetSeasonsNav query: select episode.c12,path.strPath,tvshow.c00,tvshow.c08,tvshow.c14,tvshow.c13,count(1),count(files.playCount) from episode join tvshowlinkepisode on tvshowlinkepisode.idEpisode=episode.idEpisode join tvshow on tvshow.idShow=tvshowlinkepisode.idShow join files on files.idFile=episode.idFile  join tvshowlinkpath on tvshowlinkpath.idShow = tvshow.idShow join path on path.idPath = tvshowlinkpath.idPath where tvshow.idShow = 3  group by episode.c12
  561. 02:26:25 T:3836 M:1741787136   DEBUG: Win32DllLoader::Load(ADVAPI32.DLL)
  562. 02:26:25 T:3836 M:1741787136   DEBUG: Win32DllLoader::Load(KERNEL32.DLL)
  563. 02:26:25 T:3836 M:1742049280   DEBUG: Win32DllLoader::Load(NETAPI32.DLL)
  564. 02:26:25 T:3836 M:1742012416   DEBUG: FreeLibrary(NETAPI32.DLL) -> 08359A50
  565. 02:26:25 T:3836 M:1742012416   DEBUG: Win32DllLoader::Unload NETAPI32.DLL
  566. 02:26:25 T:3836 M:1742049280   DEBUG: FreeLibrary(ADVAPI32.DLL) -> 0835F2C0
  567. 02:26:25 T:3836 M:1742049280   DEBUG: Win32DllLoader::Unload ADVAPI32.DLL
  568. 02:26:25 T:3836 M:1742049280   DEBUG: Win32DllLoader::Load(USER32.DLL)
  569. 02:26:25 T:3836 M:1742049280   DEBUG: FreeLibrary(USER32.DLL) -> 0835F2C0
  570. 02:26:25 T:3836 M:1742049280   DEBUG: Win32DllLoader::Unload USER32.DLL
  571. 02:26:27 T:3836 M:1744261120   DEBUG: FreeLibrary(KERNEL32.DLL) -> 0835F310
  572. 02:26:27 T:3836 M:1744261120   DEBUG: Win32DllLoader::Unload KERNEL32.DLL
  573. 02:26:29 T:3836 M:1743425536   DEBUG: Win32DllLoader::Load(secur32.dll)
  574. 02:26:29 T:3836 M:1743413248   DEBUG: scraper: NfoScrape returned
  575. 02:26:29 T:3836 M:1743413248   ERROR: ADDON::CScraper::Run: Unable to parse web site
  576. 02:26:29 T:3836 M:1743540224   DEBUG: FreeLibrary(secur32.dll) -> 0835F310
  577. 02:26:29 T:3836 M:1743540224   DEBUG: Win32DllLoader::Unload secur32.dll
  578. 02:26:29 T:3836 M:1743552512   DEBUG: VideoInfoScanner: Found matching Full NFO file: smb://NICKDESKTOP-PC/TV Shows/Arrested Development/tvshow.nfo
  579. 02:26:29 T:3836 M:1743880192   DEBUG: VideoInfoScanner: Adding new item to tvshows:smb://NICKDESKTOP-PC/TV Shows/Arrested Development/
  580. 02:26:29 T:3836 M:1743503360    INFO: Caching image from: smb://NICKDESKTOP-PC/TV Shows/Arrested Development/fanart.jpg to special://masterprofile/Thumbnails/Video/Fanart/6535f504.tbn
  581. 02:26:29 T:3836 M:1743904768    INFO: Caching image from: smb://NICKDESKTOP-PC/TV Shows/Arrested Development/folder.jpg to special://masterprofile/Thumbnails/Video/6/6535f504.tbn with width 512 and height 512
  582. 02:26:29 T:3836 M:1742790656   DEBUG: CVideoDatabase::GetStackedTvShowList query: select idShow from tvshow where c00 like (select c00 from tvshow where idShow=4) order by idShow
  583. 02:26:29 T:3836 M:1742790656   DEBUG: CVideoDatabase::GetSeasonsNav query: select episode.c12,path.strPath,tvshow.c00,tvshow.c08,tvshow.c14,tvshow.c13,count(1),count(files.playCount) from episode join tvshowlinkepisode on tvshowlinkepisode.idEpisode=episode.idEpisode join tvshow on tvshow.idShow=tvshowlinkepisode.idShow join files on files.idFile=episode.idFile  join tvshowlinkpath on tvshowlinkpath.idShow = tvshow.idShow join path on path.idPath = tvshowlinkpath.idPath where tvshow.idShow = 4  group by episode.c12
  584. 02:26:29 T:3836 M:1742811136   DEBUG: Win32DllLoader::Load(ADVAPI32.DLL)
  585. 02:26:29 T:3836 M:1742811136   DEBUG: Win32DllLoader::Load(KERNEL32.DLL)
  586. 02:26:29 T:3836 M:1742811136   DEBUG: Win32DllLoader::Load(NETAPI32.DLL)
  587. 02:26:29 T:3836 M:1742774272   DEBUG: FreeLibrary(NETAPI32.DLL) -> 0835BDF0
  588. 02:26:29 T:3836 M:1742774272   DEBUG: Win32DllLoader::Unload NETAPI32.DLL
  589. 02:26:29 T:3836 M:1742811136   DEBUG: FreeLibrary(ADVAPI32.DLL) -> 0835BD50
  590. 02:26:29 T:3836 M:1742811136   DEBUG: Win32DllLoader::Unload ADVAPI32.DLL
  591. 02:26:29 T:3836 M:1742811136   DEBUG: Win32DllLoader::Load(USER32.DLL)
  592. 02:26:29 T:3836 M:1742811136   DEBUG: FreeLibrary(USER32.DLL) -> 0835BD50
  593. 02:26:29 T:3836 M:1742811136   DEBUG: Win32DllLoader::Unload USER32.DLL
  594. 02:26:30 T:3836 M:1743536128   DEBUG: FreeLibrary(KERNEL32.DLL) -> 0835BDA0
  595. 02:26:30 T:3836 M:1743650816   DEBUG: Win32DllLoader::Unload KERNEL32.DLL
  596. 02:26:31 T:3836 M:1743417344   DEBUG: Win32DllLoader::Load(secur32.dll)
  597. 02:26:31 T:3836 M:1743405056   DEBUG: scraper: NfoScrape returned
  598. 02:26:31 T:3836 M:1743405056   ERROR: ADDON::CScraper::Run: Unable to parse web site
  599. 02:26:31 T:3836 M:1743405056   DEBUG: FreeLibrary(secur32.dll) -> 0835BDA0
  600. 02:26:31 T:3836 M:1743405056   DEBUG: Win32DllLoader::Unload secur32.dll
  601. 02:26:31 T:3836 M:1743417344   DEBUG: VideoInfoScanner: Found matching Full NFO file: smb://NICKDESKTOP-PC/TV Shows/Babylon 5/tvshow.nfo
  602. 02:26:31 T:3836 M:1742467072   DEBUG: VideoInfoScanner: Adding new item to tvshows:smb://NICKDESKTOP-PC/TV Shows/Babylon 5/
  603. 02:26:31 T:3836 M:1742278656    INFO: Caching image from: smb://NICKDESKTOP-PC/TV Shows/Babylon 5/fanart.jpg to special://masterprofile/Thumbnails/Video/Fanart/8a525d71.tbn
  604. 02:26:31 T:3836 M:1742258176    INFO: Caching image from: smb://NICKDESKTOP-PC/TV Shows/Babylon 5/folder.jpg to special://masterprofile/Thumbnails/Video/8/8a525d71.tbn with width 512 and height 512
  605. 02:26:31 T:3836 M:1742848000   DEBUG: CVideoDatabase::GetStackedTvShowList query: select idShow from tvshow where c00 like (select c00 from tvshow where idShow=5) order by idShow
  606. 02:26:31 T:3836 M:1742950400   DEBUG: CVideoDatabase::GetSeasonsNav query: select episode.c12,path.strPath,tvshow.c00,tvshow.c08,tvshow.c14,tvshow.c13,count(1),count(files.playCount) from episode join tvshowlinkepisode on tvshowlinkepisode.idEpisode=episode.idEpisode join tvshow on tvshow.idShow=tvshowlinkepisode.idShow join files on files.idFile=episode.idFile  join tvshowlinkpath on tvshowlinkpath.idShow = tvshow.idShow join path on path.idPath = tvshowlinkpath.idPath where tvshow.idShow = 5  group by episode.c12
  607. 02:26:31 T:3836 M:1741246464   DEBUG: Win32DllLoader::Load(ADVAPI32.DLL)
  608. 02:26:31 T:3836 M:1741246464   DEBUG: Win32DllLoader::Load(KERNEL32.DLL)
  609. 02:26:31 T:3836 M:1741246464   DEBUG: Win32DllLoader::Load(NETAPI32.DLL)
  610. 02:26:31 T:3836 M:1741209600   DEBUG: FreeLibrary(NETAPI32.DLL) -> 08486680
  611. 02:26:31 T:3836 M:1741209600   DEBUG: Win32DllLoader::Unload NETAPI32.DLL
  612. 02:26:31 T:3836 M:1741246464   DEBUG: FreeLibrary(ADVAPI32.DLL) -> 08483F20
  613. 02:26:31 T:3836 M:1741246464   DEBUG: Win32DllLoader::Unload ADVAPI32.DLL
  614. 02:26:31 T:3836 M:1741246464   DEBUG: Win32DllLoader::Load(USER32.DLL)
  615. 02:26:31 T:3836 M:1741246464   DEBUG: FreeLibrary(USER32.DLL) -> 08483F20
  616. 02:26:31 T:3836 M:1741246464   DEBUG: Win32DllLoader::Unload USER32.DLL
  617. 02:26:33 T:3836 M:1741156352   DEBUG: FreeLibrary(KERNEL32.DLL) -> 084866D0
  618. 02:26:33 T:3836 M:1741152256   DEBUG: Win32DllLoader::Unload KERNEL32.DLL
  619. 02:26:35 T:3836 M:1741512704   DEBUG: Win32DllLoader::Load(secur32.dll)
  620. 02:26:35 T:3836 M:1741500416   DEBUG: scraper: NfoScrape returned
  621. 02:26:35 T:3836 M:1741500416   ERROR: ADDON::CScraper::Run: Unable to parse web site
  622. 02:26:35 T:3836 M:1741500416   DEBUG: FreeLibrary(secur32.dll) -> 084866D0
  623. 02:26:35 T:3836 M:1741500416   DEBUG: Win32DllLoader::Unload secur32.dll
  624. 02:26:35 T:3836 M:1741512704   DEBUG: VideoInfoScanner: Found matching Full NFO file: smb://NICKDESKTOP-PC/TV Shows/Band of Brothers/tvshow.nfo
  625. 02:26:35 T:3836 M:1741303808   DEBUG: VideoInfoScanner: Adding new item to tvshows:smb://NICKDESKTOP-PC/TV Shows/Band of Brothers/
  626. 02:26:35 T:3836 M:1741258752    INFO: Caching image from: smb://NICKDESKTOP-PC/TV Shows/Band of Brothers/fanart.jpg to special://masterprofile/Thumbnails/Video/Fanart/870ecc45.tbn
  627. 02:26:35 T:3836 M:1741758464    INFO: Caching image from: smb://NICKDESKTOP-PC/TV Shows/Band of Brothers/folder.jpg to special://masterprofile/Thumbnails/Video/8/870ecc45.tbn with width 512 and height 512
  628. 02:26:35 T:3836 M:1740374016   DEBUG: CVideoDatabase::GetStackedTvShowList query: select idShow from tvshow where c00 like (select c00 from tvshow where idShow=6) order by idShow
  629. 02:26:35 T:3836 M:1740374016   DEBUG: CVideoDatabase::GetSeasonsNav query: select episode.c12,path.strPath,tvshow.c00,tvshow.c08,tvshow.c14,tvshow.c13,count(1),count(files.playCount) from episode join tvshowlinkepisode on tvshowlinkepisode.idEpisode=episode.idEpisode join tvshow on tvshow.idShow=tvshowlinkepisode.idShow join files on files.idFile=episode.idFile  join tvshowlinkpath on tvshowlinkpath.idShow = tvshow.idShow join path on path.idPath = tvshowlinkpath.idPath where tvshow.idShow = 6  group by episode.c12
  630. 02:26:35 T:3836 M:1739952128   DEBUG: Win32DllLoader::Load(ADVAPI32.DLL)
  631. 02:26:35 T:3836 M:1740042240   DEBUG: Win32DllLoader::Load(KERNEL32.DLL)
  632. 02:26:35 T:3836 M:1740042240   DEBUG: Win32DllLoader::Load(NETAPI32.DLL)
  633. 02:26:35 T:3836 M:1739702272   DEBUG: FreeLibrary(NETAPI32.DLL) -> 084863B0
  634. 02:26:35 T:3836 M:1739702272   DEBUG: Win32DllLoader::Unload NETAPI32.DLL
  635. 02:26:35 T:3836 M:1739739136   DEBUG: FreeLibrary(ADVAPI32.DLL) -> 08482120
  636. 02:26:35 T:3836 M:1739739136   DEBUG: Win32DllLoader::Unload ADVAPI32.DLL
  637. 02:26:35 T:3836 M:1739739136   DEBUG: Win32DllLoader::Load(USER32.DLL)
  638. 02:26:35 T:3836 M:1739739136   DEBUG: FreeLibrary(USER32.DLL) -> 08482120
  639. 02:26:35 T:3836 M:1739739136   DEBUG: Win32DllLoader::Unload USER32.DLL
  640. 02:26:36 T:3836 M:1741299712   DEBUG: FreeLibrary(KERNEL32.DLL) -> 08482170
  641. 02:26:36 T:3836 M:1741373440   DEBUG: Win32DllLoader::Unload KERNEL32.DLL
  642. 02:26:38 T:3836 M:1734635520   DEBUG: Win32DllLoader::Load(secur32.dll)
  643. 02:26:38 T:3836 M:1734606848   DEBUG: scraper: NfoScrape returned
  644. 02:26:38 T:3836 M:1734606848   ERROR: ADDON::CScraper::Run: Unable to parse web site
  645. 02:26:38 T:3836 M:1734606848   DEBUG: FreeLibrary(secur32.dll) -> 08482170
  646. 02:26:38 T:3836 M:1734606848   DEBUG: Win32DllLoader::Unload secur32.dll
  647. 02:26:38 T:3836 M:1734569984   DEBUG: VideoInfoScanner: Found matching Full NFO file: smb://NICKDESKTOP-PC/TV Shows/Battlestar Galactica/tvshow.nfo
  648. 02:26:38 T:3836 M:1734434816   DEBUG: VideoInfoScanner: Adding new item to tvshows:smb://NICKDESKTOP-PC/TV Shows/Battlestar Galactica/
  649. 02:26:38 T:1220 M:1741398016   DEBUG: CWinEventsWin32::WndProcWindow is active
  650. 02:26:38 T:1220 M:1741398016   DEBUG: CWinEventsWin32::WndProcWindow gained focus
  651. 02:26:38 T:3836 M:1741369344    INFO: Caching image from: smb://NICKDESKTOP-PC/TV Shows/Battlestar Galactica/fanart.jpg to special://masterprofile/Thumbnails/Video/Fanart/e4a6a7b3.tbn
  652. 02:26:38 T:3836 M:1740443648    INFO: Caching image from: smb://NICKDESKTOP-PC/TV Shows/Battlestar Galactica/folder.jpg to special://masterprofile/Thumbnails/Video/e/e4a6a7b3.tbn with width 512 and height 512
  653. 02:26:39 T:3836 M:1741045760   DEBUG: CVideoDatabase::GetStackedTvShowList query: select idShow from tvshow where c00 like (select c00 from tvshow where idShow=7) order by idShow
  654. 02:26:39 T:3836 M:1741045760   DEBUG: CVideoDatabase::GetSeasonsNav query: select episode.c12,path.strPath,tvshow.c00,tvshow.c08,tvshow.c14,tvshow.c13,count(1),count(files.playCount) from episode join tvshowlinkepisode on tvshowlinkepisode.idEpisode=episode.idEpisode join tvshow on tvshow.idShow=tvshowlinkepisode.idShow join files on files.idFile=episode.idFile  join tvshowlinkpath on tvshowlinkpath.idShow = tvshow.idShow join path on path.idPath = tvshowlinkpath.idPath where tvshow.idShow = 7  group by episode.c12
  655. 02:26:39 T:3836 M:1740611584   DEBUG: Win32DllLoader::Load(ADVAPI32.DLL)
  656. 02:26:39 T:3836 M:1740689408   DEBUG: Win32DllLoader::Load(KERNEL32.DLL)
  657. 02:26:39 T:3836 M:1741099008   DEBUG: Win32DllLoader::Load(NETAPI32.DLL)
  658. 02:26:39 T:3836 M:1741099008   DEBUG: FreeLibrary(NETAPI32.DLL) -> 08483D40
  659. 02:26:39 T:3836 M:1741107200   DEBUG: Win32DllLoader::Unload NETAPI32.DLL
  660. 02:26:39 T:3836 M:1741144064   DEBUG: FreeLibrary(ADVAPI32.DLL) -> 08482210
  661. 02:26:39 T:3836 M:1741144064   DEBUG: Win32DllLoader::Unload ADVAPI32.DLL
  662. 02:26:39 T:3836 M:1741209600   DEBUG: Win32DllLoader::Load(USER32.DLL)
  663. 02:26:39 T:3836 M:1741209600   DEBUG: FreeLibrary(USER32.DLL) -> 08482210
  664. 02:26:39 T:3836 M:1741209600   DEBUG: Win32DllLoader::Unload USER32.DLL
  665. 02:26:40 T:3836 M:1739276288   DEBUG: FreeLibrary(KERNEL32.DLL) -> 084821C0
  666. 02:26:40 T:3836 M:1739276288   DEBUG: Win32DllLoader::Unload KERNEL32.DLL
  667. 02:26:41 T:3836 M:1739333632   DEBUG: Win32DllLoader::Load(secur32.dll)
  668. 02:26:41 T:3836 M:1739337728   DEBUG: scraper: NfoScrape returned
  669. 02:26:41 T:3836 M:1739337728   ERROR: ADDON::CScraper::Run: Unable to parse web site
  670. 02:26:41 T:3836 M:1739300864   DEBUG: FreeLibrary(secur32.dll) -> 084821C0
  671. 02:26:41 T:3836 M:1739300864   DEBUG: Win32DllLoader::Unload secur32.dll
  672. 02:26:41 T:1220 M:1739268096   DEBUG: SDLKeyboard: scancode: 56, sym: 308, unicode: 0, modifier: 0
  673. 02:26:41 T:1220 M:1739268096   DEBUG: CWinEventsWin32::WndProcWindow is active
  674. 02:26:41 T:3836 M:1739268096   DEBUG: VideoInfoScanner: Found matching Full NFO file: smb://NICKDESKTOP-PC/TV Shows/Better Off Ted/tvshow.nfo
  675. 02:26:41 T:1220 M:1739268096   DEBUG: CWinEventsWin32::WndProcWindow lost focus
  676. 02:26:41 T:3836 M:1738702848   DEBUG: VideoInfoScanner: Adding new item to tvshows:smb://NICKDESKTOP-PC/TV Shows/Better Off Ted/
  677. 02:26:41 T:3836 M:1738416128    INFO: Caching image from: smb://NICKDESKTOP-PC/TV Shows/Better Off Ted/fanart.jpg to special://masterprofile/Thumbnails/Video/Fanart/06e788fe.tbn
  678. 02:26:41 T:3836 M:1738506240    INFO: Caching image from: smb://NICKDESKTOP-PC/TV Shows/Better Off Ted/folder.jpg to special://masterprofile/Thumbnails/Video/0/06e788fe.tbn with width 512 and height 512
  679. 02:26:41 T:3836 M:1737244672   DEBUG: CVideoDatabase::GetStackedTvShowList query: select idShow from tvshow where c00 like (select c00 from tvshow where idShow=8) order by idShow
  680. 02:26:41 T:3836 M:1737244672   DEBUG: CVideoDatabase::GetSeasonsNav query: select episode.c12,path.strPath,tvshow.c00,tvshow.c08,tvshow.c14,tvshow.c13,count(1),count(files.playCount) from episode join tvshowlinkepisode on tvshowlinkepisode.idEpisode=episode.idEpisode join tvshow on tvshow.idShow=tvshowlinkepisode.idShow join files on files.idFile=episode.idFile  join tvshowlinkpath on tvshowlinkpath.idShow = tvshow.idShow join path on path.idPath = tvshowlinkpath.idPath where tvshow.idShow = 8  group by episode.c12
  681. 02:26:41 T:3836 M:1737248768   DEBUG: Win32DllLoader::Load(ADVAPI32.DLL)
  682. 02:26:41 T:3836 M:1737248768   DEBUG: Win32DllLoader::Load(KERNEL32.DLL)
  683. 02:26:41 T:3836 M:1737248768   DEBUG: Win32DllLoader::Load(NETAPI32.DLL)
  684. 02:26:41 T:3836 M:1737211904   DEBUG: FreeLibrary(NETAPI32.DLL) -> 08486270
  685. 02:26:41 T:3836 M:1737211904   DEBUG: Win32DllLoader::Unload NETAPI32.DLL
  686. 02:26:41 T:3836 M:1737248768   DEBUG: FreeLibrary(ADVAPI32.DLL) -> 08483F70
  687. 02:26:41 T:3836 M:1737248768   DEBUG: Win32DllLoader::Unload ADVAPI32.DLL
  688. 02:26:41 T:3836 M:1737248768   DEBUG: Win32DllLoader::Load(USER32.DLL)
  689. 02:26:41 T:3836 M:1737248768   DEBUG: FreeLibrary(USER32.DLL) -> 08483F70
  690. 02:26:41 T:3836 M:1737248768   DEBUG: Win32DllLoader::Unload USER32.DLL
  691. 02:26:43 T:3836 M:1737101312   DEBUG: FreeLibrary(KERNEL32.DLL) -> 084862C0
  692. 02:26:43 T:3836 M:1737101312   DEBUG: Win32DllLoader::Unload KERNEL32.DLL
  693. 02:26:45 T:3836 M:1738629120   DEBUG: Win32DllLoader::Load(secur32.dll)
  694. 02:26:45 T:3836 M:1739231232   DEBUG: scraper: NfoScrape returned
  695. 02:26:45 T:3836 M:1739231232   ERROR: ADDON::CScraper::Run: Unable to parse web site
  696. 02:26:45 T:3836 M:1739436032   DEBUG: FreeLibrary(secur32.dll) -> 084862C0
  697. 02:26:45 T:3836 M:1739436032   DEBUG: Win32DllLoader::Unload secur32.dll
  698. 02:26:45 T:3836 M:1739456512   DEBUG: VideoInfoScanner: Found matching Full NFO file: smb://NICKDESKTOP-PC/TV Shows/Castle/tvshow.nfo
  699. 02:26:45 T:3836 M:1737936896   DEBUG: VideoInfoScanner: Adding new item to tvshows:smb://NICKDESKTOP-PC/TV Shows/Castle/
  700. 02:26:45 T:3836 M:1737981952    INFO: Caching image from: smb://NICKDESKTOP-PC/TV Shows/Castle/fanart.jpg to special://masterprofile/Thumbnails/Video/Fanart/56eeff49.tbn
  701. 02:26:45 T:3836 M:1738190848    INFO: Caching image from: smb://NICKDESKTOP-PC/TV Shows/Castle/folder.jpg to special://masterprofile/Thumbnails/Video/5/56eeff49.tbn with width 512 and height 512
  702. 02:26:45 T:3836 M:1737371648   DEBUG: CVideoDatabase::GetStackedTvShowList query: select idShow from tvshow where c00 like (select c00 from tvshow where idShow=9) order by idShow
  703. 02:26:45 T:3836 M:1737371648   DEBUG: CVideoDatabase::GetSeasonsNav query: select episode.c12,path.strPath,tvshow.c00,tvshow.c08,tvshow.c14,tvshow.c13,count(1),count(files.playCount) from episode join tvshowlinkepisode on tvshowlinkepisode.idEpisode=episode.idEpisode join tvshow on tvshow.idShow=tvshowlinkepisode.idShow join files on files.idFile=episode.idFile  join tvshowlinkpath on tvshowlinkpath.idShow = tvshow.idShow join path on path.idPath = tvshowlinkpath.idPath where tvshow.idShow = 9  group by episode.c12
  704. 02:26:45 T:3836 M:1737461760   DEBUG: Win32DllLoader::Load(ADVAPI32.DLL)
  705. 02:26:45 T:3836 M:1737461760   DEBUG: Win32DllLoader::Load(KERNEL32.DLL)
  706. 02:26:45 T:3836 M:1737461760   DEBUG: Win32DllLoader::Load(NETAPI32.DLL)
  707. 02:26:45 T:3836 M:1737424896   DEBUG: FreeLibrary(NETAPI32.DLL) -> 08360AD0
  708. 02:26:45 T:3836 M:1737424896   DEBUG: Win32DllLoader::Unload NETAPI32.DLL
  709. 02:26:45 T:3836 M:1737461760   DEBUG: FreeLibrary(ADVAPI32.DLL) -> 08360B20
  710. 02:26:45 T:3836 M:1737461760   DEBUG: Win32DllLoader::Unload ADVAPI32.DLL
  711. 02:26:45 T:3836 M:1737461760   DEBUG: Win32DllLoader::Load(USER32.DLL)
  712. 02:26:45 T:3836 M:1737461760   DEBUG: FreeLibrary(USER32.DLL) -> 08360B20
  713. 02:26:45 T:3836 M:1737461760   DEBUG: Win32DllLoader::Unload USER32.DLL
  714. 02:26:46 T:3836 M:1737502720   DEBUG: FreeLibrary(KERNEL32.DLL) -> 08360B70
  715. 02:26:46 T:3836 M:1737515008   DEBUG: Win32DllLoader::Unload KERNEL32.DLL
  716. 02:26:48 T:3836 M:1736871936   DEBUG: Win32DllLoader::Load(secur32.dll)
  717. 02:26:48 T:3836 M:1736859648   DEBUG: scraper: NfoScrape returned
  718. 02:26:48 T:3836 M:1736859648   ERROR: ADDON::CScraper::Run: Unable to parse web site
  719. 02:26:48 T:3836 M:1736998912   DEBUG: FreeLibrary(secur32.dll) -> 08360B70
  720. 02:26:48 T:3836 M:1736998912   DEBUG: Win32DllLoader::Unload secur32.dll
  721. 02:26:48 T:3836 M:1737015296   DEBUG: VideoInfoScanner: Found matching Full NFO file: smb://NICKDESKTOP-PC/TV Shows/Chuck/tvshow.nfo
  722. 02:26:48 T:3836 M:1736912896   DEBUG: VideoInfoScanner: Adding new item to tvshows:smb://NICKDESKTOP-PC/TV Shows/Chuck/
  723. 02:26:48 T:3836 M:1736921088    INFO: Caching image from: smb://NICKDESKTOP-PC/TV Shows/Chuck/fanart.jpg to special://masterprofile/Thumbnails/Video/Fanart/e0c6ccdd.tbn
  724. 02:26:48 T:3836 M:1737375744    INFO: Caching image from: smb://NICKDESKTOP-PC/TV Shows/Chuck/folder.jpg to special://masterprofile/Thumbnails/Video/e/e0c6ccdd.tbn with width 512 and height 512
  725. 02:26:48 T:3836 M:1735860224   DEBUG: CVideoDatabase::GetStackedTvShowList query: select idShow from tvshow where c00 like (select c00 from tvshow where idShow=10) order by idShow
  726. 02:26:48 T:3836 M:1735860224   DEBUG: CVideoDatabase::GetSeasonsNav query: select episode.c12,path.strPath,tvshow.c00,tvshow.c08,tvshow.c14,tvshow.c13,count(1),count(files.playCount) from episode join tvshowlinkepisode on tvshowlinkepisode.idEpisode=episode.idEpisode join tvshow on tvshow.idShow=tvshowlinkepisode.idShow join files on files.idFile=episode.idFile  join tvshowlinkpath on tvshowlinkpath.idShow = tvshow.idShow join path on path.idPath = tvshowlinkpath.idPath where tvshow.idShow = 10  group by episode.c12
  727. 02:26:48 T:3836 M:1735860224   DEBUG: Win32DllLoader::Load(ADVAPI32.DLL)
  728. 02:26:48 T:3836 M:1735860224   DEBUG: Win32DllLoader::Load(KERNEL32.DLL)
  729. 02:26:48 T:3836 M:1735860224   DEBUG: Win32DllLoader::Load(NETAPI32.DLL)
  730. 02:26:48 T:3836 M:1735823360   DEBUG: FreeLibrary(NETAPI32.DLL) -> 08360F80
  731. 02:26:48 T:3836 M:1735823360   DEBUG: Win32DllLoader::Unload NETAPI32.DLL
  732. 02:26:48 T:3836 M:1735860224   DEBUG: FreeLibrary(ADVAPI32.DLL) -> 0835A9A0
  733. 02:26:48 T:3836 M:1735860224   DEBUG: Win32DllLoader::Unload ADVAPI32.DLL
  734. 02:26:48 T:3836 M:1735860224   DEBUG: Win32DllLoader::Load(USER32.DLL)
  735. 02:26:48 T:3836 M:1735860224   DEBUG: FreeLibrary(USER32.DLL) -> 0835A9A0
  736. 02:26:48 T:3836 M:1735860224   DEBUG: Win32DllLoader::Unload USER32.DLL
  737. 02:26:49 T:3836 M:1737011200   DEBUG: FreeLibrary(KERNEL32.DLL) -> 0835F4F0
  738. 02:26:49 T:3836 M:1737011200   DEBUG: Win32DllLoader::Unload KERNEL32.DLL
  739. 02:26:51 T:3836 M:1736781824   DEBUG: Win32DllLoader::Load(secur32.dll)
  740. 02:26:51 T:3836 M:1736867840   DEBUG: scraper: NfoScrape returned
  741. 02:26:51 T:3836 M:1736867840   ERROR: ADDON::CScraper::Run: Unable to parse web site
  742. 02:26:51 T:3836 M:1736867840   DEBUG: FreeLibrary(secur32.dll) -> 0835F4F0
  743. 02:26:51 T:3836 M:1736867840   DEBUG: Win32DllLoader::Unload secur32.dll
  744. 02:26:51 T:3836 M:1736880128   DEBUG: VideoInfoScanner: Found matching Full NFO file: smb://NICKDESKTOP-PC/TV Shows/Community/tvshow.nfo
  745. 02:26:51 T:3836 M:1735753728   DEBUG: VideoInfoScanner: Adding new item to tvshows:smb://NICKDESKTOP-PC/TV Shows/Community/
  746. 02:26:51 T:3836 M:1735802880    INFO: Caching image from: smb://NICKDESKTOP-PC/TV Shows/Community/fanart.jpg to special://masterprofile/Thumbnails/Video/Fanart/ef88c4ab.tbn
  747. 02:26:51 T:3836 M:1735954432    INFO: Caching image from: smb://NICKDESKTOP-PC/TV Shows/Community/folder.jpg to special://masterprofile/Thumbnails/Video/e/ef88c4ab.tbn with width 512 and height 512
  748. 02:26:51 T:3836 M:1734778880   DEBUG: CVideoDatabase::GetStackedTvShowList query: select idShow from tvshow where c00 like (select c00 from tvshow where idShow=11) order by idShow
  749. 02:26:51 T:3836 M:1734778880   DEBUG: CVideoDatabase::GetSeasonsNav query: select episode.c12,path.strPath,tvshow.c00,tvshow.c08,tvshow.c14,tvshow.c13,count(1),count(files.playCount) from episode join tvshowlinkepisode on tvshowlinkepisode.idEpisode=episode.idEpisode join tvshow on tvshow.idShow=tvshowlinkepisode.idShow join files on files.idFile=episode.idFile  join tvshowlinkpath on tvshowlinkpath.idShow = tvshow.idShow join path on path.idPath = tvshowlinkpath.idPath where tvshow.idShow = 11  group by episode.c12
  750. 02:26:52 T:3836 M:1734787072   DEBUG: Win32DllLoader::Load(ADVAPI32.DLL)
  751. 02:26:52 T:3836 M:1734787072   DEBUG: Win32DllLoader::Load(KERNEL32.DLL)
  752. 02:26:52 T:3836 M:1734787072   DEBUG: Win32DllLoader::Load(NETAPI32.DLL)
  753. 02:26:52 T:3836 M:1734750208   DEBUG: FreeLibrary(NETAPI32.DLL) -> 083608A0
  754. 02:26:52 T:3836 M:1734750208   DEBUG: Win32DllLoader::Unload NETAPI32.DLL
  755. 02:26:52 T:3836 M:1734787072   DEBUG: FreeLibrary(ADVAPI32.DLL) -> 0835E730
  756. 02:26:52 T:3836 M:1734787072   DEBUG: Win32DllLoader::Unload ADVAPI32.DLL
  757. 02:26:52 T:3836 M:1734787072   DEBUG: Win32DllLoader::Load(USER32.DLL)
  758. 02:26:52 T:3836 M:1734787072   DEBUG: FreeLibrary(USER32.DLL) -> 0835E730
  759. 02:26:52 T:3836 M:1734787072   DEBUG: Win32DllLoader::Unload USER32.DLL
  760. 02:26:53 T:3836 M:1735249920   DEBUG: FreeLibrary(KERNEL32.DLL) -> 0835C4D0
  761. 02:26:53 T:3836 M:1735405568   DEBUG: Win32DllLoader::Unload KERNEL32.DLL
  762. 02:26:54 T:3836 M:1735745536   DEBUG: Win32DllLoader::Load(secur32.dll)
  763. 02:26:54 T:3836 M:1735733248   DEBUG: scraper: NfoScrape returned
  764. 02:26:54 T:3836 M:1735733248   ERROR: ADDON::CScraper::Run: Unable to parse web site
  765. 02:26:54 T:3836 M:1735860224   DEBUG: FreeLibrary(secur32.dll) -> 0835C4D0
  766. 02:26:54 T:3836 M:1735860224   DEBUG: Win32DllLoader::Unload secur32.dll
  767. 02:26:54 T:3836 M:1735880704   DEBUG: VideoInfoScanner: Found matching Full NFO file: smb://NICKDESKTOP-PC/TV Shows/Crusade/tvshow.nfo
  768. 02:26:54 T:3836 M:1735999488   DEBUG: VideoInfoScanner: Adding new item to tvshows:smb://NICKDESKTOP-PC/TV Shows/Crusade/
  769. 02:26:54 T:3836 M:1735892992    INFO: Caching image from: smb://NICKDESKTOP-PC/TV Shows/Crusade/fanart.jpg to special://masterprofile/Thumbnails/Video/Fanart/894cbc3d.tbn
  770. 02:26:54 T:3836 M:1736105984    INFO: Caching image from: smb://NICKDESKTOP-PC/TV Shows/Crusade/folder.jpg to special://masterprofile/Thumbnails/Video/8/894cbc3d.tbn with width 512 and height 512
  771. 02:26:54 T:3836 M:1735610368   DEBUG: CVideoDatabase::GetStackedTvShowList query: select idShow from tvshow where c00 like (select c00 from tvshow where idShow=12) order by idShow
  772. 02:26:54 T:3836 M:1735610368   DEBUG: CVideoDatabase::GetSeasonsNav query: select episode.c12,path.strPath,tvshow.c00,tvshow.c08,tvshow.c14,tvshow.c13,count(1),count(files.playCount) from episode join tvshowlinkepisode on tvshowlinkepisode.idEpisode=episode.idEpisode join tvshow on tvshow.idShow=tvshowlinkepisode.idShow join files on files.idFile=episode.idFile  join tvshowlinkpath on tvshowlinkpath.idShow = tvshow.idShow join path on path.idPath = tvshowlinkpath.idPath where tvshow.idShow = 12  group by episode.c12
  773. 02:26:54 T:3836 M:1735618560   DEBUG: Win32DllLoader::Load(ADVAPI32.DLL)
  774. 02:26:54 T:3836 M:1735618560   DEBUG: Win32DllLoader::Load(KERNEL32.DLL)
  775. 02:26:54 T:3836 M:1735618560   DEBUG: Win32DllLoader::Load(NETAPI32.DLL)
  776. 02:26:54 T:3836 M:1735581696   DEBUG: FreeLibrary(NETAPI32.DLL) -> 08360D00
  777. 02:26:54 T:3836 M:1735581696   DEBUG: Win32DllLoader::Unload NETAPI32.DLL
  778. 02:26:54 T:3836 M:1735618560   DEBUG: FreeLibrary(ADVAPI32.DLL) -> 0835DA10
  779. 02:26:54 T:3836 M:1735618560   DEBUG: Win32DllLoader::Unload ADVAPI32.DLL
  780. 02:26:54 T:3836 M:1735618560   DEBUG: Win32DllLoader::Load(USER32.DLL)
  781. 02:26:54 T:3836 M:1735618560   DEBUG: FreeLibrary(USER32.DLL) -> 0835DA10
  782. 02:26:54 T:3836 M:1735618560   DEBUG: Win32DllLoader::Unload USER32.DLL
  783. 02:26:56 T:3836 M:1736679424   DEBUG: FreeLibrary(KERNEL32.DLL) -> 0835F9A0
  784. 02:26:56 T:3836 M:1736724480   DEBUG: Win32DllLoader::Unload KERNEL32.DLL
  785. 02:26:58 T:3836 M:1738792960   DEBUG: Win32DllLoader::Load(secur32.dll)
  786. 02:26:58 T:3836 M:1739284480   DEBUG: scraper: NfoScrape returned
  787. 02:26:58 T:3836 M:1739284480   ERROR: ADDON::CScraper::Run: Unable to parse web site
  788. 02:26:58 T:3836 M:1739284480   DEBUG: FreeLibrary(secur32.dll) -> 0835F9A0
  789. 02:26:58 T:3836 M:1739284480   DEBUG: Win32DllLoader::Unload secur32.dll
  790. 02:26:58 T:3836 M:1739304960   DEBUG: VideoInfoScanner: Found matching Full NFO file: smb://NICKDESKTOP-PC/TV Shows/Dexter/tvshow.nfo
  791. 02:26:58 T:3836 M:1738055680   DEBUG: VideoInfoScanner: Adding new item to tvshows:smb://NICKDESKTOP-PC/TV Shows/Dexter/
  792. 02:26:58 T:3836 M:1737875456    INFO: Caching image from: smb://NICKDESKTOP-PC/TV Shows/Dexter/fanart.jpg to special://masterprofile/Thumbnails/Video/Fanart/60564d2e.tbn
  793. 02:26:58 T:3836 M:1738252288    INFO: Caching image from: smb://NICKDESKTOP-PC/TV Shows/Dexter/folder.jpg to special://masterprofile/Thumbnails/Video/6/60564d2e.tbn with width 512 and height 512
  794. 02:26:58 T:3836 M:1738010624   DEBUG: CVideoDatabase::GetStackedTvShowList query: select idShow from tvshow where c00 like (select c00 from tvshow where idShow=13) order by idShow
  795. 02:26:58 T:3836 M:1738010624   DEBUG: CVideoDatabase::GetSeasonsNav query: select episode.c12,path.strPath,tvshow.c00,tvshow.c08,tvshow.c14,tvshow.c13,count(1),count(files.playCount) from episode join tvshowlinkepisode on tvshowlinkepisode.idEpisode=episode.idEpisode join tvshow on tvshow.idShow=tvshowlinkepisode.idShow join files on files.idFile=episode.idFile  join tvshowlinkpath on tvshowlinkpath.idShow = tvshow.idShow join path on path.idPath = tvshowlinkpath.idPath where tvshow.idShow = 13  group by episode.c12
  796. 02:26:58 T:3836 M:1736241152   DEBUG: Win32DllLoader::Load(ADVAPI32.DLL)
  797. 02:26:58 T:3836 M:1736241152   DEBUG: Win32DllLoader::Load(KERNEL32.DLL)
  798. 02:26:58 T:3836 M:1736331264   DEBUG: Win32DllLoader::Load(NETAPI32.DLL)
  799. 02:26:58 T:3836 M:1736339456   DEBUG: FreeLibrary(NETAPI32.DLL) -> 0835AF40
  800. 02:26:58 T:3836 M:1736339456   DEBUG: Win32DllLoader::Unload NETAPI32.DLL
  801. 02:26:58 T:3836 M:1736384512   DEBUG: FreeLibrary(ADVAPI32.DLL) -> 0835FEF0
  802. 02:26:58 T:3836 M:1736388608   DEBUG: Win32DllLoader::Unload ADVAPI32.DLL
  803. 02:26:58 T:3836 M:1736224768   DEBUG: Win32DllLoader::Load(USER32.DLL)
  804. 02:26:58 T:3836 M:1736224768   DEBUG: FreeLibrary(USER32.DLL) -> 0835FEF0
  805. 02:26:58 T:3836 M:1736224768   DEBUG: Win32DllLoader::Unload USER32.DLL
  806. 02:26:59 T:3836 M:1734332416   DEBUG: FreeLibrary(KERNEL32.DLL) -> 0835EF00
  807. 02:26:59 T:3836 M:1734455296   DEBUG: Win32DllLoader::Unload KERNEL32.DLL
  808. 02:27:01 T:3836 M:1733791744   DEBUG: Win32DllLoader::Load(secur32.dll)
  809. 02:27:01 T:3836 M:1733779456   DEBUG: scraper: NfoScrape returned
  810. 02:27:01 T:3836 M:1733779456   ERROR: ADDON::CScraper::Run: Unable to parse web site
  811. 02:27:01 T:3836 M:1733779456   DEBUG: FreeLibrary(secur32.dll) -> 0835EF00
  812. 02:27:01 T:3836 M:1733779456   DEBUG: Win32DllLoader::Unload secur32.dll
  813. 02:27:01 T:3836 M:1733791744   DEBUG: VideoInfoScanner: Found matching Full NFO file: smb://NICKDESKTOP-PC/TV Shows/Doctor Who/tvshow.nfo
  814. 02:27:01 T:3836 M:1733947392   DEBUG: VideoInfoScanner: Adding new item to tvshows:smb://NICKDESKTOP-PC/TV Shows/Doctor Who/
  815. 02:27:01 T:3836 M:1733795840    INFO: Caching image from: smb://NICKDESKTOP-PC/TV Shows/Doctor Who/fanart.jpg to special://masterprofile/Thumbnails/Video/Fanart/82b4e552.tbn
  816. 02:27:01 T:3836 M:1733599232    INFO: Caching image from: smb://NICKDESKTOP-PC/TV Shows/Doctor Who/folder.jpg to special://masterprofile/Thumbnails/Video/8/82b4e552.tbn with width 512 and height 512
  817. 02:27:01 T:3836 M:1732444160   DEBUG: CVideoDatabase::GetStackedTvShowList query: select idShow from tvshow where c00 like (select c00 from tvshow where idShow=14) order by idShow
  818. 02:27:01 T:3836 M:1732444160   DEBUG: CVideoDatabase::GetSeasonsNav query: select episode.c12,path.strPath,tvshow.c00,tvshow.c08,tvshow.c14,tvshow.c13,count(1),count(files.playCount) from episode join tvshowlinkepisode on tvshowlinkepisode.idEpisode=episode.idEpisode join tvshow on tvshow.idShow=tvshowlinkepisode.idShow join files on files.idFile=episode.idFile  join tvshowlinkpath on tvshowlinkpath.idShow = tvshow.idShow join path on path.idPath = tvshowlinkpath.idPath where tvshow.idShow = 14  group by episode.c12
  819. 02:27:02 T:3836 M:1732456448   DEBUG: Win32DllLoader::Load(ADVAPI32.DLL)
  820. 02:27:02 T:3836 M:1732456448   DEBUG: Win32DllLoader::Load(KERNEL32.DLL)
  821. 02:27:02 T:3836 M:1732456448   DEBUG: Win32DllLoader::Load(NETAPI32.DLL)
  822. 02:27:02 T:3836 M:1732419584   DEBUG: FreeLibrary(NETAPI32.DLL) -> 0835E730
  823. 02:27:02 T:3836 M:1732419584   DEBUG: Win32DllLoader::Unload NETAPI32.DLL
  824. 02:27:02 T:3836 M:1732456448   DEBUG: FreeLibrary(ADVAPI32.DLL) -> 0835AF40
  825. 02:27:02 T:3836 M:1732456448   DEBUG: Win32DllLoader::Unload ADVAPI32.DLL
  826. 02:27:02 T:3836 M:1732460544   DEBUG: Win32DllLoader::Load(USER32.DLL)
  827. 02:27:02 T:3836 M:1732460544   DEBUG: FreeLibrary(USER32.DLL) -> 0835AF40
  828. 02:27:02 T:3836 M:1732460544   DEBUG: Win32DllLoader::Unload USER32.DLL
  829. 02:27:04 T:3836 M:1732952064   DEBUG: FreeLibrary(KERNEL32.DLL) -> 0835C4D0
  830. 02:27:04 T:3836 M:1732952064   DEBUG: Win32DllLoader::Unload KERNEL32.DLL
  831. 02:27:05 T:3836 M:1734316032   DEBUG: Win32DllLoader::Load(secur32.dll)
  832. 02:27:05 T:3836 M:1734303744   DEBUG: scraper: NfoScrape returned
  833. 02:27:05 T:3836 M:1734303744   ERROR: ADDON::CScraper::Run: Unable to parse web site
  834. 02:27:05 T:3836 M:1734303744   DEBUG: FreeLibrary(secur32.dll) -> 0835C4D0
  835. 02:27:05 T:3836 M:1734303744   DEBUG: Win32DllLoader::Unload secur32.dll
  836. 02:27:05 T:3836 M:1734316032   DEBUG: VideoInfoScanner: Found matching Full NFO file: smb://NICKDESKTOP-PC/TV Shows/Eureka/tvshow.nfo
  837. 02:27:05 T:3836 M:1734402048   DEBUG: VideoInfoScanner: Adding new item to tvshows:smb://NICKDESKTOP-PC/TV Shows/Eureka/
  838. 02:27:05 T:3836 M:1732374528    INFO: Caching image from: smb://NICKDESKTOP-PC/TV Shows/Eureka/fanart.jpg to special://masterprofile/Thumbnails/Video/Fanart/0966dbea.tbn
  839. 02:27:05 T:3836 M:1732509696    INFO: Caching image from: smb://NICKDESKTOP-PC/TV Shows/Eureka/folder.jpg to special://masterprofile/Thumbnails/Video/0/0966dbea.tbn with width 512 and height 512
  840. 02:27:05 T:3836 M:1730936832   DEBUG: CVideoDatabase::GetStackedTvShowList query: select idShow from tvshow where c00 like (select c00 from tvshow where idShow=15) order by idShow
  841. 02:27:05 T:3836 M:1730932736   DEBUG: CVideoDatabase::GetSeasonsNav query: select episode.c12,path.strPath,tvshow.c00,tvshow.c08,tvshow.c14,tvshow.c13,count(1),count(files.playCount) from episode join tvshowlinkepisode on tvshowlinkepisode.idEpisode=episode.idEpisode join tvshow on tvshow.idShow=tvshowlinkepisode.idShow join files on files.idFile=episode.idFile  join tvshowlinkpath on tvshowlinkpath.idShow = tvshow.idShow join path on path.idPath = tvshowlinkpath.idPath where tvshow.idShow = 15  group by episode.c12
  842. 02:27:05 T:3836 M:1730678784   DEBUG: Win32DllLoader::Load(ADVAPI32.DLL)
  843. 02:27:05 T:3836 M:1730678784   DEBUG: Win32DllLoader::Load(KERNEL32.DLL)
  844. 02:27:05 T:3836 M:1730678784   DEBUG: Win32DllLoader::Load(NETAPI32.DLL)
  845. 02:27:05 T:3836 M:1730641920   DEBUG: FreeLibrary(NETAPI32.DLL) -> 083608A0
  846. 02:27:05 T:3836 M:1730641920   DEBUG: Win32DllLoader::Unload NETAPI32.DLL
  847. 02:27:05 T:3836 M:1730678784   DEBUG: FreeLibrary(ADVAPI32.DLL) -> 0835AF40
  848. 02:27:05 T:3836 M:1730678784   DEBUG: Win32DllLoader::Unload ADVAPI32.DLL
  849. 02:27:05 T:3836 M:1730678784   DEBUG: Win32DllLoader::Load(USER32.DLL)
  850. 02:27:05 T:3836 M:1730678784   DEBUG: FreeLibrary(USER32.DLL) -> 0835AF40
  851. 02:27:05 T:3836 M:1730678784   DEBUG: Win32DllLoader::Unload USER32.DLL
  852. 02:27:07 T:3836 M:1731399680   DEBUG: FreeLibrary(KERNEL32.DLL) -> 0835E730
  853. 02:27:07 T:3836 M:1731375104   DEBUG: Win32DllLoader::Unload KERNEL32.DLL
  854. 02:27:09 T:3836 M:1731428352   DEBUG: Win32DllLoader::Load(secur32.dll)
  855. 02:27:09 T:3836 M:1731416064   DEBUG: scraper: NfoScrape returned
  856. 02:27:09 T:3836 M:1731416064   ERROR: ADDON::CScraper::Run: Unable to parse web site
  857. 02:27:09 T:3836 M:1731416064   DEBUG: FreeLibrary(secur32.dll) -> 0835E730
  858. 02:27:09 T:3836 M:1731416064   DEBUG: Win32DllLoader::Unload secur32.dll
  859. 02:27:09 T:3836 M:1731428352   DEBUG: VideoInfoScanner: Found matching Full NFO file: smb://NICKDESKTOP-PC/TV Shows/Family Guy/tvshow.nfo
  860. 02:27:09 T:3836 M:1731698688   DEBUG: VideoInfoScanner: Adding new item to tvshows:smb://NICKDESKTOP-PC/TV Shows/Family Guy/
  861. 02:27:09 T:3836 M:1731776512    INFO: Caching image from: smb://NICKDESKTOP-PC/TV Shows/Family Guy/fanart.jpg to special://masterprofile/Thumbnails/Video/Fanart/bd5a1747.tbn
  862. 02:27:09 T:3836 M:1732104192    INFO: Caching image from: smb://NICKDESKTOP-PC/TV Shows/Family Guy/folder.jpg to special://masterprofile/Thumbnails/Video/b/bd5a1747.tbn with width 512 and height 512
  863. 02:27:09 T:3836 M:1731325952   DEBUG: CVideoDatabase::GetStackedTvShowList query: select idShow from tvshow where c00 like (select c00 from tvshow where idShow=16) order by idShow
  864. 02:27:09 T:3836 M:1731325952   DEBUG: CVideoDatabase::GetSeasonsNav query: select episode.c12,path.strPath,tvshow.c00,tvshow.c08,tvshow.c14,tvshow.c13,count(1),count(files.playCount) from episode join tvshowlinkepisode on tvshowlinkepisode.idEpisode=episode.idEpisode join tvshow on tvshow.idShow=tvshowlinkepisode.idShow join files on files.idFile=episode.idFile  join tvshowlinkpath on tvshowlinkpath.idShow = tvshow.idShow join path on path.idPath = tvshowlinkpath.idPath where tvshow.idShow = 16  group by episode.c12
  865. 02:27:09 T:3836 M:1730867200   DEBUG: Win32DllLoader::Load(ADVAPI32.DLL)
  866. 02:27:09 T:3836 M:1730867200   DEBUG: Win32DllLoader::Load(KERNEL32.DLL)
  867. 02:27:09 T:3836 M:1730867200   DEBUG: Win32DllLoader::Load(NETAPI32.DLL)
  868. 02:27:09 T:3836 M:1730830336   DEBUG: FreeLibrary(NETAPI32.DLL) -> 0835C200
  869. 02:27:09 T:3836 M:1730830336   DEBUG: Win32DllLoader::Unload NETAPI32.DLL
  870. 02:27:09 T:3836 M:1730867200   DEBUG: FreeLibrary(ADVAPI32.DLL) -> 0835BF80
  871. 02:27:09 T:3836 M:1730867200   DEBUG: Win32DllLoader::Unload ADVAPI32.DLL
  872. 02:27:09 T:3836 M:1730867200   DEBUG: Win32DllLoader::Load(USER32.DLL)
  873. 02:27:09 T:3836 M:1730867200   DEBUG: FreeLibrary(USER32.DLL) -> 0835BF80
  874. 02:27:09 T:3836 M:1730867200   DEBUG: Win32DllLoader::Unload USER32.DLL
  875. 02:27:11 T:3836 M:1732661248   DEBUG: FreeLibrary(KERNEL32.DLL) -> 08360260
  876. 02:27:11 T:3836 M:1732661248   DEBUG: Win32DllLoader::Unload KERNEL32.DLL
  877. 02:27:13 T:3836 M:1733316608   DEBUG: Win32DllLoader::Load(secur32.dll)
  878. 02:27:13 T:3836 M:1733304320   DEBUG: scraper: NfoScrape returned
  879. 02:27:13 T:3836 M:1733304320   ERROR: ADDON::CScraper::Run: Unable to parse web site
  880. 02:27:13 T:3836 M:1733304320   DEBUG: FreeLibrary(secur32.dll) -> 08360260
  881. 02:27:13 T:3836 M:1733304320   DEBUG: Win32DllLoader::Unload secur32.dll
  882. 02:27:13 T:3836 M:1733316608   DEBUG: VideoInfoScanner: Found matching Full NFO file: smb://NICKDESKTOP-PC/TV Shows/Farscape/tvshow.nfo
  883. 02:27:13 T:3836 M:1733337088   DEBUG: VideoInfoScanner: Adding new item to tvshows:smb://NICKDESKTOP-PC/TV Shows/Farscape/
  884. 02:27:13 T:3836 M:1733296128    INFO: Caching image from: smb://NICKDESKTOP-PC/TV Shows/Farscape/fanart.jpg to special://masterprofile/Thumbnails/Video/Fanart/7b45ba9c.tbn
  885. 02:27:13 T:3836 M:1733746688    INFO: Caching image from: smb://NICKDESKTOP-PC/TV Shows/Farscape/folder.jpg to special://masterprofile/Thumbnails/Video/7/7b45ba9c.tbn with width 512 and height 512
  886. 02:27:13 T:3836 M:1733005312   DEBUG: CVideoDatabase::GetStackedTvShowList query: select idShow from tvshow where c00 like (select c00 from tvshow where idShow=17) order by idShow
  887. 02:27:13 T:3836 M:1733005312   DEBUG: CVideoDatabase::GetSeasonsNav query: select episode.c12,path.strPath,tvshow.c00,tvshow.c08,tvshow.c14,tvshow.c13,count(1),count(files.playCount) from episode join tvshowlinkepisode on tvshowlinkepisode.idEpisode=episode.idEpisode join tvshow on tvshow.idShow=tvshowlinkepisode.idShow join files on files.idFile=episode.idFile  join tvshowlinkpath on tvshowlinkpath.idShow = tvshow.idShow join path on path.idPath = tvshowlinkpath.idPath where tvshow.idShow = 17  group by episode.c12
  888. 02:27:13 T:3836 M:1732534272   DEBUG: Win32DllLoader::Load(ADVAPI32.DLL)
  889. 02:27:13 T:3836 M:1732534272   DEBUG: Win32DllLoader::Load(KERNEL32.DLL)
  890. 02:27:13 T:3836 M:1732534272   DEBUG: Win32DllLoader::Load(NETAPI32.DLL)
  891. 02:27:13 T:3836 M:1732497408   DEBUG: FreeLibrary(NETAPI32.DLL) -> 08360AD0
  892. 02:27:13 T:3836 M:1732497408   DEBUG: Win32DllLoader::Unload NETAPI32.DLL
  893. 02:27:13 T:3836 M:1732534272   DEBUG: FreeLibrary(ADVAPI32.DLL) -> 08360B70
  894. 02:27:13 T:3836 M:1732534272   DEBUG: Win32DllLoader::Unload ADVAPI32.DLL
  895. 02:27:13 T:3836 M:1732534272   DEBUG: Win32DllLoader::Load(USER32.DLL)
  896. 02:27:13 T:3836 M:1732534272   DEBUG: FreeLibrary(USER32.DLL) -> 08360B70
  897. 02:27:13 T:3836 M:1732534272   DEBUG: Win32DllLoader::Unload USER32.DLL
  898. 02:27:15 T:3836 M:1730842624   DEBUG: FreeLibrary(KERNEL32.DLL) -> 08360B20
  899. 02:27:15 T:3836 M:1730793472   DEBUG: Win32DllLoader::Unload KERNEL32.DLL
  900. 02:27:17 T:3836 M:1733345280   DEBUG: Win32DllLoader::Load(secur32.dll)
  901. 02:27:17 T:3836 M:1733332992   DEBUG: scraper: NfoScrape returned
  902. 02:27:17 T:3836 M:1733332992   ERROR: ADDON::CScraper::Run: Unable to parse web site
  903. 02:27:17 T:3836 M:1733332992   DEBUG: FreeLibrary(secur32.dll) -> 08360B20
  904. 02:27:17 T:3836 M:1733332992   DEBUG: Win32DllLoader::Unload secur32.dll
  905. 02:27:17 T:1220 M:1733345280   DEBUG: CWinEventsWin32::WndProcWindow is active
  906. 02:27:17 T:1220 M:1733345280   DEBUG: CWinEventsWin32::WndProcWindow gained focus
  907. 02:27:17 T:3836 M:1733345280   DEBUG: VideoInfoScanner: Found matching Full NFO file: smb://NICKDESKTOP-PC/TV Shows/Firefly/tvshow.nfo
  908. 02:27:17 T:3836 M:1733341184   DEBUG: VideoInfoScanner: Adding new item to tvshows:smb://NICKDESKTOP-PC/TV Shows/Firefly/
  909. 02:27:17 T:3836 M:1733341184    INFO: Caching image from: smb://NICKDESKTOP-PC/TV Shows/Firefly/fanart.jpg to special://masterprofile/Thumbnails/Video/Fanart/41873937.tbn
  910. 02:27:17 T:3836 M:1733685248    INFO: Caching image from: smb://NICKDESKTOP-PC/TV Shows/Firefly/folder.jpg to special://masterprofile/Thumbnails/Video/4/41873937.tbn with width 512 and height 512
  911. 02:27:17 T:3836 M:1732247552   DEBUG: CVideoDatabase::GetStackedTvShowList query: select idShow from tvshow where c00 like (select c00 from tvshow where idShow=18) order by idShow
  912. 02:27:17 T:3836 M:1732247552   DEBUG: CVideoDatabase::GetSeasonsNav query: select episode.c12,path.strPath,tvshow.c00,tvshow.c08,tvshow.c14,tvshow.c13,count(1),count(files.playCount) from episode join tvshowlinkepisode on tvshowlinkepisode.idEpisode=episode.idEpisode join tvshow on tvshow.idShow=tvshowlinkepisode.idShow join files on files.idFile=episode.idFile  join tvshowlinkpath on tvshowlinkpath.idShow = tvshow.idShow join path on path.idPath = tvshowlinkpath.idPath where tvshow.idShow = 18  group by episode.c12
  913. 02:27:17 T:3836 M:1732259840   DEBUG: Win32DllLoader::Load(ADVAPI32.DLL)
  914. 02:27:17 T:3836 M:1732259840   DEBUG: Win32DllLoader::Load(KERNEL32.DLL)
  915. 02:27:17 T:3836 M:1732259840   DEBUG: Win32DllLoader::Load(NETAPI32.DLL)
  916. 02:27:17 T:3836 M:1732222976   DEBUG: FreeLibrary(NETAPI32.DLL) -> 084862C0
  917. 02:27:17 T:3836 M:1732222976   DEBUG: Win32DllLoader::Unload NETAPI32.DLL
  918. 02:27:17 T:3836 M:1732259840   DEBUG: FreeLibrary(ADVAPI32.DLL) -> 08360AD0
  919. 02:27:17 T:3836 M:1732259840   DEBUG: Win32DllLoader::Unload ADVAPI32.DLL
  920. 02:27:17 T:3836 M:1732259840   DEBUG: Win32DllLoader::Load(USER32.DLL)
  921. 02:27:17 T:3836 M:1732259840   DEBUG: FreeLibrary(USER32.DLL) -> 08360AD0
  922. 02:27:17 T:3836 M:1732259840   DEBUG: Win32DllLoader::Unload USER32.DLL
  923. 02:27:19 T:3836 M:1732444160   DEBUG: FreeLibrary(KERNEL32.DLL) -> 08483FC0
  924. 02:27:19 T:3836 M:1732362240   DEBUG: Win32DllLoader::Unload KERNEL32.DLL
  925. 02:27:20 T:3836 M:1731739648   DEBUG: Win32DllLoader::Load(secur32.dll)
  926. 02:27:20 T:3836 M:1731727360   DEBUG: scraper: NfoScrape returned
  927. 02:27:20 T:3836 M:1731727360   ERROR: ADDON::CScraper::Run: Unable to parse web site
  928. 02:27:20 T:3836 M:1731739648   DEBUG: FreeLibrary(secur32.dll) -> 08483FC0
  929. 02:27:20 T:3836 M:1731739648   DEBUG: Win32DllLoader::Unload secur32.dll
  930. 02:27:20 T:1220 M:1731756032   DEBUG: SDLKeyboard: scancode: 56, sym: 308, unicode: 0, modifier: 0
  931. 02:27:20 T:3836 M:1731756032   DEBUG: VideoInfoScanner: Found matching Full NFO file: smb://NICKDESKTOP-PC/TV Shows/Freaks and Geeks/tvshow.nfo
  932. 02:27:20 T:1220 M:1731756032   DEBUG: CWinEventsWin32::WndProcWindow is active
  933. 02:27:20 T:1220 M:1731756032   DEBUG: CWinEventsWin32::WndProcWindow lost focus
  934. 02:27:20 T:3836 M:1731530752   DEBUG: VideoInfoScanner: Adding new item to tvshows:smb://NICKDESKTOP-PC/TV Shows/Freaks and Geeks/
  935. 02:27:20 T:3836 M:1731538944    INFO: Caching image from: smb://NICKDESKTOP-PC/TV Shows/Freaks and Geeks/fanart.jpg to special://masterprofile/Thumbnails/Video/Fanart/4a9e5e4f.tbn
  936. 02:27:20 T:3836 M:1731862528    INFO: Caching image from: smb://NICKDESKTOP-PC/TV Shows/Freaks and Geeks/folder.jpg to special://masterprofile/Thumbnails/Video/4/4a9e5e4f.tbn with width 512 and height 512
  937. 02:27:20 T:3836 M:1733648384   DEBUG: CVideoDatabase::GetStackedTvShowList query: select idShow from tvshow where c00 like (select c00 from tvshow where idShow=19) order by idShow
  938. 02:27:20 T:3836 M:1733648384   DEBUG: CVideoDatabase::GetSeasonsNav query: select episode.c12,path.strPath,tvshow.c00,tvshow.c08,tvshow.c14,tvshow.c13,count(1),count(files.playCount) from episode join tvshowlinkepisode on tvshowlinkepisode.idEpisode=episode.idEpisode join tvshow on tvshow.idShow=tvshowlinkepisode.idShow join files on files.idFile=episode.idFile  join tvshowlinkpath on tvshowlinkpath.idShow = tvshow.idShow join path on path.idPath = tvshowlinkpath.idPath where tvshow.idShow = 19  group by episode.c12
  939. 02:27:21 T:3836 M:1733656576   DEBUG: Win32DllLoader::Load(ADVAPI32.DLL)
  940. 02:27:21 T:3836 M:1733656576   DEBUG: Win32DllLoader::Load(KERNEL32.DLL)
  941. 02:27:21 T:3836 M:1733656576   DEBUG: Win32DllLoader::Load(NETAPI32.DLL)
  942. 02:27:21 T:3836 M:1733619712   DEBUG: FreeLibrary(NETAPI32.DLL) -> 08486310
  943. 02:27:21 T:3836 M:1733619712   DEBUG: Win32DllLoader::Unload NETAPI32.DLL
  944. 02:27:21 T:3836 M:1733656576   DEBUG: FreeLibrary(ADVAPI32.DLL) -> 08483F70
  945. 02:27:21 T:3836 M:1733656576   DEBUG: Win32DllLoader::Unload ADVAPI32.DLL
  946. 02:27:21 T:3836 M:1733656576   DEBUG: Win32DllLoader::Load(USER32.DLL)
  947. 02:27:21 T:3836 M:1733656576   DEBUG: FreeLibrary(USER32.DLL) -> 08483F70
  948. 02:27:21 T:3836 M:1733656576   DEBUG: Win32DllLoader::Unload USER32.DLL
  949. 02:27:22 T:3836 M:1725300736   DEBUG: FreeLibrary(KERNEL32.DLL) -> 08486270
  950. 02:27:22 T:3836 M:1725300736   DEBUG: Win32DllLoader::Unload KERNEL32.DLL
  951. 02:27:23 T:3836 M:1734811648   DEBUG: Win32DllLoader::Load(secur32.dll)
  952. 02:27:23 T:3836 M:1734799360   DEBUG: scraper: NfoScrape returned
  953. 02:27:23 T:3836 M:1734799360   ERROR: ADDON::CScraper::Run: Unable to parse web site
  954. 02:27:23 T:3836 M:1734799360   DEBUG: FreeLibrary(secur32.dll) -> 08486270
  955. 02:27:23 T:3836 M:1734799360   DEBUG: Win32DllLoader::Unload secur32.dll
  956. 02:27:23 T:3836 M:1734811648   DEBUG: VideoInfoScanner: Found matching Full NFO file: smb://NICKDESKTOP-PC/TV Shows/Futurama/tvshow.nfo
  957. 02:27:23 T:3836 M:1734725632   DEBUG: VideoInfoScanner: Adding new item to tvshows:smb://NICKDESKTOP-PC/TV Shows/Futurama/
  958. 02:27:23 T:3836 M:1734610944    INFO: Caching image from: smb://NICKDESKTOP-PC/TV Shows/Futurama/fanart.jpg to special://masterprofile/Thumbnails/Video/Fanart/db17cbf2.tbn
  959. 02:27:23 T:3836 M:1734979584    INFO: Caching image from: smb://NICKDESKTOP-PC/TV Shows/Futurama/folder.jpg to special://masterprofile/Thumbnails/Video/d/db17cbf2.tbn with width 512 and height 512
  960. 02:27:23 T:3836 M:1733738496   DEBUG: CVideoDatabase::GetStackedTvShowList query: select idShow from tvshow where c00 like (select c00 from tvshow where idShow=20) order by idShow
  961. 02:27:23 T:3836 M:1733738496   DEBUG: CVideoDatabase::GetSeasonsNav query: select episode.c12,path.strPath,tvshow.c00,tvshow.c08,tvshow.c14,tvshow.c13,count(1),count(files.playCount) from episode join tvshowlinkepisode on tvshowlinkepisode.idEpisode=episode.idEpisode join tvshow on tvshow.idShow=tvshowlinkepisode.idShow join files on files.idFile=episode.idFile  join tvshowlinkpath on tvshowlinkpath.idShow = tvshow.idShow join path on path.idPath = tvshowlinkpath.idPath where tvshow.idShow = 20  group by episode.c12
  962. 02:27:23 T:3836 M:1733304320   DEBUG: Win32DllLoader::Load(ADVAPI32.DLL)
  963. 02:27:23 T:3836 M:1733304320   DEBUG: Win32DllLoader::Load(KERNEL32.DLL)
  964. 02:27:23 T:3836 M:1733304320   DEBUG: Win32DllLoader::Load(NETAPI32.DLL)
  965. 02:27:23 T:3836 M:1733267456   DEBUG: FreeLibrary(NETAPI32.DLL) -> 08482120
  966. 02:27:23 T:3836 M:1733267456   DEBUG: Win32DllLoader::Unload NETAPI32.DLL
  967. 02:27:23 T:3836 M:1733304320   DEBUG: FreeLibrary(ADVAPI32.DLL) -> 08486360
  968. 02:27:23 T:3836 M:1733304320   DEBUG: Win32DllLoader::Unload ADVAPI32.DLL
  969. 02:27:23 T:3836 M:1733304320   DEBUG: Win32DllLoader::Load(USER32.DLL)
  970. 02:27:23 T:3836 M:1733304320   DEBUG: FreeLibrary(USER32.DLL) -> 08486360
  971. 02:27:23 T:3836 M:1733304320   DEBUG: Win32DllLoader::Unload USER32.DLL
  972. 02:27:24 T:3836 M:1733476352   DEBUG: FreeLibrary(KERNEL32.DLL) -> 084863B0
  973. 02:27:24 T:3836 M:1733476352   DEBUG: Win32DllLoader::Unload KERNEL32.DLL
  974. 02:27:26 T:3836 M:1733808128   DEBUG: Win32DllLoader::Load(secur32.dll)
  975. 02:27:26 T:3836 M:1733795840   DEBUG: scraper: NfoScrape returned
  976. 02:27:26 T:3836 M:1733795840   ERROR: ADDON::CScraper::Run: Unable to parse web site
  977. 02:27:26 T:3836 M:1733926912   DEBUG: FreeLibrary(secur32.dll) -> 084863B0
  978. 02:27:26 T:3836 M:1733926912   DEBUG: Win32DllLoader::Unload secur32.dll
  979. 02:27:26 T:3836 M:1733939200   DEBUG: VideoInfoScanner: Found matching Full NFO file: smb://NICKDESKTOP-PC/TV Shows/Generation Kill/tvshow.nfo
  980. 02:27:26 T:3836 M:1733849088   DEBUG: VideoInfoScanner: Adding new item to tvshows:smb://NICKDESKTOP-PC/TV Shows/Generation Kill/
  981. 02:27:26 T:3836 M:1733849088    INFO: Caching image from: smb://NICKDESKTOP-PC/TV Shows/Generation Kill/fanart.jpg to special://masterprofile/Thumbnails/Video/Fanart/43210b64.tbn
  982. 02:27:26 T:3836 M:1734205440    INFO: Caching image from: smb://NICKDESKTOP-PC/TV Shows/Generation Kill/folder.jpg to special://masterprofile/Thumbnails/Video/4/43210b64.tbn with width 512 and height 512
  983. 02:27:26 T:3836 M:1733136384   DEBUG: CVideoDatabase::GetStackedTvShowList query: select idShow from tvshow where c00 like (select c00 from tvshow where idShow=21) order by idShow
  984. 02:27:26 T:3836 M:1733136384   DEBUG: CVideoDatabase::GetSeasonsNav query: select episode.c12,path.strPath,tvshow.c00,tvshow.c08,tvshow.c14,tvshow.c13,count(1),count(files.playCount) from episode join tvshowlinkepisode on tvshowlinkepisode.idEpisode=episode.idEpisode join tvshow on tvshow.idShow=tvshowlinkepisode.idShow join files on files.idFile=episode.idFile  join tvshowlinkpath on tvshowlinkpath.idShow = tvshow.idShow join path on path.idPath = tvshowlinkpath.idPath where tvshow.idShow = 21  group by episode.c12
  985. 02:27:26 T:3836 M:1733128192   DEBUG: Win32DllLoader::Load(ADVAPI32.DLL)
  986. 02:27:26 T:3836 M:1733128192   DEBUG: Win32DllLoader::Load(KERNEL32.DLL)
  987. 02:27:26 T:3836 M:1733128192   DEBUG: Win32DllLoader::Load(NETAPI32.DLL)
  988. 02:27:26 T:3836 M:1733189632   DEBUG: FreeLibrary(NETAPI32.DLL) -> 08486310
  989. 02:27:26 T:3836 M:1733189632   DEBUG: Win32DllLoader::Unload NETAPI32.DLL
  990. 02:27:26 T:3836 M:1733226496   DEBUG: FreeLibrary(ADVAPI32.DLL) -> 083592D0
  991. 02:27:26 T:3836 M:1733226496   DEBUG: Win32DllLoader::Unload ADVAPI32.DLL
  992. 02:27:26 T:3836 M:1733328896   DEBUG: Win32DllLoader::Load(USER32.DLL)
  993. 02:27:26 T:3836 M:1733328896   DEBUG: FreeLibrary(USER32.DLL) -> 083592D0
  994. 02:27:26 T:3836 M:1733328896   DEBUG: Win32DllLoader::Unload USER32.DLL
  995. 02:27:28 T:3836 M:1733521408   DEBUG: FreeLibrary(KERNEL32.DLL) -> 0835B490
  996. 02:27:28 T:3836 M:1733558272   DEBUG: Win32DllLoader::Unload KERNEL32.DLL
  997. 02:27:30 T:3836 M:1734676480   DEBUG: Win32DllLoader::Load(secur32.dll)
  998. 02:27:30 T:3836 M:1734664192   DEBUG: scraper: NfoScrape returned
  999. 02:27:30 T:3836 M:1734664192   ERROR: ADDON::CScraper::Run: Unable to parse web site
  1000. 02:27:30 T:3836 M:1734664192   DEBUG: FreeLibrary(secur32.dll) -> 0835B490
  1001. 02:27:30 T:3836 M:1734664192   DEBUG: Win32DllLoader::Unload secur32.dll
  1002. 02:27:30 T:3836 M:1734676480   DEBUG: VideoInfoScanner: Found matching Full NFO file: smb://NICKDESKTOP-PC/TV Shows/Heroes/tvshow.nfo
  1003. 02:27:30 T:3836 M:1735073792   DEBUG: VideoInfoScanner: Adding new item to tvshows:smb://NICKDESKTOP-PC/TV Shows/Heroes/
  1004. 02:27:30 T:3836 M:1734492160    INFO: Caching image from: smb://NICKDESKTOP-PC/TV Shows/Heroes/fanart.jpg to special://masterprofile/Thumbnails/Video/Fanart/4590853c.tbn
  1005. 02:27:30 T:3836 M:1734930432    INFO: Caching image from: smb://NICKDESKTOP-PC/TV Shows/Heroes/folder.jpg to special://masterprofile/Thumbnails/Video/4/4590853c.tbn with width 512 and height 512
  1006. 02:27:30 T:3836 M:1734291456   DEBUG: CVideoDatabase::GetStackedTvShowList query: select idShow from tvshow where c00 like (select c00 from tvshow where idShow=22) order by idShow
  1007. 02:27:30 T:3836 M:1734291456   DEBUG: CVideoDatabase::GetSeasonsNav query: select episode.c12,path.strPath,tvshow.c00,tvshow.c08,tvshow.c14,tvshow.c13,count(1),count(files.playCount) from episode join tvshowlinkepisode on tvshowlinkepisode.idEpisode=episode.idEpisode join tvshow on tvshow.idShow=tvshowlinkepisode.idShow join files on files.idFile=episode.idFile  join tvshowlinkpath on tvshowlinkpath.idShow = tvshow.idShow join path on path.idPath = tvshowlinkpath.idPath where tvshow.idShow = 22  group by episode.c12
  1008. 02:27:30 T:3836 M:1734328320   DEBUG: Win32DllLoader::Load(ADVAPI32.DLL)
  1009. 02:27:30 T:3836 M:1734332416   DEBUG: Win32DllLoader::Load(KERNEL32.DLL)
  1010. 02:27:30 T:3836 M:1734332416   DEBUG: Win32DllLoader::Load(NETAPI32.DLL)
  1011. 02:27:30 T:3836 M:1734295552   DEBUG: FreeLibrary(NETAPI32.DLL) -> 08486310
  1012. 02:27:30 T:3836 M:1734295552   DEBUG: Win32DllLoader::Unload NETAPI32.DLL
  1013. 02:27:30 T:3836 M:1734332416   DEBUG: FreeLibrary(ADVAPI32.DLL) -> 0835B490
  1014. 02:27:30 T:3836 M:1734332416   DEBUG: Win32DllLoader::Unload ADVAPI32.DLL
  1015. 02:27:30 T:3836 M:1734373376   DEBUG: Win32DllLoader::Load(USER32.DLL)
  1016. 02:27:30 T:3836 M:1734373376   DEBUG: FreeLibrary(USER32.DLL) -> 0835B490
  1017. 02:27:30 T:3836 M:1734373376   DEBUG: Win32DllLoader::Unload USER32.DLL
  1018. 02:27:31 T:3836 M:1733259264   DEBUG: FreeLibrary(KERNEL32.DLL) -> 083592D0
  1019. 02:27:31 T:3836 M:1733259264   DEBUG: Win32DllLoader::Unload KERNEL32.DLL
  1020. 02:27:33 T:3836 M:1734107136   DEBUG: Win32DllLoader::Load(secur32.dll)
  1021. 02:27:33 T:3836 M:1734094848   DEBUG: scraper: NfoScrape returned
  1022. 02:27:33 T:3836 M:1734094848   ERROR: ADDON::CScraper::Run: Unable to parse web site
  1023. 02:27:33 T:3836 M:1734094848   DEBUG: FreeLibrary(secur32.dll) -> 083592D0
  1024. 02:27:33 T:3836 M:1734094848   DEBUG: Win32DllLoader::Unload secur32.dll
  1025. 02:27:33 T:3836 M:1734107136   DEBUG: VideoInfoScanner: Found matching Full NFO file: smb://NICKDESKTOP-PC/TV Shows/Home Movies/tvshow.nfo
  1026. 02:27:33 T:3836 M:1734303744   DEBUG: VideoInfoScanner: Adding new item to tvshows:smb://NICKDESKTOP-PC/TV Shows/Home Movies/
  1027. 02:27:33 T:3836 M:1734066176    INFO: Caching image from: smb://NICKDESKTOP-PC/TV Shows/Home Movies/fanart.jpg to special://masterprofile/Thumbnails/Video/Fanart/781bc1c4.tbn
  1028. 02:27:33 T:3836 M:1734336512    INFO: Caching image from: smb://NICKDESKTOP-PC/TV Shows/Home Movies/folder.jpg to special://masterprofile/Thumbnails/Video/7/781bc1c4.tbn with width 512 and height 512
  1029. 02:27:33 T:3836 M:1733206016   DEBUG: CVideoDatabase::GetStackedTvShowList query: select idShow from tvshow where c00 like (select c00 from tvshow where idShow=23) order by idShow
  1030. 02:27:33 T:3836 M:1733267456   DEBUG: CVideoDatabase::GetSeasonsNav query: select episode.c12,path.strPath,tvshow.c00,tvshow.c08,tvshow.c14,tvshow.c13,count(1),count(files.playCount) from episode join tvshowlinkepisode on tvshowlinkepisode.idEpisode=episode.idEpisode join tvshow on tvshow.idShow=tvshowlinkepisode.idShow join files on files.idFile=episode.idFile  join tvshowlinkpath on tvshowlinkpath.idShow = tvshow.idShow join path on path.idPath = tvshowlinkpath.idPath where tvshow.idShow = 23  group by episode.c12
  1031. 02:27:33 T:3836 M:1733148672   DEBUG: Win32DllLoader::Load(ADVAPI32.DLL)
  1032. 02:27:33 T:3836 M:1733148672   DEBUG: Win32DllLoader::Load(KERNEL32.DLL)
  1033. 02:27:33 T:3836 M:1733148672   DEBUG: Win32DllLoader::Load(NETAPI32.DLL)
  1034. 02:27:33 T:3836 M:1733111808   DEBUG: FreeLibrary(NETAPI32.DLL) -> 0835C3E0
  1035. 02:27:33 T:3836 M:1733111808   DEBUG: Win32DllLoader::Unload NETAPI32.DLL
  1036. 02:27:33 T:3836 M:1733148672   DEBUG: FreeLibrary(ADVAPI32.DLL) -> 0835CA70
  1037. 02:27:33 T:3836 M:1733148672   DEBUG: Win32DllLoader::Unload ADVAPI32.DLL
  1038. 02:27:33 T:3836 M:1733148672   DEBUG: Win32DllLoader::Load(USER32.DLL)
  1039. 02:27:33 T:3836 M:1733148672   DEBUG: FreeLibrary(USER32.DLL) -> 0835CA70
  1040. 02:27:33 T:3836 M:1733148672   DEBUG: Win32DllLoader::Unload USER32.DLL
  1041. 02:27:34 T:3836 M:1721696256   DEBUG: FreeLibrary(KERNEL32.DLL) -> 08360580
  1042. 02:27:34 T:3836 M:1721696256   DEBUG: Win32DllLoader::Unload KERNEL32.DLL
  1043. 02:27:35 T:3836 M:1733345280   DEBUG: Win32DllLoader::Load(secur32.dll)
  1044. 02:27:35 T:3836 M:1733332992   DEBUG: scraper: NfoScrape returned
  1045. 02:27:35 T:3836 M:1733332992   ERROR: ADDON::CScraper::Run: Unable to parse web site
  1046. 02:27:35 T:3836 M:1733459968   DEBUG: FreeLibrary(secur32.dll) -> 08360580
  1047. 02:27:35 T:3836 M:1733459968   DEBUG: Win32DllLoader::Unload secur32.dll
  1048. 02:27:35 T:3836 M:1733472256   DEBUG: VideoInfoScanner: Found matching Full NFO file: smb://NICKDESKTOP-PC/TV Shows/House/tvshow.nfo
  1049. 02:27:35 T:3836 M:1733095424   DEBUG: VideoInfoScanner: Adding new item to tvshows:smb://NICKDESKTOP-PC/TV Shows/House/
  1050. 02:27:35 T:3836 M:1733144576    INFO: Caching image from: smb://NICKDESKTOP-PC/TV Shows/House/fanart.jpg to special://masterprofile/Thumbnails/Video/Fanart/9d09af05.tbn
  1051. 02:27:35 T:3836 M:1732943872    INFO: Caching image from: smb://NICKDESKTOP-PC/TV Shows/House/folder.jpg to special://masterprofile/Thumbnails/Video/9/9d09af05.tbn with width 512 and height 512
  1052. 02:27:36 T:3836 M:1731842048   DEBUG: CVideoDatabase::GetStackedTvShowList query: select idShow from tvshow where c00 like (select c00 from tvshow where idShow=24) order by idShow
  1053. 02:27:36 T:3836 M:1731842048   DEBUG: CVideoDatabase::GetSeasonsNav query: select episode.c12,path.strPath,tvshow.c00,tvshow.c08,tvshow.c14,tvshow.c13,count(1),count(files.playCount) from episode join tvshowlinkepisode on tvshowlinkepisode.idEpisode=episode.idEpisode join tvshow on tvshow.idShow=tvshowlinkepisode.idShow join files on files.idFile=episode.idFile  join tvshowlinkpath on tvshowlinkpath.idShow = tvshow.idShow join path on path.idPath = tvshowlinkpath.idPath where tvshow.idShow = 24  group by episode.c12
  1054. 02:27:36 T:3836 M:1732825088   DEBUG: Win32DllLoader::Load(ADVAPI32.DLL)
  1055. 02:27:36 T:3836 M:1732825088   DEBUG: Win32DllLoader::Load(KERNEL32.DLL)
  1056. 02:27:36 T:3836 M:1732825088   DEBUG: Win32DllLoader::Load(NETAPI32.DLL)
  1057. 02:27:36 T:3836 M:1732788224   DEBUG: FreeLibrary(NETAPI32.DLL) -> 0835C3E0
  1058. 02:27:36 T:3836 M:1732788224   DEBUG: Win32DllLoader::Unload NETAPI32.DLL
  1059. 02:27:36 T:3836 M:1732825088   DEBUG: FreeLibrary(ADVAPI32.DLL) -> 08360580
  1060. 02:27:36 T:3836 M:1732825088   DEBUG: Win32DllLoader::Unload ADVAPI32.DLL
  1061. 02:27:36 T:3836 M:1732825088   DEBUG: Win32DllLoader::Load(USER32.DLL)
  1062. 02:27:36 T:3836 M:1732825088   DEBUG: FreeLibrary(USER32.DLL) -> 08360580
  1063. 02:27:36 T:3836 M:1732825088   DEBUG: Win32DllLoader::Unload USER32.DLL
  1064. 02:27:38 T:3836 M:1732861952   DEBUG: FreeLibrary(KERNEL32.DLL) -> 0835CA70
  1065. 02:27:38 T:3836 M:1732911104   DEBUG: Win32DllLoader::Unload KERNEL32.DLL
  1066. 02:27:39 T:3836 M:1733230592   DEBUG: Win32DllLoader::Load(secur32.dll)
  1067. 02:27:39 T:3836 M:1733218304   DEBUG: scraper: NfoScrape returned
  1068. 02:27:39 T:3836 M:1733218304   ERROR: ADDON::CScraper::Run: Unable to parse web site
  1069. 02:27:39 T:3836 M:1733218304   DEBUG: FreeLibrary(secur32.dll) -> 0835CA70
  1070. 02:27:39 T:3836 M:1733218304   DEBUG: Win32DllLoader::Unload secur32.dll
  1071. 02:27:39 T:3836 M:1733230592   DEBUG: VideoInfoScanner: Found matching Full NFO file: smb://NICKDESKTOP-PC/TV Shows/Important Things with Demetri Martin/tvshow.nfo
  1072. 02:27:39 T:3836 M:1733304320   DEBUG: VideoInfoScanner: Adding new item to tvshows:smb://NICKDESKTOP-PC/TV Shows/Important Things with Demetri Martin/
  1073. 02:27:39 T:3836 M:1733267456    INFO: Caching image from: smb://NICKDESKTOP-PC/TV Shows/Important Things with Demetri Martin/fanart.jpg to special://masterprofile/Thumbnails/Video/Fanart/fedcaf71.tbn
  1074. 02:27:39 T:3836 M:1733537792    INFO: Caching image from: smb://NICKDESKTOP-PC/TV Shows/Important Things with Demetri Martin/folder.jpg to special://masterprofile/Thumbnails/Video/f/fedcaf71.tbn with width 512 and height 512
  1075. 02:27:39 T:3836 M:1732612096   DEBUG: CVideoDatabase::GetStackedTvShowList query: select idShow from tvshow where c00 like (select c00 from tvshow where idShow=25) order by idShow
  1076. 02:27:39 T:3836 M:1732612096   DEBUG: CVideoDatabase::GetSeasonsNav query: select episode.c12,path.strPath,tvshow.c00,tvshow.c08,tvshow.c14,tvshow.c13,count(1),count(files.playCount) from episode join tvshowlinkepisode on tvshowlinkepisode.idEpisode=episode.idEpisode join tvshow on tvshow.idShow=tvshowlinkepisode.idShow join files on files.idFile=episode.idFile  join tvshowlinkpath on tvshowlinkpath.idShow = tvshow.idShow join path on path.idPath = tvshowlinkpath.idPath where tvshow.idShow = 25  group by episode.c12
  1077. 02:27:39 T:3836 M:1733955584   DEBUG: Win32DllLoader::Load(ADVAPI32.DLL)
  1078. 02:27:39 T:3836 M:1734045696   DEBUG: Win32DllLoader::Load(KERNEL32.DLL)
  1079. 02:27:39 T:3836 M:1734234112   DEBUG: Win32DllLoader::Load(NETAPI32.DLL)
  1080. 02:27:39 T:3836 M:1734197248   DEBUG: FreeLibrary(NETAPI32.DLL) -> 08360580
  1081. 02:27:39 T:3836 M:1734197248   DEBUG: Win32DllLoader::Unload NETAPI32.DLL
  1082. 02:27:39 T:3836 M:1734234112   DEBUG: FreeLibrary(ADVAPI32.DLL) -> 0835BFD0
  1083. 02:27:39 T:3836 M:1734234112   DEBUG: Win32DllLoader::Unload ADVAPI32.DLL
  1084. 02:27:39 T:3836 M:1734078464   DEBUG: Win32DllLoader::Load(USER32.DLL)
  1085. 02:27:39 T:3836 M:1734078464   DEBUG: FreeLibrary(USER32.DLL) -> 0835BFD0
  1086. 02:27:39 T:3836 M:1734078464   DEBUG: Win32DllLoader::Unload USER32.DLL
  1087. 02:27:40 T:3836 M:1732608000   DEBUG: FreeLibrary(KERNEL32.DLL) -> 0835CA70
  1088. 02:27:40 T:3836 M:1732751360   DEBUG: Win32DllLoader::Unload KERNEL32.DLL
  1089. 02:27:42 T:3836 M:1733513216   DEBUG: Win32DllLoader::Load(secur32.dll)
  1090. 02:27:42 T:3836 M:1733500928   DEBUG: scraper: NfoScrape returned
  1091. 02:27:42 T:3836 M:1733500928   ERROR: ADDON::CScraper::Run: Unable to parse web site
  1092. 02:27:42 T:3836 M:1733500928   DEBUG: FreeLibrary(secur32.dll) -> 0835CA70
  1093. 02:27:42 T:3836 M:1733500928   DEBUG: Win32DllLoader::Unload secur32.dll
  1094. 02:27:42 T:3836 M:1733513216   DEBUG: VideoInfoScanner: Found matching Full NFO file: smb://NICKDESKTOP-PC/TV Shows/It's Always Sunny in Philadelphia/tvshow.nfo
  1095. 02:27:42 T:3836 M:1733509120   DEBUG: VideoInfoScanner: Adding new item to tvshows:smb://NICKDESKTOP-PC/TV Shows/It's Always Sunny in Philadelphia/
  1096. 02:27:42 T:3836 M:1733509120    INFO: Caching image from: smb://NICKDESKTOP-PC/TV Shows/It's Always Sunny in Philadelphia/fanart.jpg to special://masterprofile/Thumbnails/Video/Fanart/c9f67191.tbn
  1097. 02:27:42 T:3836 M:1733910528    INFO: Caching image from: smb://NICKDESKTOP-PC/TV Shows/It's Always Sunny in Philadelphia/folder.jpg to special://masterprofile/Thumbnails/Video/c/c9f67191.tbn with width 512 and height 512
  1098. 02:27:42 T:3836 M:1732325376   DEBUG: CVideoDatabase::GetStackedTvShowList query: select idShow from tvshow where c00 like (select c00 from tvshow where idShow=26) order by idShow
  1099. 02:27:42 T:3836 M:1732325376   DEBUG: CVideoDatabase::GetSeasonsNav query: select episode.c12,path.strPath,tvshow.c00,tvshow.c08,tvshow.c14,tvshow.c13,count(1),count(files.playCount) from episode join tvshowlinkepisode on tvshowlinkepisode.idEpisode=episode.idEpisode join tvshow on tvshow.idShow=tvshowlinkepisode.idShow join files on files.idFile=episode.idFile  join tvshowlinkpath on tvshowlinkpath.idShow = tvshow.idShow join path on path.idPath = tvshowlinkpath.idPath where tvshow.idShow = 26  group by episode.c12
  1100. 02:27:42 T:3836 M:1732329472   DEBUG: Win32DllLoader::Load(ADVAPI32.DLL)
  1101. 02:27:42 T:3836 M:1732329472   DEBUG: Win32DllLoader::Load(KERNEL32.DLL)
  1102. 02:27:42 T:3836 M:1732329472   DEBUG: Win32DllLoader::Load(NETAPI32.DLL)
  1103. 02:27:42 T:3836 M:1732292608   DEBUG: FreeLibrary(NETAPI32.DLL) -> 08486310
  1104. 02:27:42 T:3836 M:1732292608   DEBUG: Win32DllLoader::Unload NETAPI32.DLL
  1105. 02:27:42 T:3836 M:1732329472   DEBUG: FreeLibrary(ADVAPI32.DLL) -> 083592D0
  1106. 02:27:42 T:3836 M:1732329472   DEBUG: Win32DllLoader::Unload ADVAPI32.DLL
  1107. 02:27:42 T:3836 M:1732329472   DEBUG: Win32DllLoader::Load(USER32.DLL)
  1108. 02:27:42 T:3836 M:1732329472   DEBUG: FreeLibrary(USER32.DLL) -> 083592D0
  1109. 02:27:42 T:3836 M:1732329472   DEBUG: Win32DllLoader::Unload USER32.DLL
  1110. 02:27:44 T:3836 M:1733337088   DEBUG: FreeLibrary(KERNEL32.DLL) -> 0835B490
  1111. 02:27:44 T:3836 M:1733402624   DEBUG: Win32DllLoader::Unload KERNEL32.DLL
  1112. 02:27:45 T:3836 M:1725792256   DEBUG: Win32DllLoader::Load(secur32.dll)
  1113. 02:27:45 T:3836 M:1725796352   DEBUG: scraper: NfoScrape returned
  1114. 02:27:45 T:3836 M:1725796352   ERROR: ADDON::CScraper::Run: Unable to parse web site
  1115. 02:27:45 T:3836 M:1725796352   DEBUG: FreeLibrary(secur32.dll) -> 0835B490
  1116. 02:27:45 T:3836 M:1725796352   DEBUG: Win32DllLoader::Unload secur32.dll
  1117. 02:27:45 T:3836 M:1725808640   DEBUG: VideoInfoScanner: Found matching Full NFO file: smb://NICKDESKTOP-PC/TV Shows/Look Around You/tvshow.nfo
  1118. 02:27:45 T:3836 M:1732874240   DEBUG: VideoInfoScanner: Adding new item to tvshows:smb://NICKDESKTOP-PC/TV Shows/Look Around You/
  1119. 02:27:45 T:3836 M:1733681152    INFO: Caching image from: smb://NICKDESKTOP-PC/TV Shows/Look Around You/fanart.jpg to special://masterprofile/Thumbnails/Video/Fanart/914bd501.tbn
  1120. 02:27:46 T:3836 M:1733394432    INFO: Caching image from: smb://NICKDESKTOP-PC/TV Shows/Look Around You/folder.jpg to special://masterprofile/Thumbnails/Video/9/914bd501.tbn with width 512 and height 512
  1121. 02:27:46 T:3836 M:1733382144   DEBUG: CVideoDatabase::GetStackedTvShowList query: select idShow from tvshow where c00 like (select c00 from tvshow where idShow=27) order by idShow
  1122. 02:27:46 T:3836 M:1733382144   DEBUG: CVideoDatabase::GetSeasonsNav query: select episode.c12,path.strPath,tvshow.c00,tvshow.c08,tvshow.c14,tvshow.c13,count(1),count(files.playCount) from episode join tvshowlinkepisode on tvshowlinkepisode.idEpisode=episode.idEpisode join tvshow on tvshow.idShow=tvshowlinkepisode.idShow join files on files.idFile=episode.idFile  join tvshowlinkpath on tvshowlinkpath.idShow = tvshow.idShow join path on path.idPath = tvshowlinkpath.idPath where tvshow.idShow = 27  group by episode.c12
  1123. 02:27:46 T:3836 M:1733488640   DEBUG: Win32DllLoader::Load(ADVAPI32.DLL)
  1124. 02:27:46 T:3836 M:1733488640   DEBUG: Win32DllLoader::Load(KERNEL32.DLL)
  1125. 02:27:46 T:3836 M:1733488640   DEBUG: Win32DllLoader::Load(NETAPI32.DLL)
  1126. 02:27:46 T:3836 M:1733451776   DEBUG: FreeLibrary(NETAPI32.DLL) -> 08484BA0
  1127. 02:27:46 T:3836 M:1733451776   DEBUG: Win32DllLoader::Unload NETAPI32.DLL
  1128. 02:27:46 T:3836 M:1733488640   DEBUG: FreeLibrary(ADVAPI32.DLL) -> 08484B00
  1129. 02:27:46 T:3836 M:1733488640   DEBUG: Win32DllLoader::Unload ADVAPI32.DLL
  1130. 02:27:46 T:3836 M:1733488640   DEBUG: Win32DllLoader::Load(USER32.DLL)
  1131. 02:27:46 T:3836 M:1733488640   DEBUG: FreeLibrary(USER32.DLL) -> 08484B00
  1132. 02:27:46 T:3836 M:1733488640   DEBUG: Win32DllLoader::Unload USER32.DLL
  1133. 02:27:48 T:3836 M:1734529024   DEBUG: FreeLibrary(KERNEL32.DLL) -> 08484B50
  1134. 02:27:48 T:3836 M:1734529024   DEBUG: Win32DllLoader::Unload KERNEL32.DLL
  1135. 02:27:49 T:3836 M:1733816320   DEBUG: Win32DllLoader::Load(secur32.dll)
  1136. 02:27:49 T:3836 M:1734860800   DEBUG: scraper: NfoScrape returned
  1137. 02:27:49 T:3836 M:1734860800   ERROR: ADDON::CScraper::Run: Unable to parse web site
  1138. 02:27:49 T:3836 M:1734860800   DEBUG: FreeLibrary(secur32.dll) -> 08484B50
  1139. 02:27:49 T:3836 M:1734860800   DEBUG: Win32DllLoader::Unload secur32.dll
  1140. 02:27:49 T:3836 M:1734881280   DEBUG: VideoInfoScanner: Found matching Full NFO file: smb://NICKDESKTOP-PC/TV Shows/Lost/tvshow.nfo
  1141. 02:27:49 T:3836 M:1733406720   DEBUG: VideoInfoScanner: Adding new item to tvshows:smb://NICKDESKTOP-PC/TV Shows/Lost/
  1142. 02:27:50 T:3836 M:1732956160    INFO: Caching image from: smb://NICKDESKTOP-PC/TV Shows/Lost/fanart.jpg to special://masterprofile/Thumbnails/Video/Fanart/2067feb5.tbn
  1143. 02:27:50 T:3836 M:1733283840    INFO: Caching image from: smb://NICKDESKTOP-PC/TV Shows/Lost/folder.jpg to special://masterprofile/Thumbnails/Video/2/2067feb5.tbn with width 512 and height 512
  1144. 02:27:50 T:3836 M:1732878336   DEBUG: CVideoDatabase::GetStackedTvShowList query: select idShow from tvshow where c00 like (select c00 from tvshow where idShow=28) order by idShow
  1145. 02:27:50 T:3836 M:1732878336   DEBUG: CVideoDatabase::GetSeasonsNav query: select episode.c12,path.strPath,tvshow.c00,tvshow.c08,tvshow.c14,tvshow.c13,count(1),count(files.playCount) from episode join tvshowlinkepisode on tvshowlinkepisode.idEpisode=episode.idEpisode join tvshow on tvshow.idShow=tvshowlinkepisode.idShow join files on files.idFile=episode.idFile  join tvshowlinkpath on tvshowlinkpath.idShow = tvshow.idShow join path on path.idPath = tvshowlinkpath.idPath where tvshow.idShow = 28  group by episode.c12
  1146. 02:27:50 T:3836 M:1732960256   DEBUG: Win32DllLoader::Load(ADVAPI32.DLL)
  1147. 02:27:50 T:3836 M:1732960256   DEBUG: Win32DllLoader::Load(KERNEL32.DLL)
  1148. 02:27:50 T:3836 M:1732960256   DEBUG: Win32DllLoader::Load(NETAPI32.DLL)
  1149. 02:27:50 T:3836 M:1732923392   DEBUG: FreeLibrary(NETAPI32.DLL) -> 0835F130
  1150. 02:27:50 T:3836 M:1732923392   DEBUG: Win32DllLoader::Unload NETAPI32.DLL
  1151. 02:27:50 T:3836 M:1732960256   DEBUG: FreeLibrary(ADVAPI32.DLL) -> 0835B490
  1152. 02:27:50 T:3836 M:1732960256   DEBUG: Win32DllLoader::Unload ADVAPI32.DLL
  1153. 02:27:50 T:3836 M:1732960256   DEBUG: Win32DllLoader::Load(USER32.DLL)
  1154. 02:27:50 T:3836 M:1732960256   DEBUG: FreeLibrary(USER32.DLL) -> 0835B490
  1155. 02:27:50 T:3836 M:1732960256   DEBUG: Win32DllLoader::Unload USER32.DLL
  1156. 02:27:52 T:3836 M:1732317184   DEBUG: FreeLibrary(KERNEL32.DLL) -> 08359050
  1157. 02:27:52 T:3836 M:1732464640   DEBUG: Win32DllLoader::Unload KERNEL32.DLL
  1158. 02:27:53 T:3836 M:1733283840   DEBUG: Win32DllLoader::Load(secur32.dll)
  1159. 02:27:53 T:3836 M:1733271552   DEBUG: scraper: NfoScrape returned
  1160. 02:27:53 T:3836 M:1733271552   ERROR: ADDON::CScraper::Run: Unable to parse web site
  1161. 02:27:53 T:3836 M:1733271552   DEBUG: FreeLibrary(secur32.dll) -> 08359050
  1162. 02:27:53 T:3836 M:1733271552   DEBUG: Win32DllLoader::Unload secur32.dll
  1163. 02:27:53 T:3836 M:1733283840   DEBUG: VideoInfoScanner: Found matching Full NFO file: smb://NICKDESKTOP-PC/TV Shows/MacGyver/tvshow.nfo
  1164. 02:27:53 T:3836 M:1733279744   DEBUG: VideoInfoScanner: Adding new item to tvshows:smb://NICKDESKTOP-PC/TV Shows/MacGyver/
  1165. 02:27:53 T:3836 M:1733259264    INFO: Caching image from: smb://NICKDESKTOP-PC/TV Shows/MacGyver/fanart.jpg to special://masterprofile/Thumbnails/Video/Fanart/131a1ce4.tbn
  1166. 02:27:53 T:3836 M:1733791744    INFO: Caching image from: smb://NICKDESKTOP-PC/TV Shows/MacGyver/folder.jpg to special://masterprofile/Thumbnails/Video/1/131a1ce4.tbn with width 512 and height 512
  1167. 02:27:53 T:3836 M:1732243456   DEBUG: CVideoDatabase::GetStackedTvShowList query: select idShow from tvshow where c00 like (select c00 from tvshow where idShow=29) order by idShow
  1168. 02:27:53 T:3836 M:1732243456   DEBUG: CVideoDatabase::GetSeasonsNav query: select episode.c12,path.strPath,tvshow.c00,tvshow.c08,tvshow.c14,tvshow.c13,count(1),count(files.playCount) from episode join tvshowlinkepisode on tvshowlinkepisode.idEpisode=episode.idEpisode join tvshow on tvshow.idShow=tvshowlinkepisode.idShow join files on files.idFile=episode.idFile  join tvshowlinkpath on tvshowlinkpath.idShow = tvshow.idShow join path on path.idPath = tvshowlinkpath.idPath where tvshow.idShow = 29  group by episode.c12
  1169. 02:27:53 T:3836 M:1732317184   DEBUG: Win32DllLoader::Load(ADVAPI32.DLL)
  1170. 02:27:53 T:3836 M:1732317184   DEBUG: Win32DllLoader::Load(KERNEL32.DLL)
  1171. 02:27:53 T:3836 M:1732317184   DEBUG: Win32DllLoader::Load(NETAPI32.DLL)
  1172. 02:27:53 T:3836 M:1732280320   DEBUG: FreeLibrary(NETAPI32.DLL) -> 08486130
  1173. 02:27:53 T:3836 M:1732280320   DEBUG: Win32DllLoader::Unload NETAPI32.DLL
  1174. 02:27:53 T:3836 M:1732317184   DEBUG: FreeLibrary(ADVAPI32.DLL) -> 08487120
  1175. 02:27:53 T:3836 M:1732317184   DEBUG: Win32DllLoader::Unload ADVAPI32.DLL
  1176. 02:27:53 T:3836 M:1732317184   DEBUG: Win32DllLoader::Load(USER32.DLL)
  1177. 02:27:53 T:3836 M:1732317184   DEBUG: FreeLibrary(USER32.DLL) -> 08487120
  1178. 02:27:53 T:3836 M:1732317184   DEBUG: Win32DllLoader::Unload USER32.DLL
  1179. 02:27:54 T:3836 M:1732632576   DEBUG: FreeLibrary(KERNEL32.DLL) -> 08485E60
  1180. 02:27:54 T:3836 M:1732628480   DEBUG: Win32DllLoader::Unload KERNEL32.DLL
  1181. 02:27:56 T:3836 M:1732943872   DEBUG: Win32DllLoader::Load(secur32.dll)
  1182. 02:27:56 T:3836 M:1732931584   DEBUG: scraper: NfoScrape returned
  1183. 02:27:56 T:3836 M:1732931584   ERROR: ADDON::CScraper::Run: Unable to parse web site
  1184. 02:27:56 T:3836 M:1732931584   DEBUG: FreeLibrary(secur32.dll) -> 08485E60
  1185. 02:27:56 T:3836 M:1732931584   DEBUG: Win32DllLoader::Unload secur32.dll
  1186. 02:27:56 T:3836 M:1732943872   DEBUG: VideoInfoScanner: Found matching Full NFO file: smb://NICKDESKTOP-PC/TV Shows/Mad Men/tvshow.nfo
  1187. 02:27:56 T:3836 M:1732939776   DEBUG: VideoInfoScanner: Adding new item to tvshows:smb://NICKDESKTOP-PC/TV Shows/Mad Men/
  1188. 02:27:56 T:3836 M:1732902912    INFO: Caching image from: smb://NICKDESKTOP-PC/TV Shows/Mad Men/fanart.jpg to special://masterprofile/Thumbnails/Video/Fanart/384cff74.tbn
  1189. 02:27:56 T:3836 M:1733001216    INFO: Caching image from: smb://NICKDESKTOP-PC/TV Shows/Mad Men/folder.jpg to special://masterprofile/Thumbnails/Video/3/384cff74.tbn with width 512 and height 512
  1190. 02:27:56 T:3836 M:1732034560   DEBUG: CVideoDatabase::GetStackedTvShowList query: select idShow from tvshow where c00 like (select c00 from tvshow where idShow=30) order by idShow
  1191. 02:27:56 T:3836 M:1732034560   DEBUG: CVideoDatabase::GetSeasonsNav query: select episode.c12,path.strPath,tvshow.c00,tvshow.c08,tvshow.c14,tvshow.c13,count(1),count(files.playCount) from episode join tvshowlinkepisode on tvshowlinkepisode.idEpisode=episode.idEpisode join tvshow on tvshow.idShow=tvshowlinkepisode.idShow join files on files.idFile=episode.idFile  join tvshowlinkpath on tvshowlinkpath.idShow = tvshow.idShow join path on path.idPath = tvshowlinkpath.idPath where tvshow.idShow = 30  group by episode.c12
  1192. 02:27:56 T:3836 M:1732042752   DEBUG: Win32DllLoader::Load(ADVAPI32.DLL)
  1193. 02:27:56 T:3836 M:1732042752   DEBUG: Win32DllLoader::Load(KERNEL32.DLL)
  1194. 02:27:56 T:3836 M:1732042752   DEBUG: Win32DllLoader::Load(NETAPI32.DLL)
  1195. 02:27:56 T:3836 M:1732005888   DEBUG: FreeLibrary(NETAPI32.DLL) -> 08486130
  1196. 02:27:56 T:3836 M:1732005888   DEBUG: Win32DllLoader::Unload NETAPI32.DLL
  1197. 02:27:56 T:3836 M:1732042752   DEBUG: FreeLibrary(ADVAPI32.DLL) -> 08485E60
  1198. 02:27:56 T:3836 M:1732042752   DEBUG: Win32DllLoader::Unload ADVAPI32.DLL
  1199. 02:27:56 T:3836 M:1732042752   DEBUG: Win32DllLoader::Load(USER32.DLL)
  1200. 02:27:56 T:3836 M:1732042752   DEBUG: FreeLibrary(USER32.DLL) -> 08485E60
  1201. 02:27:56 T:3836 M:1732042752   DEBUG: Win32DllLoader::Unload USER32.DLL
  1202. 02:27:58 T:3836 M:1732710400   DEBUG: FreeLibrary(KERNEL32.DLL) -> 08487120
  1203. 02:27:58 T:3836 M:1732730880   DEBUG: Win32DllLoader::Unload KERNEL32.DLL
  1204. 02:27:59 T:3836 M:1733201920   DEBUG: Win32DllLoader::Load(secur32.dll)
  1205. 02:27:59 T:3836 M:1733189632   DEBUG: scraper: NfoScrape returned
  1206. 02:27:59 T:3836 M:1733189632   ERROR: ADDON::CScraper::Run: Unable to parse web site
  1207. 02:27:59 T:3836 M:1733189632   DEBUG: FreeLibrary(secur32.dll) -> 08487120
  1208. 02:27:59 T:3836 M:1733189632   DEBUG: Win32DllLoader::Unload secur32.dll
  1209. 02:27:59 T:3836 M:1733201920   DEBUG: VideoInfoScanner: Found matching Full NFO file: smb://NICKDESKTOP-PC/TV Shows/Metalocalypse/tvshow.nfo
  1210. 02:27:59 T:3836 M:1733545984   DEBUG: VideoInfoScanner: Adding new item to tvshows:smb://NICKDESKTOP-PC/TV Shows/Metalocalypse/
  1211. 02:27:59 T:3836 M:1733222400    INFO: Caching image from: smb://NICKDESKTOP-PC/TV Shows/Metalocalypse/fanart.jpg to special://masterprofile/Thumbnails/Video/Fanart/126c3fa6.tbn
  1212. 02:28:00 T:3836 M:1733324800    INFO: Caching image from: smb://NICKDESKTOP-PC/TV Shows/Metalocalypse/folder.jpg to special://masterprofile/Thumbnails/Video/1/126c3fa6.tbn with width 512 and height 512
  1213. 02:28:00 T:3836 M:1733328896   DEBUG: CVideoDatabase::GetStackedTvShowList query: select idShow from tvshow where c00 like (select c00 from tvshow where idShow=31) order by idShow
  1214. 02:28:00 T:3836 M:1733328896   DEBUG: CVideoDatabase::GetSeasonsNav query: select episode.c12,path.strPath,tvshow.c00,tvshow.c08,tvshow.c14,tvshow.c13,count(1),count(files.playCount) from episode join tvshowlinkepisode on tvshowlinkepisode.idEpisode=episode.idEpisode join tvshow on tvshow.idShow=tvshowlinkepisode.idShow join files on files.idFile=episode.idFile  join tvshowlinkpath on tvshowlinkpath.idShow = tvshow.idShow join path on path.idPath = tvshowlinkpath.idPath where tvshow.idShow = 31  group by episode.c12
  1215. 02:28:00 T:3836 M:1733820416   DEBUG: Win32DllLoader::Load(ADVAPI32.DLL)
  1216. 02:28:00 T:3836 M:1733820416   DEBUG: Win32DllLoader::Load(KERNEL32.DLL)
  1217. 02:28:00 T:3836 M:1733910528   DEBUG: Win32DllLoader::Load(NETAPI32.DLL)
  1218. 02:28:00 T:3836 M:1734283264   DEBUG: FreeLibrary(NETAPI32.DLL) -> 08485F00
  1219. 02:28:00 T:3836 M:1734283264   DEBUG: Win32DllLoader::Unload NETAPI32.DLL
  1220. 02:28:00 T:3836 M:1734320128   DEBUG: FreeLibrary(ADVAPI32.DLL) -> 0835BE90
  1221. 02:28:00 T:3836 M:1734320128   DEBUG: Win32DllLoader::Unload ADVAPI32.DLL
  1222. 02:28:00 T:3836 M:1734410240   DEBUG: Win32DllLoader::Load(USER32.DLL)
  1223. 02:28:00 T:3836 M:1734410240   DEBUG: FreeLibrary(USER32.DLL) -> 0835BE90
  1224. 02:28:00 T:3836 M:1734410240   DEBUG: Win32DllLoader::Unload USER32.DLL
  1225. 02:28:02 T:3836 M:1734946816   DEBUG: FreeLibrary(KERNEL32.DLL) -> 08360490
  1226. 02:28:02 T:3836 M:1734946816   DEBUG: Win32DllLoader::Unload KERNEL32.DLL
  1227. 02:28:03 T:3836 M:1734668288   DEBUG: Win32DllLoader::Load(secur32.dll)
  1228. 02:28:03 T:3836 M:1734656000   DEBUG: scraper: NfoScrape returned
  1229. 02:28:03 T:3836 M:1734656000   ERROR: ADDON::CScraper::Run: Unable to parse web site
  1230. 02:28:03 T:3836 M:1734656000   DEBUG: FreeLibrary(secur32.dll) -> 08360490
  1231. 02:28:03 T:3836 M:1734656000   DEBUG: Win32DllLoader::Unload secur32.dll
  1232. 02:28:03 T:3836 M:1734668288   DEBUG: VideoInfoScanner: Found matching Full NFO file: smb://NICKDESKTOP-PC/TV Shows/My Name Is Earl/tvshow.nfo
  1233. 02:28:03 T:3836 M:1735471104   DEBUG: VideoInfoScanner: Adding new item to tvshows:smb://NICKDESKTOP-PC/TV Shows/My Name Is Earl/
  1234. 02:28:03 T:3836 M:1734664192    INFO: Caching image from: smb://NICKDESKTOP-PC/TV Shows/My Name Is Earl/fanart.jpg to special://masterprofile/Thumbnails/Video/Fanart/a0b5b608.tbn
  1235. 02:28:03 T:3836 M:1734905856    INFO: Caching image from: smb://NICKDESKTOP-PC/TV Shows/My Name Is Earl/folder.jpg to special://masterprofile/Thumbnails/Video/a/a0b5b608.tbn with width 512 and height 512
  1236. 02:28:03 T:3836 M:1733787648   DEBUG: CVideoDatabase::GetStackedTvShowList query: select idShow from tvshow where c00 like (select c00 from tvshow where idShow=32) order by idShow
  1237. 02:28:03 T:3836 M:1733787648   DEBUG: CVideoDatabase::GetSeasonsNav query: select episode.c12,path.strPath,tvshow.c00,tvshow.c08,tvshow.c14,tvshow.c13,count(1),count(files.playCount) from episode join tvshowlinkepisode on tvshowlinkepisode.idEpisode=episode.idEpisode join tvshow on tvshow.idShow=tvshowlinkepisode.idShow join files on files.idFile=episode.idFile  join tvshowlinkpath on tvshowlinkpath.idShow = tvshow.idShow join path on path.idPath = tvshowlinkpath.idPath where tvshow.idShow = 32  group by episode.c12
  1238. 02:28:03 T:3836 M:1733890048   DEBUG: Win32DllLoader::Load(ADVAPI32.DLL)
  1239. 02:28:03 T:3836 M:1733890048   DEBUG: Win32DllLoader::Load(KERNEL32.DLL)
  1240. 02:28:03 T:3836 M:1733890048   DEBUG: Win32DllLoader::Load(NETAPI32.DLL)
  1241. 02:28:03 T:3836 M:1733853184   DEBUG: FreeLibrary(NETAPI32.DLL) -> 08485F50
  1242. 02:28:03 T:3836 M:1733853184   DEBUG: Win32DllLoader::Unload NETAPI32.DLL
  1243. 02:28:03 T:3836 M:1733890048   DEBUG: FreeLibrary(ADVAPI32.DLL) -> 08486130
  1244. 02:28:03 T:3836 M:1733890048   DEBUG: Win32DllLoader::Unload ADVAPI32.DLL
  1245. 02:28:03 T:3836 M:1733890048   DEBUG: Win32DllLoader::Load(USER32.DLL)
  1246. 02:28:03 T:3836 M:1733890048   DEBUG: FreeLibrary(USER32.DLL) -> 08486130
  1247. 02:28:03 T:3836 M:1733890048   DEBUG: Win32DllLoader::Unload USER32.DLL
  1248. 02:28:05 T:3836 M:1735561216   DEBUG: FreeLibrary(KERNEL32.DLL) -> 084864A0
  1249. 02:28:05 T:3836 M:1735712768   DEBUG: Win32DllLoader::Unload KERNEL32.DLL
  1250. 02:28:07 T:3836 M:1736519680   DEBUG: Win32DllLoader::Load(secur32.dll)
  1251. 02:28:07 T:3836 M:1736507392   DEBUG: scraper: NfoScrape returned
  1252. 02:28:07 T:3836 M:1736507392   ERROR: ADDON::CScraper::Run: Unable to parse web site
  1253. 02:28:07 T:3836 M:1736634368   DEBUG: FreeLibrary(secur32.dll) -> 084864A0
  1254. 02:28:07 T:3836 M:1736634368   DEBUG: Win32DllLoader::Unload secur32.dll
  1255. 02:28:07 T:3836 M:1736654848   DEBUG: VideoInfoScanner: Found matching Full NFO file: smb://NICKDESKTOP-PC/TV Shows/Parks and Recreation/tvshow.nfo
  1256. 02:28:07 T:3836 M:1737019392   DEBUG: VideoInfoScanner: Adding new item to tvshows:smb://NICKDESKTOP-PC/TV Shows/Parks and Recreation/
  1257. 02:28:07 T:3836 M:1737703424    INFO: Caching image from: smb://NICKDESKTOP-PC/TV Shows/Parks and Recreation/fanart.jpg to special://masterprofile/Thumbnails/Video/Fanart/05ac520b.tbn
  1258. 02:28:07 T:3836 M:1737224192    INFO: Caching image from: smb://NICKDESKTOP-PC/TV Shows/Parks and Recreation/folder.jpg to special://masterprofile/Thumbnails/Video/0/05ac520b.tbn with width 512 and height 512
  1259. 02:28:07 T:3836 M:1736122368   DEBUG: CVideoDatabase::GetStackedTvShowList query: select idShow from tvshow where c00 like (select c00 from tvshow where idShow=33) order by idShow
  1260. 02:28:07 T:3836 M:1736122368   DEBUG: CVideoDatabase::GetSeasonsNav query: select episode.c12,path.strPath,tvshow.c00,tvshow.c08,tvshow.c14,tvshow.c13,count(1),count(files.playCount) from episode join tvshowlinkepisode on tvshowlinkepisode.idEpisode=episode.idEpisode join tvshow on tvshow.idShow=tvshowlinkepisode.idShow join files on files.idFile=episode.idFile  join tvshowlinkpath on tvshowlinkpath.idShow = tvshow.idShow join path on path.idPath = tvshowlinkpath.idPath where tvshow.idShow = 33  group by episode.c12
  1261. 02:28:07 T:3836 M:1736187904   DEBUG: Win32DllLoader::Load(ADVAPI32.DLL)
  1262. 02:28:07 T:3836 M:1736187904   DEBUG: Win32DllLoader::Load(KERNEL32.DLL)
  1263. 02:28:07 T:3836 M:1736187904   DEBUG: Win32DllLoader::Load(NETAPI32.DLL)
  1264. 02:28:07 T:3836 M:1736151040   DEBUG: FreeLibrary(NETAPI32.DLL) -> 08481860
  1265. 02:28:07 T:3836 M:1736151040   DEBUG: Win32DllLoader::Unload NETAPI32.DLL
  1266. 02:28:07 T:3836 M:1736187904   DEBUG: FreeLibrary(ADVAPI32.DLL) -> 0835AAE0
  1267. 02:28:07 T:3836 M:1736187904   DEBUG: Win32DllLoader::Unload ADVAPI32.DLL
  1268. 02:28:07 T:3836 M:1736187904   DEBUG: Win32DllLoader::Load(USER32.DLL)
  1269. 02:28:07 T:3836 M:1736187904   DEBUG: FreeLibrary(USER32.DLL) -> 0835AAE0
  1270. 02:28:07 T:3836 M:1736187904   DEBUG: Win32DllLoader::Unload USER32.DLL
  1271. 02:28:09 T:3836 M:1736593408   DEBUG: FreeLibrary(KERNEL32.DLL) -> 08487120
  1272. 02:28:09 T:3836 M:1736445952   DEBUG: Win32DllLoader::Unload KERNEL32.DLL
  1273. 02:28:10 T:3836 M:1736437760   DEBUG: Win32DllLoader::Load(secur32.dll)
  1274. 02:28:10 T:3836 M:1736425472   DEBUG: scraper: NfoScrape returned
  1275. 02:28:10 T:3836 M:1736425472   ERROR: ADDON::CScraper::Run: Unable to parse web site
  1276. 02:28:10 T:3836 M:1736425472   DEBUG: FreeLibrary(secur32.dll) -> 08487120
  1277. 02:28:10 T:3836 M:1736425472   DEBUG: Win32DllLoader::Unload secur32.dll
  1278. 02:28:10 T:3836 M:1736437760   DEBUG: VideoInfoScanner: Found matching Full NFO file: smb://NICKDESKTOP-PC/TV Shows/Robot Chicken/tvshow.nfo
  1279. 02:28:10 T:3836 M:1736495104   DEBUG: VideoInfoScanner: Adding new item to tvshows:smb://NICKDESKTOP-PC/TV Shows/Robot Chicken/
  1280. 02:28:10 T:3836 M:1736482816    INFO: Caching image from: smb://NICKDESKTOP-PC/TV Shows/Robot Chicken/fanart.jpg to special://masterprofile/Thumbnails/Video/Fanart/2130b90d.tbn
  1281. 02:28:10 T:3836 M:1736658944    INFO: Caching image from: smb://NICKDESKTOP-PC/TV Shows/Robot Chicken/folder.jpg to special://masterprofile/Thumbnails/Video/2/2130b90d.tbn with width 512 and height 512
  1282. 02:28:11 T:3836 M:1736142848   DEBUG: CVideoDatabase::GetStackedTvShowList query: select idShow from tvshow where c00 like (select c00 from tvshow where idShow=34) order by idShow
  1283. 02:28:11 T:3836 M:1736142848   DEBUG: CVideoDatabase::GetSeasonsNav query: select episode.c12,path.strPath,tvshow.c00,tvshow.c08,tvshow.c14,tvshow.c13,count(1),count(files.playCount) from episode join tvshowlinkepisode on tvshowlinkepisode.idEpisode=episode.idEpisode join tvshow on tvshow.idShow=tvshowlinkepisode.idShow join files on files.idFile=episode.idFile  join tvshowlinkpath on tvshowlinkpath.idShow = tvshow.idShow join path on path.idPath = tvshowlinkpath.idPath where tvshow.idShow = 34  group by episode.c12
  1284. 02:28:11 T:3836 M:1736155136   DEBUG: Win32DllLoader::Load(ADVAPI32.DLL)
  1285. 02:28:11 T:3836 M:1736155136   DEBUG: Win32DllLoader::Load(KERNEL32.DLL)
  1286. 02:28:11 T:3836 M:1736155136   DEBUG: Win32DllLoader::Load(NETAPI32.DLL)
  1287. 02:28:11 T:3836 M:1736118272   DEBUG: FreeLibrary(NETAPI32.DLL) -> 084818B0
  1288. 02:28:11 T:3836 M:1736118272   DEBUG: Win32DllLoader::Unload NETAPI32.DLL
  1289. 02:28:11 T:3836 M:1736155136   DEBUG: FreeLibrary(ADVAPI32.DLL) -> 08481860
  1290. 02:28:11 T:3836 M:1736155136   DEBUG: Win32DllLoader::Unload ADVAPI32.DLL
  1291. 02:28:11 T:3836 M:1736155136   DEBUG: Win32DllLoader::Load(USER32.DLL)
  1292. 02:28:11 T:3836 M:1736155136   DEBUG: FreeLibrary(USER32.DLL) -> 08481860
  1293. 02:28:11 T:3836 M:1736155136   DEBUG: Win32DllLoader::Unload USER32.DLL
  1294. 02:28:13 T:3836 M:1736339456   DEBUG: FreeLibrary(KERNEL32.DLL) -> 08485F00
  1295. 02:28:13 T:3836 M:1736450048   DEBUG: Win32DllLoader::Unload KERNEL32.DLL
  1296. 02:28:14 T:3836 M:1737904128   DEBUG: Win32DllLoader::Load(secur32.dll)
  1297. 02:28:14 T:3836 M:1737891840   DEBUG: scraper: NfoScrape returned
  1298. 02:28:14 T:3836 M:1737891840   ERROR: ADDON::CScraper::Run: Unable to parse web site
  1299. 02:28:14 T:3836 M:1737891840   DEBUG: FreeLibrary(secur32.dll) -> 08485F00
  1300. 02:28:14 T:3836 M:1737891840   DEBUG: Win32DllLoader::Unload secur32.dll
  1301. 02:28:14 T:3836 M:1737904128   DEBUG: VideoInfoScanner: Found matching Full NFO file: smb://NICKDESKTOP-PC/TV Shows/Rome/tvshow.nfo
  1302. 02:28:14 T:3836 M:1737637888   DEBUG: VideoInfoScanner: Adding new item to tvshows:smb://NICKDESKTOP-PC/TV Shows/Rome/
  1303. 02:28:14 T:3836 M:1737256960    INFO: Caching image from: smb://NICKDESKTOP-PC/TV Shows/Rome/fanart.jpg to special://masterprofile/Thumbnails/Video/Fanart/8566a6b3.tbn
  1304. 02:28:14 T:3836 M:1737707520    INFO: Caching image from: smb://NICKDESKTOP-PC/TV Shows/Rome/folder.jpg to special://masterprofile/Thumbnails/Video/8/8566a6b3.tbn with width 512 and height 512
  1305. 02:28:14 T:3836 M:1736192000   DEBUG: CVideoDatabase::GetStackedTvShowList query: select idShow from tvshow where c00 like (select c00 from tvshow where idShow=35) order by idShow
  1306. 02:28:14 T:3836 M:1736192000   DEBUG: CVideoDatabase::GetSeasonsNav query: select episode.c12,path.strPath,tvshow.c00,tvshow.c08,tvshow.c14,tvshow.c13,count(1),count(files.playCount) from episode join tvshowlinkepisode on tvshowlinkepisode.idEpisode=episode.idEpisode join tvshow on tvshow.idShow=tvshowlinkepisode.idShow join files on files.idFile=episode.idFile  join tvshowlinkpath on tvshowlinkpath.idShow = tvshow.idShow join path on path.idPath = tvshowlinkpath.idPath where tvshow.idShow = 35  group by episode.c12
  1307. 02:28:14 T:3836 M:1736200192   DEBUG: Win32DllLoader::Load(ADVAPI32.DLL)
  1308. 02:28:14 T:3836 M:1736200192   DEBUG: Win32DllLoader::Load(KERNEL32.DLL)
  1309. 02:28:14 T:3836 M:1736200192   DEBUG: Win32DllLoader::Load(NETAPI32.DLL)
  1310. 02:28:14 T:3836 M:1736163328   DEBUG: FreeLibrary(NETAPI32.DLL) -> 083593C0
  1311. 02:28:14 T:3836 M:1736163328   DEBUG: Win32DllLoader::Unload NETAPI32.DLL
  1312. 02:28:14 T:3836 M:1736200192   DEBUG: FreeLibrary(ADVAPI32.DLL) -> 0835B4E0
  1313. 02:28:14 T:3836 M:1736200192   DEBUG: Win32DllLoader::Unload ADVAPI32.DLL
  1314. 02:28:14 T:3836 M:1736200192   DEBUG: Win32DllLoader::Load(USER32.DLL)
  1315. 02:28:14 T:3836 M:1736200192   DEBUG: FreeLibrary(USER32.DLL) -> 0835B4E0
  1316. 02:28:14 T:3836 M:1736200192   DEBUG: Win32DllLoader::Unload USER32.DLL
  1317. 02:28:16 T:3836 M:1736638464   DEBUG: FreeLibrary(KERNEL32.DLL) -> 0835E640
  1318. 02:28:16 T:3836 M:1736679424   DEBUG: Win32DllLoader::Unload KERNEL32.DLL
  1319. 02:28:18 T:3836 M:1737478144   DEBUG: Win32DllLoader::Load(secur32.dll)
  1320. 02:28:18 T:3836 M:1737465856   DEBUG: scraper: NfoScrape returned
  1321. 02:28:18 T:3836 M:1737465856   ERROR: ADDON::CScraper::Run: Unable to parse web site
  1322. 02:28:18 T:3836 M:1737465856   DEBUG: FreeLibrary(secur32.dll) -> 0835E640
  1323. 02:28:18 T:3836 M:1737465856   DEBUG: Win32DllLoader::Unload secur32.dll
  1324. 02:28:18 T:3836 M:1737478144   DEBUG: VideoInfoScanner: Found matching Full NFO file: smb://NICKDESKTOP-PC/TV Shows/Sanctuary/tvshow.nfo
  1325. 02:28:18 T:3836 M:1737539584   DEBUG: VideoInfoScanner: Adding new item to tvshows:smb://NICKDESKTOP-PC/TV Shows/Sanctuary/
  1326. 02:28:18 T:3836 M:1737715712    INFO: Caching image from: smb://NICKDESKTOP-PC/TV Shows/Sanctuary/fanart.jpg to special://masterprofile/Thumbnails/Video/Fanart/ac9d46f8.tbn
  1327. 02:28:18 T:3836 M:1737854976    INFO: Caching image from: smb://NICKDESKTOP-PC/TV Shows/Sanctuary/folder.jpg to special://masterprofile/Thumbnails/Video/a/ac9d46f8.tbn with width 512 and height 512
  1328. 02:28:18 T:3836 M:1737498624   DEBUG: CVideoDatabase::GetStackedTvShowList query: select idShow from tvshow where c00 like (select c00 from tvshow where idShow=36) order by idShow
  1329. 02:28:18 T:3836 M:1737703424   DEBUG: CVideoDatabase::GetSeasonsNav query: select episode.c12,path.strPath,tvshow.c00,tvshow.c08,tvshow.c14,tvshow.c13,count(1),count(files.playCount) from episode join tvshowlinkepisode on tvshowlinkepisode.idEpisode=episode.idEpisode join tvshow on tvshow.idShow=tvshowlinkepisode.idShow join files on files.idFile=episode.idFile  join tvshowlinkpath on tvshowlinkpath.idShow = tvshow.idShow join path on path.idPath = tvshowlinkpath.idPath where tvshow.idShow = 36  group by episode.c12
  1330. 02:28:18 T:3836 M:1736429568   DEBUG: Win32DllLoader::Load(ADVAPI32.DLL)
  1331. 02:28:18 T:3836 M:1736429568   DEBUG: Win32DllLoader::Load(KERNEL32.DLL)
  1332. 02:28:18 T:3836 M:1736429568   DEBUG: Win32DllLoader::Load(NETAPI32.DLL)
  1333. 02:28:18 T:3836 M:1736392704   DEBUG: FreeLibrary(NETAPI32.DLL) -> 0835A630
  1334. 02:28:18 T:3836 M:1736392704   DEBUG: Win32DllLoader::Unload NETAPI32.DLL
  1335. 02:28:18 T:3836 M:1736429568   DEBUG: FreeLibrary(ADVAPI32.DLL) -> 0835E960
  1336. 02:28:18 T:3836 M:1736429568   DEBUG: Win32DllLoader::Unload ADVAPI32.DLL
  1337. 02:28:18 T:3836 M:1736429568   DEBUG: Win32DllLoader::Load(USER32.DLL)
  1338. 02:28:18 T:3836 M:1736429568   DEBUG: FreeLibrary(USER32.DLL) -> 0835E960
  1339. 02:28:18 T:3836 M:1736429568   DEBUG: Win32DllLoader::Unload USER32.DLL
  1340. 02:28:20 T:3836 M:1736462336   DEBUG: FreeLibrary(KERNEL32.DLL) -> 0835DA10
  1341. 02:28:20 T:3836 M:1736462336   DEBUG: Win32DllLoader::Unload KERNEL32.DLL
  1342. 02:28:22 T:3836 M:1736953856   DEBUG: Win32DllLoader::Load(secur32.dll)
  1343. 02:28:22 T:3836 M:1736941568   DEBUG: scraper: NfoScrape returned
  1344. 02:28:22 T:3836 M:1736941568   ERROR: ADDON::CScraper::Run: Unable to parse web site
  1345. 02:28:22 T:3836 M:1736941568   DEBUG: FreeLibrary(secur32.dll) -> 0835DA10
  1346. 02:28:22 T:3836 M:1736941568   DEBUG: Win32DllLoader::Unload secur32.dll
  1347. 02:28:22 T:3836 M:1736953856   DEBUG: VideoInfoScanner: Found matching Full NFO file: smb://NICKDESKTOP-PC/TV Shows/Scrubs/tvshow.nfo
  1348. 02:28:22 T:3836 M:1736929280   DEBUG: VideoInfoScanner: Adding new item to tvshows:smb://NICKDESKTOP-PC/TV Shows/Scrubs/
  1349. 02:28:22 T:3836 M:1736818688    INFO: Caching image from: smb://NICKDESKTOP-PC/TV Shows/Scrubs/fanart.jpg to special://masterprofile/Thumbnails/Video/Fanart/ec3d44d0.tbn
  1350. 02:28:22 T:3836 M:1737220096    INFO: Caching image from: smb://NICKDESKTOP-PC/TV Shows/Scrubs/folder.jpg to special://masterprofile/Thumbnails/Video/e/ec3d44d0.tbn with width 512 and height 512
  1351. 02:28:22 T:3836 M:1737150464   DEBUG: CVideoDatabase::GetStackedTvShowList query: select idShow from tvshow where c00 like (select c00 from tvshow where idShow=37) order by idShow
  1352. 02:28:22 T:3836 M:1737150464   DEBUG: CVideoDatabase::GetSeasonsNav query: select episode.c12,path.strPath,tvshow.c00,tvshow.c08,tvshow.c14,tvshow.c13,count(1),count(files.playCount) from episode join tvshowlinkepisode on tvshowlinkepisode.idEpisode=episode.idEpisode join tvshow on tvshow.idShow=tvshowlinkepisode.idShow join files on files.idFile=episode.idFile  join tvshowlinkpath on tvshowlinkpath.idShow = tvshow.idShow join path on path.idPath = tvshowlinkpath.idPath where tvshow.idShow = 37  group by episode.c12
  1353. 02:28:22 T:3836 M:1737527296   DEBUG: Win32DllLoader::Load(ADVAPI32.DLL)
  1354. 02:28:22 T:3836 M:1737617408   DEBUG: Win32DllLoader::Load(KERNEL32.DLL)
  1355. 02:28:22 T:3836 M:1737617408   DEBUG: Win32DllLoader::Load(NETAPI32.DLL)
  1356. 02:28:22 T:3836 M:1736638464   DEBUG: FreeLibrary(NETAPI32.DLL) -> 084818B0
  1357. 02:28:22 T:3836 M:1736638464   DEBUG: Win32DllLoader::Unload NETAPI32.DLL
  1358. 02:28:22 T:3836 M:1736683520   DEBUG: FreeLibrary(ADVAPI32.DLL) -> 08485F00
  1359. 02:28:22 T:3836 M:1736683520   DEBUG: Win32DllLoader::Unload ADVAPI32.DLL
  1360. 02:28:22 T:3836 M:1737297920   DEBUG: Win32DllLoader::Load(USER32.DLL)
  1361. 02:28:22 T:3836 M:1737297920   DEBUG: FreeLibrary(USER32.DLL) -> 08485F00
  1362. 02:28:22 T:3836 M:1737297920   DEBUG: Win32DllLoader::Unload USER32.DLL
  1363. 02:28:24 T:3836 M:1736785920   DEBUG: FreeLibrary(KERNEL32.DLL) -> 08481860
  1364. 02:28:24 T:3836 M:1736785920   DEBUG: Win32DllLoader::Unload KERNEL32.DLL
  1365. 02:28:25 T:3836 M:1735675904   DEBUG: Win32DllLoader::Load(secur32.dll)
  1366. 02:28:25 T:3836 M:1735663616   DEBUG: scraper: NfoScrape returned
  1367. 02:28:25 T:3836 M:1735663616   ERROR: ADDON::CScraper::Run: Unable to parse web site
  1368. 02:28:25 T:3836 M:1735663616   DEBUG: FreeLibrary(secur32.dll) -> 08481860
  1369. 02:28:25 T:3836 M:1735663616   DEBUG: Win32DllLoader::Unload secur32.dll
  1370. 02:28:25 T:3836 M:1735675904   DEBUG: VideoInfoScanner: Found matching Full NFO file: smb://NICKDESKTOP-PC/TV Shows/South Park/tvshow.nfo
  1371. 02:28:25 T:3836 M:1736339456   DEBUG: VideoInfoScanner: Adding new item to tvshows:smb://NICKDESKTOP-PC/TV Shows/South Park/
  1372. 02:28:25 T:3836 M:1735815168    INFO: Caching image from: smb://NICKDESKTOP-PC/TV Shows/South Park/fanart.jpg to special://masterprofile/Thumbnails/Video/Fanart/a7fa017b.tbn
  1373. 02:28:25 T:3836 M:1736671232    INFO: Caching image from: smb://NICKDESKTOP-PC/TV Shows/South Park/folder.jpg to special://masterprofile/Thumbnails/Video/a/a7fa017b.tbn with width 512 and height 512
  1374. 02:28:26 T:3836 M:1735761920   DEBUG: CVideoDatabase::GetStackedTvShowList query: select idShow from tvshow where c00 like (select c00 from tvshow where idShow=38) order by idShow
  1375. 02:28:26 T:3836 M:1735761920   DEBUG: CVideoDatabase::GetSeasonsNav query: select episode.c12,path.strPath,tvshow.c00,tvshow.c08,tvshow.c14,tvshow.c13,count(1),count(files.playCount) from episode join tvshowlinkepisode on tvshowlinkepisode.idEpisode=episode.idEpisode join tvshow on tvshow.idShow=tvshowlinkepisode.idShow join files on files.idFile=episode.idFile  join tvshowlinkpath on tvshowlinkpath.idShow = tvshow.idShow join path on path.idPath = tvshowlinkpath.idPath where tvshow.idShow = 38  group by episode.c12
  1376. 02:28:26 T:3836 M:1735749632   DEBUG: Win32DllLoader::Load(ADVAPI32.DLL)
  1377. 02:28:26 T:3836 M:1735749632   DEBUG: Win32DllLoader::Load(KERNEL32.DLL)
  1378. 02:28:26 T:3836 M:1735749632   DEBUG: Win32DllLoader::Load(NETAPI32.DLL)
  1379. 02:28:26 T:3836 M:1735712768   DEBUG: FreeLibrary(NETAPI32.DLL) -> 084878A0
  1380. 02:28:26 T:3836 M:1735712768   DEBUG: Win32DllLoader::Unload NETAPI32.DLL
  1381. 02:28:26 T:3836 M:1735749632   DEBUG: FreeLibrary(ADVAPI32.DLL) -> 08481180
  1382. 02:28:26 T:3836 M:1735749632   DEBUG: Win32DllLoader::Unload ADVAPI32.DLL
  1383. 02:28:26 T:3836 M:1735749632   DEBUG: Win32DllLoader::Load(USER32.DLL)
  1384. 02:28:26 T:3836 M:1735749632   DEBUG: FreeLibrary(USER32.DLL) -> 08481180
  1385. 02:28:26 T:3836 M:1735749632   DEBUG: Win32DllLoader::Unload USER32.DLL
  1386. 02:28:28 T:3836 M:1735675904   DEBUG: FreeLibrary(KERNEL32.DLL) -> 084811D0
  1387. 02:28:28 T:3836 M:1735753728   DEBUG: Win32DllLoader::Unload KERNEL32.DLL
  1388. 02:28:29 T:3836 M:1737375744   DEBUG: Win32DllLoader::Load(secur32.dll)
  1389. 02:28:29 T:3836 M:1737170944   DEBUG: scraper: NfoScrape returned
  1390. 02:28:29 T:3836 M:1737170944   ERROR: ADDON::CScraper::Run: Unable to parse web site
  1391. 02:28:29 T:3836 M:1737170944   DEBUG: FreeLibrary(secur32.dll) -> 084811D0
  1392. 02:28:29 T:3836 M:1737170944   DEBUG: Win32DllLoader::Unload secur32.dll
  1393. 02:28:29 T:3836 M:1737191424   DEBUG: VideoInfoScanner: Found matching Full NFO file: smb://NICKDESKTOP-PC/TV Shows/Star Trek/tvshow.nfo
  1394. 02:28:29 T:3836 M:1736003584   DEBUG: VideoInfoScanner: Adding new item to tvshows:smb://NICKDESKTOP-PC/TV Shows/Star Trek/
  1395. 02:28:29 T:3836 M:1736527872    INFO: Caching image from: smb://NICKDESKTOP-PC/TV Shows/Star Trek/fanart.jpg to special://masterprofile/Thumbnails/Video/Fanart/04bcaffc.tbn
  1396. 02:28:29 T:3836 M:1736523776    INFO: Caching image from: smb://NICKDESKTOP-PC/TV Shows/Star Trek/folder.jpg to special://masterprofile/Thumbnails/Video/0/04bcaffc.tbn with width 512 and height 512
  1397. 02:28:29 T:3836 M:1735323648   DEBUG: CVideoDatabase::GetStackedTvShowList query: select idShow from tvshow where c00 like (select c00 from tvshow where idShow=39) order by idShow
  1398. 02:28:29 T:3836 M:1735323648   DEBUG: CVideoDatabase::GetSeasonsNav query: select episode.c12,path.strPath,tvshow.c00,tvshow.c08,tvshow.c14,tvshow.c13,count(1),count(files.playCount) from episode join tvshowlinkepisode on tvshowlinkepisode.idEpisode=episode.idEpisode join tvshow on tvshow.idShow=tvshowlinkepisode.idShow join files on files.idFile=episode.idFile  join tvshowlinkpath on tvshowlinkpath.idShow = tvshow.idShow join path on path.idPath = tvshowlinkpath.idPath where tvshow.idShow = 39  group by episode.c12
  1399. 02:28:29 T:3836 M:1737199616   DEBUG: Win32DllLoader::Load(ADVAPI32.DLL)
  1400. 02:28:29 T:3836 M:1737199616   DEBUG: Win32DllLoader::Load(KERNEL32.DLL)
  1401. 02:28:29 T:3836 M:1737199616   DEBUG: Win32DllLoader::Load(NETAPI32.DLL)
  1402. 02:28:29 T:3836 M:1737162752   DEBUG: FreeLibrary(NETAPI32.DLL) -> 08481860
  1403. 02:28:29 T:3836 M:1737162752   DEBUG: Win32DllLoader::Unload NETAPI32.DLL
  1404. 02:28:29 T:3836 M:1737199616   DEBUG: FreeLibrary(ADVAPI32.DLL) -> 084818B0
  1405. 02:28:29 T:3836 M:1737199616   DEBUG: Win32DllLoader::Unload ADVAPI32.DLL
  1406. 02:28:29 T:3836 M:1737199616   DEBUG: Win32DllLoader::Load(USER32.DLL)
  1407. 02:28:29 T:3836 M:1737199616   DEBUG: FreeLibrary(USER32.DLL) -> 084818B0
  1408. 02:28:29 T:3836 M:1737199616   DEBUG: Win32DllLoader::Unload USER32.DLL
  1409. 02:28:31 T:3836 M:1736224768   DEBUG: FreeLibrary(KERNEL32.DLL) -> 08485F00
  1410. 02:28:31 T:3836 M:1736257536   DEBUG: Win32DllLoader::Unload KERNEL32.DLL
  1411. 02:28:32 T:3836 M:1734643712   DEBUG: Win32DllLoader::Load(secur32.dll)
  1412. 02:28:32 T:3836 M:1734631424   DEBUG: scraper: NfoScrape returned
  1413. 02:28:32 T:3836 M:1734631424   ERROR: ADDON::CScraper::Run: Unable to parse web site
  1414. 02:28:32 T:3836 M:1734631424   DEBUG: FreeLibrary(secur32.dll) -> 08485F00
  1415. 02:28:32 T:3836 M:1734631424   DEBUG: Win32DllLoader::Unload secur32.dll
  1416. 02:28:32 T:3836 M:1734643712   DEBUG: VideoInfoScanner: Found matching Full NFO file: smb://NICKDESKTOP-PC/TV Shows/Star Trek Deep Space Nine/tvshow.nfo
  1417. 02:28:32 T:3836 M:1734750208   DEBUG: VideoInfoScanner: Adding new item to tvshows:smb://NICKDESKTOP-PC/TV Shows/Star Trek Deep Space Nine/
  1418. 02:28:32 T:3836 M:1734336512    INFO: Caching image from: smb://NICKDESKTOP-PC/TV Shows/Star Trek Deep Space Nine/fanart.jpg to special://masterprofile/Thumbnails/Video/Fanart/d14e903b.tbn
  1419. 02:28:32 T:3836 M:1734455296    INFO: Caching image from: smb://NICKDESKTOP-PC/TV Shows/Star Trek Deep Space Nine/folder.jpg to special://masterprofile/Thumbnails/Video/d/d14e903b.tbn with width 512 and height 512
  1420. 02:28:32 T:3836 M:1733955584   DEBUG: CVideoDatabase::GetStackedTvShowList query: select idShow from tvshow where c00 like (select c00 from tvshow where idShow=40) order by idShow
  1421. 02:28:32 T:3836 M:1733971968   DEBUG: CVideoDatabase::GetSeasonsNav query: select episode.c12,path.strPath,tvshow.c00,tvshow.c08,tvshow.c14,tvshow.c13,count(1),count(files.playCount) from episode join tvshowlinkepisode on tvshowlinkepisode.idEpisode=episode.idEpisode join tvshow on tvshow.idShow=tvshowlinkepisode.idShow join files on files.idFile=episode.idFile  join tvshowlinkpath on tvshowlinkpath.idShow = tvshow.idShow join path on path.idPath = tvshowlinkpath.idPath where tvshow.idShow = 40  group by episode.c12
  1422. 02:28:33 T:3836 M:1733877760   DEBUG: Win32DllLoader::Load(ADVAPI32.DLL)
  1423. 02:28:33 T:3836 M:1733877760   DEBUG: Win32DllLoader::Load(KERNEL32.DLL)
  1424. 02:28:33 T:3836 M:1733877760   DEBUG: Win32DllLoader::Load(NETAPI32.DLL)
  1425. 02:28:33 T:3836 M:1733840896   DEBUG: FreeLibrary(NETAPI32.DLL) -> 08488930
  1426. 02:28:33 T:3836 M:1733840896   DEBUG: Win32DllLoader::Unload NETAPI32.DLL
  1427. 02:28:33 T:3836 M:1733877760   DEBUG: FreeLibrary(ADVAPI32.DLL) -> 08482440
  1428. 02:28:33 T:3836 M:1733877760   DEBUG: Win32DllLoader::Unload ADVAPI32.DLL
  1429. 02:28:33 T:3836 M:1733877760   DEBUG: Win32DllLoader::Load(USER32.DLL)
  1430. 02:28:33 T:3836 M:1733877760   DEBUG: FreeLibrary(USER32.DLL) -> 08482440
  1431. 02:28:33 T:3836 M:1733877760   DEBUG: Win32DllLoader::Unload USER32.DLL
  1432. 02:28:34 T:3836 M:1732521984   DEBUG: FreeLibrary(KERNEL32.DLL) -> 08484330
  1433. 02:28:34 T:3836 M:1732521984   DEBUG: Win32DllLoader::Unload KERNEL32.DLL
  1434. 02:28:36 T:3836 M:1731190784   DEBUG: Win32DllLoader::Load(secur32.dll)
  1435. 02:28:36 T:3836 M:1731178496   DEBUG: scraper: NfoScrape returned
  1436. 02:28:36 T:3836 M:1731178496   ERROR: ADDON::CScraper::Run: Unable to parse web site
  1437. 02:28:36 T:3836 M:1731178496   DEBUG: FreeLibrary(secur32.dll) -> 08484330
  1438. 02:28:36 T:3836 M:1731178496   DEBUG: Win32DllLoader::Unload secur32.dll
  1439. 02:28:36 T:3836 M:1731190784   DEBUG: VideoInfoScanner: Found matching Full NFO file: smb://NICKDESKTOP-PC/TV Shows/Star Trek Enterprise/tvshow.nfo
  1440. 02:28:36 T:3836 M:1731211264   DEBUG: VideoInfoScanner: Adding new item to tvshows:smb://NICKDESKTOP-PC/TV Shows/Star Trek Enterprise/
  1441. 02:28:36 T:3836 M:1731211264    INFO: Caching image from: smb://NICKDESKTOP-PC/TV Shows/Star Trek Enterprise/fanart.jpg to special://masterprofile/Thumbnails/Video/Fanart/a13c2ec9.tbn
  1442. 02:28:36 T:3836 M:1732022272    INFO: Caching image from: smb://NICKDESKTOP-PC/TV Shows/Star Trek Enterprise/folder.jpg to special://masterprofile/Thumbnails/Video/a/a13c2ec9.tbn with width 512 and height 512
  1443. 02:28:36 T:3836 M:1731227648   DEBUG: CVideoDatabase::GetStackedTvShowList query: select idShow from tvshow where c00 like (select c00 from tvshow where idShow=41) order by idShow
  1444. 02:28:36 T:3836 M:1731227648   DEBUG: CVideoDatabase::GetSeasonsNav query: select episode.c12,path.strPath,tvshow.c00,tvshow.c08,tvshow.c14,tvshow.c13,count(1),count(files.playCount) from episode join tvshowlinkepisode on tvshowlinkepisode.idEpisode=episode.idEpisode join tvshow on tvshow.idShow=tvshowlinkepisode.idShow join files on files.idFile=episode.idFile  join tvshowlinkpath on tvshowlinkpath.idShow = tvshow.idShow join path on path.idPath = tvshowlinkpath.idPath where tvshow.idShow = 41  group by episode.c12
  1445. 02:28:36 T:3836 M:1731186688   DEBUG: Win32DllLoader::Load(ADVAPI32.DLL)
  1446. 02:28:36 T:3836 M:1731186688   DEBUG: Win32DllLoader::Load(KERNEL32.DLL)
  1447. 02:28:36 T:3836 M:1731186688   DEBUG: Win32DllLoader::Load(NETAPI32.DLL)
  1448. 02:28:36 T:3836 M:1731149824   DEBUG: FreeLibrary(NETAPI32.DLL) -> 08488930
  1449. 02:28:36 T:3836 M:1731149824   DEBUG: Win32DllLoader::Unload NETAPI32.DLL
  1450. 02:28:36 T:3836 M:1731186688   DEBUG: FreeLibrary(ADVAPI32.DLL) -> 08484330
  1451. 02:28:36 T:3836 M:1731186688   DEBUG: Win32DllLoader::Unload ADVAPI32.DLL
  1452. 02:28:36 T:3836 M:1731186688   DEBUG: Win32DllLoader::Load(USER32.DLL)
  1453. 02:28:36 T:3836 M:1731186688   DEBUG: FreeLibrary(USER32.DLL) -> 08484330
  1454. 02:28:36 T:3836 M:1731186688   DEBUG: Win32DllLoader::Unload USER32.DLL
  1455. 02:28:37 T:3836 M:1730646016   DEBUG: FreeLibrary(KERNEL32.DLL) -> 08482440
  1456. 02:28:37 T:3836 M:1730666496   DEBUG: Win32DllLoader::Unload KERNEL32.DLL
  1457. 02:28:39 T:3836 M:1731072000   DEBUG: Win32DllLoader::Load(secur32.dll)
  1458. 02:28:39 T:3836 M:1731059712   DEBUG: scraper: NfoScrape returned
  1459. 02:28:39 T:3836 M:1731059712   ERROR: ADDON::CScraper::Run: Unable to parse web site
  1460. 02:28:39 T:3836 M:1731059712   DEBUG: FreeLibrary(secur32.dll) -> 08482440
  1461. 02:28:39 T:3836 M:1731059712   DEBUG: Win32DllLoader::Unload secur32.dll
  1462. 02:28:39 T:3836 M:1731072000   DEBUG: VideoInfoScanner: Found matching Full NFO file: smb://NICKDESKTOP-PC/TV Shows/Star Trek The Next Generation/tvshow.nfo
  1463. 02:28:39 T:3836 M:1730850816   DEBUG: VideoInfoScanner: Adding new item to tvshows:smb://NICKDESKTOP-PC/TV Shows/Star Trek The Next Generation/
  1464. 02:28:39 T:3836 M:1730772992    INFO: Caching image from: smb://NICKDESKTOP-PC/TV Shows/Star Trek The Next Generation/fanart.jpg to special://masterprofile/Thumbnails/Video/Fanart/f135de7c.tbn
  1465. 02:28:39 T:3836 M:1731051520    INFO: Caching image from: smb://NICKDESKTOP-PC/TV Shows/Star Trek The Next Generation/folder.jpg to special://masterprofile/Thumbnails/Video/f/f135de7c.tbn with width 512 and height 512
  1466. 02:28:39 T:3836 M:1730129920   DEBUG: CVideoDatabase::GetStackedTvShowList query: select idShow from tvshow where c00 like (select c00 from tvshow where idShow=42) order by idShow
  1467. 02:28:39 T:3836 M:1730129920   DEBUG: CVideoDatabase::GetSeasonsNav query: select episode.c12,path.strPath,tvshow.c00,tvshow.c08,tvshow.c14,tvshow.c13,count(1),count(files.playCount) from episode join tvshowlinkepisode on tvshowlinkepisode.idEpisode=episode.idEpisode join tvshow on tvshow.idShow=tvshowlinkepisode.idShow join files on files.idFile=episode.idFile  join tvshowlinkpath on tvshowlinkpath.idShow = tvshow.idShow join path on path.idPath = tvshowlinkpath.idPath where tvshow.idShow = 42  group by episode.c12
  1468. 02:28:39 T:3836 M:1730146304   DEBUG: Win32DllLoader::Load(ADVAPI32.DLL)
  1469. 02:28:39 T:3836 M:1730146304   DEBUG: Win32DllLoader::Load(KERNEL32.DLL)
  1470. 02:28:39 T:3836 M:1730146304   DEBUG: Win32DllLoader::Load(NETAPI32.DLL)
  1471. 02:28:39 T:3836 M:1730109440   DEBUG: FreeLibrary(NETAPI32.DLL) -> 084813B0
  1472. 02:28:39 T:3836 M:1730109440   DEBUG: Win32DllLoader::Unload NETAPI32.DLL
  1473. 02:28:39 T:3836 M:1730146304   DEBUG: FreeLibrary(ADVAPI32.DLL) -> 08481310
  1474. 02:28:39 T:3836 M:1730146304   DEBUG: Win32DllLoader::Unload ADVAPI32.DLL
  1475. 02:28:39 T:3836 M:1730146304   DEBUG: Win32DllLoader::Load(USER32.DLL)
  1476. 02:28:39 T:3836 M:1730146304   DEBUG: FreeLibrary(USER32.DLL) -> 08481310
  1477. 02:28:39 T:3836 M:1730146304   DEBUG: Win32DllLoader::Unload USER32.DLL
  1478. 02:28:40 T:3836 M:1730367488   DEBUG: FreeLibrary(KERNEL32.DLL) -> 08481360
  1479. 02:28:40 T:3836 M:1730367488   DEBUG: Win32DllLoader::Unload KERNEL32.DLL
  1480. 02:28:42 T:3836 M:1730977792   DEBUG: Win32DllLoader::Load(secur32.dll)
  1481. 02:28:42 T:3836 M:1730965504   DEBUG: scraper: NfoScrape returned
  1482. 02:28:42 T:3836 M:1730965504   ERROR: ADDON::CScraper::Run: Unable to parse web site
  1483. 02:28:42 T:3836 M:1730965504   DEBUG: FreeLibrary(secur32.dll) -> 08481360
  1484. 02:28:42 T:3836 M:1730965504   DEBUG: Win32DllLoader::Unload secur32.dll
  1485. 02:28:42 T:3836 M:1730977792   DEBUG: VideoInfoScanner: Found matching Full NFO file: smb://NICKDESKTOP-PC/TV Shows/Star Trek Voyager/tvshow.nfo
  1486. 02:28:42 T:3836 M:1730990080   DEBUG: VideoInfoScanner: Adding new item to tvshows:smb://NICKDESKTOP-PC/TV Shows/Star Trek Voyager/
  1487. 02:28:42 T:3836 M:1731448832    INFO: Caching image from: smb://NICKDESKTOP-PC/TV Shows/Star Trek Voyager/fanart.jpg to special://masterprofile/Thumbnails/Video/Fanart/0e642b87.tbn
  1488. 02:28:42 T:3836 M:1731948544    INFO: Caching image from: smb://NICKDESKTOP-PC/TV Shows/Star Trek Voyager/folder.jpg to special://masterprofile/Thumbnails/Video/0/0e642b87.tbn with width 512 and height 512
  1489. 02:28:42 T:3836 M:1731002368   DEBUG: CVideoDatabase::GetStackedTvShowList query: select idShow from tvshow where c00 like (select c00 from tvshow where idShow=43) order by idShow
  1490. 02:28:42 T:3836 M:1731002368   DEBUG: CVideoDatabase::GetSeasonsNav query: select episode.c12,path.strPath,tvshow.c00,tvshow.c08,tvshow.c14,tvshow.c13,count(1),count(files.playCount) from episode join tvshowlinkepisode on tvshowlinkepisode.idEpisode=episode.idEpisode join tvshow on tvshow.idShow=tvshowlinkepisode.idShow join files on files.idFile=episode.idFile  join tvshowlinkpath on tvshowlinkpath.idShow = tvshow.idShow join path on path.idPath = tvshowlinkpath.idPath where tvshow.idShow = 43  group by episode.c12
  1491. 02:28:42 T:3836 M:1730244608   DEBUG: Win32DllLoader::Load(ADVAPI32.DLL)
  1492. 02:28:42 T:3836 M:1730244608   DEBUG: Win32DllLoader::Load(KERNEL32.DLL)
  1493. 02:28:42 T:3836 M:1730244608   DEBUG: Win32DllLoader::Load(NETAPI32.DLL)
  1494. 02:28:42 T:3836 M:1730207744   DEBUG: FreeLibrary(NETAPI32.DLL) -> 084823F0
  1495. 02:28:42 T:3836 M:1730207744   DEBUG: Win32DllLoader::Unload NETAPI32.DLL
  1496. 02:28:42 T:3836 M:1730244608   DEBUG: FreeLibrary(ADVAPI32.DLL) -> 08488BB0
  1497. 02:28:42 T:3836 M:1730244608   DEBUG: Win32DllLoader::Unload ADVAPI32.DLL
  1498. 02:28:42 T:3836 M:1730244608   DEBUG: Win32DllLoader::Load(USER32.DLL)
  1499. 02:28:42 T:3836 M:1730244608   DEBUG: FreeLibrary(USER32.DLL) -> 08488BB0
  1500. 02:28:42 T:3836 M:1730244608   DEBUG: Win32DllLoader::Unload USER32.DLL
  1501. 02:28:44 T:3836 M:1729720320   DEBUG: FreeLibrary(KERNEL32.DLL) -> 084823A0
  1502. 02:28:44 T:3836 M:1729855488   DEBUG: Win32DllLoader::Unload KERNEL32.DLL
  1503. 02:28:45 T:3836 M:1730109440   DEBUG: Win32DllLoader::Load(secur32.dll)
  1504. 02:28:45 T:3836 M:1730097152   DEBUG: scraper: NfoScrape returned
  1505. 02:28:45 T:3836 M:1730097152   ERROR: ADDON::CScraper::Run: Unable to parse web site
  1506. 02:28:45 T:3836 M:1730097152   DEBUG: FreeLibrary(secur32.dll) -> 084823A0
  1507. 02:28:45 T:3836 M:1730097152   DEBUG: Win32DllLoader::Unload secur32.dll
  1508. 02:28:45 T:3836 M:1730109440   DEBUG: VideoInfoScanner: Found matching Full NFO file: smb://NICKDESKTOP-PC/TV Shows/Star Wars Clone Wars/tvshow.nfo
  1509. 02:28:45 T:3836 M:1730105344   DEBUG: VideoInfoScanner: Adding new item to tvshows:smb://NICKDESKTOP-PC/TV Shows/Star Wars Clone Wars/
  1510. 02:28:46 T:3836 M:1730105344    INFO: Caching image from: smb://NICKDESKTOP-PC/TV Shows/Star Wars Clone Wars/fanart.jpg to special://masterprofile/Thumbnails/Video/Fanart/a8696547.tbn
  1511. 02:28:46 T:3836 M:1730269184    INFO: Caching image from: smb://NICKDESKTOP-PC/TV Shows/Star Wars Clone Wars/folder.jpg to special://masterprofile/Thumbnails/Video/a/a8696547.tbn with width 512 and height 512
  1512. 02:28:46 T:3836 M:1730088960   DEBUG: CVideoDatabase::GetStackedTvShowList query: select idShow from tvshow where c00 like (select c00 from tvshow where idShow=44) order by idShow
  1513. 02:28:46 T:3836 M:1730088960   DEBUG: CVideoDatabase::GetSeasonsNav query: select episode.c12,path.strPath,tvshow.c00,tvshow.c08,tvshow.c14,tvshow.c13,count(1),count(files.playCount) from episode join tvshowlinkepisode on tvshowlinkepisode.idEpisode=episode.idEpisode join tvshow on tvshow.idShow=tvshowlinkepisode.idShow join files on files.idFile=episode.idFile  join tvshowlinkpath on tvshowlinkpath.idShow = tvshow.idShow join path on path.idPath = tvshowlinkpath.idPath where tvshow.idShow = 44  group by episode.c12
  1514. 02:28:46 T:3836 M:1730088960   DEBUG: Win32DllLoader::Load(ADVAPI32.DLL)
  1515. 02:28:46 T:3836 M:1730088960   DEBUG: Win32DllLoader::Load(KERNEL32.DLL)
  1516. 02:28:46 T:3836 M:1730088960   DEBUG: Win32DllLoader::Load(NETAPI32.DLL)
  1517. 02:28:46 T:3836 M:1730052096   DEBUG: FreeLibrary(NETAPI32.DLL) -> 08487800
  1518. 02:28:46 T:3836 M:1730052096   DEBUG: Win32DllLoader::Unload NETAPI32.DLL
  1519. 02:28:46 T:3836 M:1730088960   DEBUG: FreeLibrary(ADVAPI32.DLL) -> 08481180
  1520. 02:28:46 T:3836 M:1730088960   DEBUG: Win32DllLoader::Unload ADVAPI32.DLL
  1521. 02:28:46 T:3836 M:1730088960   DEBUG: Win32DllLoader::Load(USER32.DLL)
  1522. 02:28:46 T:3836 M:1730088960   DEBUG: FreeLibrary(USER32.DLL) -> 08481180
  1523. 02:28:46 T:3836 M:1730088960   DEBUG: Win32DllLoader::Unload USER32.DLL
  1524. 02:28:47 T:3836 M:1729658880   DEBUG: FreeLibrary(KERNEL32.DLL) -> 08487850
  1525. 02:28:47 T:3836 M:1729740800   DEBUG: Win32DllLoader::Unload KERNEL32.DLL
  1526. 02:28:48 T:3836 M:1730007040   DEBUG: Win32DllLoader::Load(secur32.dll)
  1527. 02:28:48 T:3836 M:1730084864   DEBUG: scraper: NfoScrape returned
  1528. 02:28:48 T:3836 M:1730084864   ERROR: ADDON::CScraper::Run: Unable to parse web site
  1529. 02:28:48 T:3836 M:1730084864   DEBUG: FreeLibrary(secur32.dll) -> 08487850
  1530. 02:28:48 T:3836 M:1730084864   DEBUG: Win32DllLoader::Unload secur32.dll
  1531. 02:28:48 T:3836 M:1730301952   DEBUG: VideoInfoScanner: Found matching Full NFO file: smb://NICKDESKTOP-PC/TV Shows/Stargate Atlantis/tvshow.nfo
  1532. 02:28:48 T:3836 M:1730719744   DEBUG: VideoInfoScanner: Adding new item to tvshows:smb://NICKDESKTOP-PC/TV Shows/Stargate Atlantis/
  1533. 02:28:48 T:3836 M:1731686400    INFO: Caching image from: smb://NICKDESKTOP-PC/TV Shows/Stargate Atlantis/fanart.jpg to special://masterprofile/Thumbnails/Video/Fanart/cb486cc9.tbn
  1534. 02:28:48 T:3836 M:1730449408    INFO: Caching image from: smb://NICKDESKTOP-PC/TV Shows/Stargate Atlantis/folder.jpg to special://masterprofile/Thumbnails/Video/c/cb486cc9.tbn with width 512 and height 512
  1535. 02:28:49 T:3836 M:1729310720   DEBUG: CVideoDatabase::GetStackedTvShowList query: select idShow from tvshow where c00 like (select c00 from tvshow where idShow=45) order by idShow
  1536. 02:28:49 T:3836 M:1729310720   DEBUG: CVideoDatabase::GetSeasonsNav query: select episode.c12,path.strPath,tvshow.c00,tvshow.c08,tvshow.c14,tvshow.c13,count(1),count(files.playCount) from episode join tvshowlinkepisode on tvshowlinkepisode.idEpisode=episode.idEpisode join tvshow on tvshow.idShow=tvshowlinkepisode.idShow join files on files.idFile=episode.idFile  join tvshowlinkpath on tvshowlinkpath.idShow = tvshow.idShow join path on path.idPath = tvshowlinkpath.idPath where tvshow.idShow = 45  group by episode.c12
  1537. 02:28:49 T:3836 M:1729388544   DEBUG: Win32DllLoader::Load(ADVAPI32.DLL)
  1538. 02:28:49 T:3836 M:1729388544   DEBUG: Win32DllLoader::Load(KERNEL32.DLL)
  1539. 02:28:49 T:3836 M:1729388544   DEBUG: Win32DllLoader::Load(NETAPI32.DLL)
  1540. 02:28:49 T:3836 M:1729351680   DEBUG: FreeLibrary(NETAPI32.DLL) -> 084812C0
  1541. 02:28:49 T:3836 M:1729351680   DEBUG: Win32DllLoader::Unload NETAPI32.DLL
  1542. 02:28:49 T:3836 M:1729388544   DEBUG: FreeLibrary(ADVAPI32.DLL) -> 08486130
  1543. 02:28:49 T:3836 M:1729388544   DEBUG: Win32DllLoader::Unload ADVAPI32.DLL
  1544. 02:28:49 T:3836 M:1729388544   DEBUG: Win32DllLoader::Load(USER32.DLL)
  1545. 02:28:49 T:3836 M:1729388544   DEBUG: FreeLibrary(USER32.DLL) -> 08486130
  1546. 02:28:49 T:3836 M:1729388544   DEBUG: Win32DllLoader::Unload USER32.DLL
  1547. 02:28:50 T:3836 M:1729933312   DEBUG: FreeLibrary(KERNEL32.DLL) -> 084864A0
  1548. 02:28:50 T:3836 M:1729933312   DEBUG: Win32DllLoader::Unload KERNEL32.DLL
  1549. 02:28:52 T:3836 M:1728544768   DEBUG: Win32DllLoader::Load(secur32.dll)
  1550. 02:28:52 T:3836 M:1728544768   DEBUG: scraper: NfoScrape returned
  1551. 02:28:52 T:3836 M:1728544768   ERROR: ADDON::CScraper::Run: Unable to parse web site
  1552. 02:28:52 T:3836 M:1728544768   DEBUG: FreeLibrary(secur32.dll) -> 084864A0
  1553. 02:28:52 T:3836 M:1728544768   DEBUG: Win32DllLoader::Unload secur32.dll
  1554. 02:28:52 T:3836 M:1728544768   DEBUG: VideoInfoScanner: Found matching Full NFO file: smb://NICKDESKTOP-PC/TV Shows/Stargate SG-1/tvshow.nfo
  1555. 02:28:52 T:3836 M:1728344064   DEBUG: VideoInfoScanner: Adding new item to tvshows:smb://NICKDESKTOP-PC/TV Shows/Stargate SG-1/
  1556. 02:28:52 T:3836 M:1728299008    INFO: Caching image from: smb://NICKDESKTOP-PC/TV Shows/Stargate SG-1/fanart.jpg to special://masterprofile/Thumbnails/Video/Fanart/4a1076e2.tbn
  1557. 02:28:52 T:3836 M:1728442368    INFO: Caching image from: smb://NICKDESKTOP-PC/TV Shows/Stargate SG-1/folder.jpg to special://masterprofile/Thumbnails/Video/4/4a1076e2.tbn with width 512 and height 512
  1558. 02:28:52 T:3836 M:1727602688   DEBUG: CVideoDatabase::GetStackedTvShowList query: select idShow from tvshow where c00 like (select c00 from tvshow where idShow=46) order by idShow
  1559. 02:28:52 T:3836 M:1727602688   DEBUG: CVideoDatabase::GetSeasonsNav query: select episode.c12,path.strPath,tvshow.c00,tvshow.c08,tvshow.c14,tvshow.c13,count(1),count(files.playCount) from episode join tvshowlinkepisode on tvshowlinkepisode.idEpisode=episode.idEpisode join tvshow on tvshow.idShow=tvshowlinkepisode.idShow join files on files.idFile=episode.idFile  join tvshowlinkpath on tvshowlinkpath.idShow = tvshow.idShow join path on path.idPath = tvshowlinkpath.idPath where tvshow.idShow = 46  group by episode.c12
  1560. 02:28:52 T:3836 M:1727598592   DEBUG: Win32DllLoader::Load(ADVAPI32.DLL)
  1561. 02:28:52 T:3836 M:1727598592   DEBUG: Win32DllLoader::Load(KERNEL32.DLL)
  1562. 02:28:52 T:3836 M:1727598592   DEBUG: Win32DllLoader::Load(NETAPI32.DLL)
  1563. 02:28:52 T:3836 M:1727561728   DEBUG: FreeLibrary(NETAPI32.DLL) -> 08482490
  1564. 02:28:52 T:3836 M:1727561728   DEBUG: Win32DllLoader::Unload NETAPI32.DLL
  1565. 02:28:52 T:3836 M:1727598592   DEBUG: FreeLibrary(ADVAPI32.DLL) -> 08481180
  1566. 02:28:52 T:3836 M:1727598592   DEBUG: Win32DllLoader::Unload ADVAPI32.DLL
  1567. 02:28:52 T:3836 M:1727598592   DEBUG: Win32DllLoader::Load(USER32.DLL)
  1568. 02:28:52 T:3836 M:1727598592   DEBUG: FreeLibrary(USER32.DLL) -> 08481180
  1569. 02:28:52 T:3836 M:1727598592   DEBUG: Win32DllLoader::Unload USER32.DLL
  1570. 02:28:53 T:3836 M:1727397888   DEBUG: FreeLibrary(KERNEL32.DLL) -> 08487800
  1571. 02:28:53 T:3836 M:1727500288   DEBUG: Win32DllLoader::Unload KERNEL32.DLL
  1572. 02:28:55 T:3836 M:1727913984   DEBUG: Win32DllLoader::Load(secur32.dll)
  1573. 02:28:55 T:3836 M:1727913984   DEBUG: scraper: NfoScrape returned
  1574. 02:28:55 T:3836 M:1727913984   ERROR: ADDON::CScraper::Run: Unable to parse web site
  1575. 02:28:55 T:3836 M:1727913984   DEBUG: FreeLibrary(secur32.dll) -> 08487800
  1576. 02:28:55 T:3836 M:1727913984   DEBUG: Win32DllLoader::Unload secur32.dll
  1577. 02:28:55 T:3836 M:1727913984   DEBUG: VideoInfoScanner: Found matching Full NFO file: smb://NICKDESKTOP-PC/TV Shows/Stargate Universe/tvshow.nfo
  1578. 02:28:55 T:3836 M:1726799872   DEBUG: VideoInfoScanner: Adding new item to tvshows:smb://NICKDESKTOP-PC/TV Shows/Stargate Universe/
  1579. 02:28:55 T:3836 M:1726758912    INFO: Caching image from: smb://NICKDESKTOP-PC/TV Shows/Stargate Universe/fanart.jpg to special://masterprofile/Thumbnails/Video/Fanart/e6611c37.tbn
  1580. 02:28:55 T:3836 M:1727787008    INFO: Caching image from: smb://NICKDESKTOP-PC/TV Shows/Stargate Universe/folder.jpg to special://masterprofile/Thumbnails/Video/e/e6611c37.tbn with width 512 and height 512
  1581. 02:28:56 T:3836 M:1727254528   DEBUG: CVideoDatabase::GetStackedTvShowList query: select idShow from tvshow where c00 like (select c00 from tvshow where idShow=47) order by idShow
  1582. 02:28:56 T:3836 M:1727254528   DEBUG: CVideoDatabase::GetSeasonsNav query: select episode.c12,path.strPath,tvshow.c00,tvshow.c08,tvshow.c14,tvshow.c13,count(1),count(files.playCount) from episode join tvshowlinkepisode on tvshowlinkepisode.idEpisode=episode.idEpisode join tvshow on tvshow.idShow=tvshowlinkepisode.idShow join files on files.idFile=episode.idFile  join tvshowlinkpath on tvshowlinkpath.idShow = tvshow.idShow join path on path.idPath = tvshowlinkpath.idPath where tvshow.idShow = 47  group by episode.c12
  1583. 02:28:56 T:3836 M:1727262720   DEBUG: Win32DllLoader::Load(ADVAPI32.DLL)
  1584. 02:28:56 T:3836 M:1727262720   DEBUG: Win32DllLoader::Load(KERNEL32.DLL)
  1585. 02:28:56 T:3836 M:1727262720   DEBUG: Win32DllLoader::Load(NETAPI32.DLL)
  1586. 02:28:56 T:3836 M:1727225856   DEBUG: FreeLibrary(NETAPI32.DLL) -> 08484A60
  1587. 02:28:56 T:3836 M:1727225856   DEBUG: Win32DllLoader::Unload NETAPI32.DLL
  1588. 02:28:56 T:3836 M:1727262720   DEBUG: FreeLibrary(ADVAPI32.DLL) -> 084849C0
  1589. 02:28:56 T:3836 M:1727262720   DEBUG: Win32DllLoader::Unload ADVAPI32.DLL
  1590. 02:28:56 T:3836 M:1727262720   DEBUG: Win32DllLoader::Load(USER32.DLL)
  1591. 02:28:56 T:3836 M:1727262720   DEBUG: FreeLibrary(USER32.DLL) -> 084849C0
  1592. 02:28:56 T:3836 M:1727262720   DEBUG: Win32DllLoader::Unload USER32.DLL
  1593. 02:28:57 T:3836 M:1727664128   DEBUG: FreeLibrary(KERNEL32.DLL) -> 08484A10
  1594. 02:28:57 T:3836 M:1727516672   DEBUG: Win32DllLoader::Unload KERNEL32.DLL
  1595. 02:28:58 T:3836 M:1728753664   DEBUG: Win32DllLoader::Load(secur32.dll)
  1596. 02:28:58 T:3836 M:1728753664   DEBUG: scraper: NfoScrape returned
  1597. 02:28:58 T:3836 M:1728753664   ERROR: ADDON::CScraper::Run: Unable to parse web site
  1598. 02:28:58 T:3836 M:1728880640   DEBUG: FreeLibrary(secur32.dll) -> 08484A10
  1599. 02:28:58 T:3836 M:1728880640   DEBUG: Win32DllLoader::Unload secur32.dll
  1600. 02:28:58 T:3836 M:1728888832   DEBUG: VideoInfoScanner: Found matching Full NFO file: smb://NICKDESKTOP-PC/TV Shows/Supernatural/tvshow.nfo
  1601. 02:28:58 T:1220 M:1728884736   DEBUG: CWinEventsWin32::WndProcWindow is active
  1602. 02:28:58 T:1220 M:1728884736   DEBUG: CWinEventsWin32::WndProcWindow gained focus
  1603. 02:28:58 T:3836 M:1728942080   DEBUG: VideoInfoScanner: Adding new item to tvshows:smb://NICKDESKTOP-PC/TV Shows/Supernatural/
  1604. 02:28:58 T:3836 M:1727922176    INFO: Caching image from: smb://NICKDESKTOP-PC/TV Shows/Supernatural/fanart.jpg to special://masterprofile/Thumbnails/Video/Fanart/32b8abdd.tbn
  1605. 02:28:58 T:3836 M:1728323584    INFO: Caching image from: smb://NICKDESKTOP-PC/TV Shows/Supernatural/folder.jpg to special://masterprofile/Thumbnails/Video/3/32b8abdd.tbn with width 512 and height 512
  1606. 02:28:58 T:3836 M:1727168512   DEBUG: CVideoDatabase::GetStackedTvShowList query: select idShow from tvshow where c00 like (select c00 from tvshow where idShow=48) order by idShow
  1607. 02:28:58 T:3836 M:1727168512   DEBUG: CVideoDatabase::GetSeasonsNav query: select episode.c12,path.strPath,tvshow.c00,tvshow.c08,tvshow.c14,tvshow.c13,count(1),count(files.playCount) from episode join tvshowlinkepisode on tvshowlinkepisode.idEpisode=episode.idEpisode join tvshow on tvshow.idShow=tvshowlinkepisode.idShow join files on files.idFile=episode.idFile  join tvshowlinkpath on tvshowlinkpath.idShow = tvshow.idShow join path on path.idPath = tvshowlinkpath.idPath where tvshow.idShow = 48  group by episode.c12
  1608. 02:28:58 T:3836 M:1727152128   DEBUG: Win32DllLoader::Load(ADVAPI32.DLL)
  1609. 02:28:58 T:3836 M:1727152128   DEBUG: Win32DllLoader::Load(KERNEL32.DLL)
  1610. 02:28:58 T:3836 M:1727152128   DEBUG: Win32DllLoader::Load(NETAPI32.DLL)
  1611. 02:28:58 T:3836 M:1727115264   DEBUG: FreeLibrary(NETAPI32.DLL) -> 08481040
  1612. 02:28:58 T:3836 M:1727115264   DEBUG: Win32DllLoader::Unload NETAPI32.DLL
  1613. 02:28:58 T:3836 M:1727152128   DEBUG: FreeLibrary(ADVAPI32.DLL) -> 084849C0
  1614. 02:28:58 T:3836 M:1727152128   DEBUG: Win32DllLoader::Unload ADVAPI32.DLL
  1615. 02:28:58 T:3836 M:1727152128   DEBUG: Win32DllLoader::Load(USER32.DLL)
  1616. 02:28:58 T:3836 M:1727152128   DEBUG: FreeLibrary(USER32.DLL) -> 084849C0
  1617. 02:28:58 T:3836 M:1727152128   DEBUG: Win32DllLoader::Unload USER32.DLL
  1618. 02:29:00 T:3836 M:1727451136   DEBUG: FreeLibrary(KERNEL32.DLL) -> 08484A60
  1619. 02:29:00 T:3836 M:1727496192   DEBUG: Win32DllLoader::Unload KERNEL32.DLL
  1620. 02:29:02 T:3836 M:1728032768   DEBUG: Win32DllLoader::Load(secur32.dll)
  1621. 02:29:02 T:3836 M:1728032768   DEBUG: scraper: NfoScrape returned
  1622. 02:29:02 T:3836 M:1728032768   ERROR: ADDON::CScraper::Run: Unable to parse web site
  1623. 02:29:02 T:3836 M:1728032768   DEBUG: FreeLibrary(secur32.dll) -> 08484A60
  1624. 02:29:02 T:3836 M:1728032768   DEBUG: Win32DllLoader::Unload secur32.dll
  1625. 02:29:02 T:3836 M:1728032768   DEBUG: VideoInfoScanner: Found matching Full NFO file: smb://NICKDESKTOP-PC/TV Shows/The Boondocks/tvshow.nfo
  1626. 02:29:02 T:3836 M:1728053248   DEBUG: VideoInfoScanner: Adding new item to tvshows:smb://NICKDESKTOP-PC/TV Shows/The Boondocks/
  1627. 02:29:02 T:3836 M:1728049152    INFO: Caching image from: smb://NICKDESKTOP-PC/TV Shows/The Boondocks/fanart.jpg to special://masterprofile/Thumbnails/Video/Fanart/b485ed37.tbn
  1628. 02:29:02 T:3836 M:1728114688    INFO: Caching image from: smb://NICKDESKTOP-PC/TV Shows/The Boondocks/folder.jpg to special://masterprofile/Thumbnails/Video/b/b485ed37.tbn with width 512 and height 512
  1629. 02:29:02 T:3836 M:1727787008   DEBUG: CVideoDatabase::GetStackedTvShowList query: select idShow from tvshow where c00 like (select c00 from tvshow where idShow=49) order by idShow
  1630. 02:29:02 T:3836 M:1727787008   DEBUG: CVideoDatabase::GetSeasonsNav query: select episode.c12,path.strPath,tvshow.c00,tvshow.c08,tvshow.c14,tvshow.c13,count(1),count(files.playCount) from episode join tvshowlinkepisode on tvshowlinkepisode.idEpisode=episode.idEpisode join tvshow on tvshow.idShow=tvshowlinkepisode.idShow join files on files.idFile=episode.idFile  join tvshowlinkpath on tvshowlinkpath.idShow = tvshow.idShow join path on path.idPath = tvshowlinkpath.idPath where tvshow.idShow = 49  group by episode.c12
  1631. 02:29:02 T:3836 M:1727766528   DEBUG: Win32DllLoader::Load(ADVAPI32.DLL)
  1632. 02:29:02 T:3836 M:1727766528   DEBUG: Win32DllLoader::Load(KERNEL32.DLL)
  1633. 02:29:02 T:3836 M:1727766528   DEBUG: Win32DllLoader::Load(NETAPI32.DLL)
  1634. 02:29:02 T:3836 M:1727729664   DEBUG: FreeLibrary(NETAPI32.DLL) -> 084818B0
  1635. 02:29:02 T:3836 M:1727729664   DEBUG: Win32DllLoader::Unload NETAPI32.DLL
  1636. 02:29:02 T:3836 M:1727766528   DEBUG: FreeLibrary(ADVAPI32.DLL) -> 08481860
  1637. 02:29:02 T:3836 M:1727766528   DEBUG: Win32DllLoader::Unload ADVAPI32.DLL
  1638. 02:29:02 T:3836 M:1727766528   DEBUG: Win32DllLoader::Load(USER32.DLL)
  1639. 02:29:02 T:3836 M:1727766528   DEBUG: FreeLibrary(USER32.DLL) -> 08481860
  1640. 02:29:02 T:3836 M:1727766528   DEBUG: Win32DllLoader::Unload USER32.DLL
  1641. 02:29:04 T:3836 M:1727815680   DEBUG: FreeLibrary(KERNEL32.DLL) -> 08487120
  1642. 02:29:04 T:3836 M:1727848448   DEBUG: Win32DllLoader::Unload KERNEL32.DLL
  1643. 02:29:05 T:3836 M:1728253952   DEBUG: Win32DllLoader::Load(secur32.dll)
  1644. 02:29:05 T:3836 M:1728253952   DEBUG: scraper: NfoScrape returned
  1645. 02:29:05 T:3836 M:1728253952   ERROR: ADDON::CScraper::Run: Unable to parse web site
  1646. 02:29:05 T:3836 M:1728253952   DEBUG: FreeLibrary(secur32.dll) -> 08487120
  1647. 02:29:05 T:3836 M:1728253952   DEBUG: Win32DllLoader::Unload secur32.dll
  1648. 02:29:05 T:3836 M:1728253952   DEBUG: VideoInfoScanner: Found matching Full NFO file: smb://NICKDESKTOP-PC/TV Shows/The Dead Zone/tvshow.nfo
  1649. 02:29:05 T:3836 M:1728192512   DEBUG: VideoInfoScanner: Adding new item to tvshows:smb://NICKDESKTOP-PC/TV Shows/The Dead Zone/
  1650. 02:29:05 T:3836 M:1727930368    INFO: Caching image from: smb://NICKDESKTOP-PC/TV Shows/The Dead Zone/fanart.jpg to special://masterprofile/Thumbnails/Video/Fanart/1015c372.tbn
  1651. 02:29:05 T:3836 M:1728278528    INFO: Caching image from: smb://NICKDESKTOP-PC/TV Shows/The Dead Zone/folder.jpg to special://masterprofile/Thumbnails/Video/1/1015c372.tbn with width 512 and height 512
  1652. 02:29:05 T:3836 M:1726537728   DEBUG: CVideoDatabase::GetStackedTvShowList query: select idShow from tvshow where c00 like (select c00 from tvshow where idShow=50) order by idShow
  1653. 02:29:05 T:3836 M:1726537728   DEBUG: CVideoDatabase::GetSeasonsNav query: select episode.c12,path.strPath,tvshow.c00,tvshow.c08,tvshow.c14,tvshow.c13,count(1),count(files.playCount) from episode join tvshowlinkepisode on tvshowlinkepisode.idEpisode=episode.idEpisode join tvshow on tvshow.idShow=tvshowlinkepisode.idShow join files on files.idFile=episode.idFile  join tvshowlinkpath on tvshowlinkpath.idShow = tvshow.idShow join path on path.idPath = tvshowlinkpath.idPath where tvshow.idShow = 50  group by episode.c12
  1654. 02:29:05 T:3836 M:1727029248   DEBUG: Win32DllLoader::Load(ADVAPI32.DLL)
  1655. 02:29:05 T:3836 M:1727029248   DEBUG: Win32DllLoader::Load(KERNEL32.DLL)
  1656. 02:29:05 T:3836 M:1727029248   DEBUG: Win32DllLoader::Load(NETAPI32.DLL)
  1657. 02:29:05 T:3836 M:1726992384   DEBUG: FreeLibrary(NETAPI32.DLL) -> 08484920
  1658. 02:29:05 T:3836 M:1726992384   DEBUG: Win32DllLoader::Unload NETAPI32.DLL
  1659. 02:29:05 T:3836 M:1727029248   DEBUG: FreeLibrary(ADVAPI32.DLL) -> 084814F0
  1660. 02:29:05 T:3836 M:1727029248   DEBUG: Win32DllLoader::Unload ADVAPI32.DLL
  1661. 02:29:05 T:3836 M:1727029248   DEBUG: Win32DllLoader::Load(USER32.DLL)
  1662. 02:29:05 T:3836 M:1727029248   DEBUG: FreeLibrary(USER32.DLL) -> 084814F0
  1663. 02:29:05 T:3836 M:1727029248   DEBUG: Win32DllLoader::Unload USER32.DLL
  1664. 02:29:06 T:3836 M:1728782336   DEBUG: FreeLibrary(KERNEL32.DLL) -> 084878A0
  1665. 02:29:06 T:3836 M:1728839680   DEBUG: Win32DllLoader::Unload KERNEL32.DLL
  1666. 02:29:08 T:3836 M:1730129920   DEBUG: Win32DllLoader::Load(secur32.dll)
  1667. 02:29:08 T:3836 M:1730129920   DEBUG: scraper: NfoScrape returned
  1668. 02:29:08 T:3836 M:1730129920   ERROR: ADDON::CScraper::Run: Unable to parse web site
  1669. 02:29:08 T:3836 M:1730129920   DEBUG: FreeLibrary(secur32.dll) -> 084878A0
  1670. 02:29:08 T:3836 M:1730129920   DEBUG: Win32DllLoader::Unload secur32.dll
  1671. 02:29:08 T:3836 M:1730129920   DEBUG: VideoInfoScanner: Found matching Full NFO file: smb://NICKDESKTOP-PC/TV Shows/The Office/tvshow.nfo
  1672. 02:29:08 T:3836 M:1730125824   DEBUG: VideoInfoScanner: Adding new item to tvshows:smb://NICKDESKTOP-PC/TV Shows/The Office/
  1673. 02:29:08 T:3836 M:1730125824    INFO: Caching image from: smb://NICKDESKTOP-PC/TV Shows/The Office/fanart.jpg to special://masterprofile/Thumbnails/Video/Fanart/74bee746.tbn
  1674. 02:29:08 T:3836 M:1729818624    INFO: Caching image from: smb://NICKDESKTOP-PC/TV Shows/The Office/folder.jpg to special://masterprofile/Thumbnails/Video/7/74bee746.tbn with width 512 and height 512
  1675. 02:29:08 T:3836 M:1728946176   DEBUG: CVideoDatabase::GetStackedTvShowList query: select idShow from tvshow where c00 like (select c00 from tvshow where idShow=51) order by idShow
  1676. 02:29:08 T:3836 M:1728946176   DEBUG: CVideoDatabase::GetSeasonsNav query: select episode.c12,path.strPath,tvshow.c00,tvshow.c08,tvshow.c14,tvshow.c13,count(1),count(files.playCount) from episode join tvshowlinkepisode on tvshowlinkepisode.idEpisode=episode.idEpisode join tvshow on tvshow.idShow=tvshowlinkepisode.idShow join files on files.idFile=episode.idFile  join tvshowlinkpath on tvshowlinkpath.idShow = tvshow.idShow join path on path.idPath = tvshowlinkpath.idPath where tvshow.idShow = 51  group by episode.c12
  1677. 02:29:08 T:3836 M:1728512000   DEBUG: Win32DllLoader::Load(ADVAPI32.DLL)
  1678. 02:29:08 T:3836 M:1728512000   DEBUG: Win32DllLoader::Load(KERNEL32.DLL)
  1679. 02:29:08 T:3836 M:1728512000   DEBUG: Win32DllLoader::Load(NETAPI32.DLL)
  1680. 02:29:08 T:3836 M:1728475136   DEBUG: FreeLibrary(NETAPI32.DLL) -> 084818B0
  1681. 02:29:08 T:3836 M:1728475136   DEBUG: Win32DllLoader::Unload NETAPI32.DLL
  1682. 02:29:08 T:3836 M:1728512000   DEBUG: FreeLibrary(ADVAPI32.DLL) -> 08487120
  1683. 02:29:08 T:3836 M:1728512000   DEBUG: Win32DllLoader::Unload ADVAPI32.DLL
  1684. 02:29:08 T:3836 M:1728512000   DEBUG: Win32DllLoader::Load(USER32.DLL)
  1685. 02:29:08 T:3836 M:1728512000   DEBUG: FreeLibrary(USER32.DLL) -> 08487120
  1686. 02:29:08 T:3836 M:1728512000   DEBUG: Win32DllLoader::Unload USER32.DLL
  1687. 02:29:09 T:3836 M:1728307200   DEBUG: FreeLibrary(KERNEL32.DLL) -> 08481860
  1688. 02:29:09 T:3836 M:1728458752   DEBUG: Win32DllLoader::Unload KERNEL32.DLL
  1689. 02:29:10 T:3836 M:1728372736   DEBUG: Win32DllLoader::Load(secur32.dll)
  1690. 02:29:10 T:3836 M:1728372736   DEBUG: scraper: NfoScrape returned
  1691. 02:29:10 T:3836 M:1728372736   ERROR: ADDON::CScraper::Run: Unable to parse web site
  1692. 02:29:10 T:3836 M:1728372736   DEBUG: FreeLibrary(secur32.dll) -> 08481860
  1693. 02:29:10 T:3836 M:1728372736   DEBUG: Win32DllLoader::Unload secur32.dll
  1694. 02:29:10 T:3836 M:1728372736   DEBUG: VideoInfoScanner: Found matching Full NFO file: smb://NICKDESKTOP-PC/TV Shows/The Pacific/tvshow.nfo
  1695. 02:29:10 T:3836 M:1728245760   DEBUG: VideoInfoScanner: Adding new item to tvshows:smb://NICKDESKTOP-PC/TV Shows/The Pacific/
  1696. 02:29:10 T:3836 M:1728675840    INFO: Caching image from: smb://NICKDESKTOP-PC/TV Shows/The Pacific/fanart.jpg to special://masterprofile/Thumbnails/Video/Fanart/aa33642b.tbn
  1697. 02:29:10 T:3836 M:1728778240    INFO: Caching image from: smb://NICKDESKTOP-PC/TV Shows/The Pacific/folder.jpg to special://masterprofile/Thumbnails/Video/a/aa33642b.tbn with width 512 and height 512
  1698. 02:29:11 T:3836 M:1730383872   DEBUG: CVideoDatabase::GetStackedTvShowList query: select idShow from tvshow where c00 like (select c00 from tvshow where idShow=52) order by idShow
  1699. 02:29:11 T:3836 M:1730486272   DEBUG: CVideoDatabase::GetSeasonsNav query: select episode.c12,path.strPath,tvshow.c00,tvshow.c08,tvshow.c14,tvshow.c13,count(1),count(files.playCount) from episode join tvshowlinkepisode on tvshowlinkepisode.idEpisode=episode.idEpisode join tvshow on tvshow.idShow=tvshowlinkepisode.idShow join files on files.idFile=episode.idFile  join tvshowlinkpath on tvshowlinkpath.idShow = tvshow.idShow join path on path.idPath = tvshowlinkpath.idPath where tvshow.idShow = 52  group by episode.c12
  1700. 02:29:11 T:3836 M:1729536000   DEBUG: Win32DllLoader::Load(ADVAPI32.DLL)
  1701. 02:29:11 T:3836 M:1729724416   DEBUG: Win32DllLoader::Load(KERNEL32.DLL)
  1702. 02:29:11 T:3836 M:1730338816   DEBUG: Win32DllLoader::Load(NETAPI32.DLL)
  1703. 02:29:11 T:3836 M:1728614400   DEBUG: FreeLibrary(NETAPI32.DLL) -> 08481360
  1704. 02:29:11 T:3836 M:1728614400   DEBUG: Win32DllLoader::Unload NETAPI32.DLL
  1705. 02:29:11 T:3836 M:1728659456   DEBUG: FreeLibrary(ADVAPI32.DLL) -> 084864A0
  1706. 02:29:11 T:3836 M:1728659456   DEBUG: Win32DllLoader::Unload ADVAPI32.DLL
  1707. 02:29:11 T:3836 M:1728659456   DEBUG: Win32DllLoader::Load(USER32.DLL)
  1708. 02:29:11 T:3836 M:1728659456   DEBUG: FreeLibrary(USER32.DLL) -> 084864A0
  1709. 02:29:11 T:3836 M:1728659456   DEBUG: Win32DllLoader::Unload USER32.DLL
  1710. 02:29:13 T:3836 M:1729052672   DEBUG: FreeLibrary(KERNEL32.DLL) -> 084812C0
  1711. 02:29:13 T:3836 M:1729052672   DEBUG: Win32DllLoader::Unload KERNEL32.DLL
  1712. 02:29:14 T:3836 M:1730072576   DEBUG: Win32DllLoader::Load(secur32.dll)
  1713. 02:29:14 T:3836 M:1730072576   DEBUG: scraper: NfoScrape returned
  1714. 02:29:14 T:3836 M:1730072576   ERROR: ADDON::CScraper::Run: Unable to parse web site
  1715. 02:29:14 T:3836 M:1730072576   DEBUG: FreeLibrary(secur32.dll) -> 084812C0
  1716. 02:29:14 T:3836 M:1730072576   DEBUG: Win32DllLoader::Unload secur32.dll
  1717. 02:29:14 T:3836 M:1730072576   DEBUG: VideoInfoScanner: Found matching Full NFO file: smb://NICKDESKTOP-PC/TV Shows/The Shield/tvshow.nfo
  1718. 02:29:14 T:3836 M:1730068480   DEBUG: VideoInfoScanner: Adding new item to tvshows:smb://NICKDESKTOP-PC/TV Shows/The Shield/
  1719. 02:29:14 T:3836 M:1730064384    INFO: Caching image from: smb://NICKDESKTOP-PC/TV Shows/The Shield/fanart.jpg to special://masterprofile/Thumbnails/Video/Fanart/bd1b8823.tbn
  1720. 02:29:14 T:3836 M:1729847296    INFO: Caching image from: smb://NICKDESKTOP-PC/TV Shows/The Shield/folder.jpg to special://masterprofile/Thumbnails/Video/b/bd1b8823.tbn with width 512 and height 512
  1721. 02:29:14 T:3836 M:1728618496   DEBUG: CVideoDatabase::GetStackedTvShowList query: select idShow from tvshow where c00 like (select c00 from tvshow where idShow=53) order by idShow
  1722. 02:29:14 T:3836 M:1728618496   DEBUG: CVideoDatabase::GetSeasonsNav query: select episode.c12,path.strPath,tvshow.c00,tvshow.c08,tvshow.c14,tvshow.c13,count(1),count(files.playCount) from episode join tvshowlinkepisode on tvshowlinkepisode.idEpisode=episode.idEpisode join tvshow on tvshow.idShow=tvshowlinkepisode.idShow join files on files.idFile=episode.idFile  join tvshowlinkpath on tvshowlinkpath.idShow = tvshow.idShow join path on path.idPath = tvshowlinkpath.idPath where tvshow.idShow = 53  group by episode.c12
  1723. 02:29:14 T:3836 M:1728618496   DEBUG: Win32DllLoader::Load(ADVAPI32.DLL)
  1724. 02:29:14 T:3836 M:1728618496   DEBUG: Win32DllLoader::Load(KERNEL32.DLL)
  1725. 02:29:14 T:3836 M:1728618496   DEBUG: Win32DllLoader::Load(NETAPI32.DLL)
  1726. 02:29:14 T:3836 M:1728581632   DEBUG: FreeLibrary(NETAPI32.DLL) -> 08488B60
  1727. 02:29:14 T:3836 M:1728581632   DEBUG: Win32DllLoader::Unload NETAPI32.DLL
  1728. 02:29:14 T:3836 M:1728618496   DEBUG: FreeLibrary(ADVAPI32.DLL) -> 08485F50
  1729. 02:29:14 T:3836 M:1728618496   DEBUG: Win32DllLoader::Unload ADVAPI32.DLL
  1730. 02:29:14 T:3836 M:1728618496   DEBUG: Win32DllLoader::Load(USER32.DLL)
  1731. 02:29:14 T:3836 M:1728618496   DEBUG: FreeLibrary(USER32.DLL) -> 08485F50
  1732. 02:29:14 T:3836 M:1728618496   DEBUG: Win32DllLoader::Unload USER32.DLL
  1733. 02:29:15 T:3836 M:1728331776   DEBUG: FreeLibrary(KERNEL32.DLL) -> 084811D0
  1734. 02:29:15 T:3836 M:1728323584   DEBUG: Win32DllLoader::Unload KERNEL32.DLL
  1735. 02:29:17 T:3836 M:1729552384   DEBUG: Win32DllLoader::Load(secur32.dll)
  1736. 02:29:17 T:3836 M:1729552384   DEBUG: scraper: NfoScrape returned
  1737. 02:29:17 T:3836 M:1729552384   ERROR: ADDON::CScraper::Run: Unable to parse web site
  1738. 02:29:17 T:3836 M:1729552384   DEBUG: FreeLibrary(secur32.dll) -> 084811D0
  1739. 02:29:17 T:3836 M:1729552384   DEBUG: Win32DllLoader::Unload secur32.dll
  1740. 02:29:17 T:3836 M:1729552384   DEBUG: VideoInfoScanner: Found matching Full NFO file: smb://NICKDESKTOP-PC/TV Shows/The Sopranos/tvshow.nfo
  1741. 02:29:17 T:3836 M:1729552384   DEBUG: VideoInfoScanner: Adding new item to tvshows:smb://NICKDESKTOP-PC/TV Shows/The Sopranos/
  1742. 02:29:17 T:3836 M:1729478656    INFO: Caching image from: smb://NICKDESKTOP-PC/TV Shows/The Sopranos/fanart.jpg to special://masterprofile/Thumbnails/Video/Fanart/53ab26d2.tbn
  1743. 02:29:17 T:3836 M:1729622016    INFO: Caching image from: smb://NICKDESKTOP-PC/TV Shows/The Sopranos/folder.jpg to special://masterprofile/Thumbnails/Video/5/53ab26d2.tbn with width 512 and height 512
  1744. 02:29:17 T:3836 M:1728303104   DEBUG: CVideoDatabase::GetStackedTvShowList query: select idShow from tvshow where c00 like (select c00 from tvshow where idShow=54) order by idShow
  1745. 02:29:17 T:3836 M:1728303104   DEBUG: CVideoDatabase::GetSeasonsNav query: select episode.c12,path.strPath,tvshow.c00,tvshow.c08,tvshow.c14,tvshow.c13,count(1),count(files.playCount) from episode join tvshowlinkepisode on tvshowlinkepisode.idEpisode=episode.idEpisode join tvshow on tvshow.idShow=tvshowlinkepisode.idShow join files on files.idFile=episode.idFile  join tvshowlinkpath on tvshowlinkpath.idShow = tvshow.idShow join path on path.idPath = tvshowlinkpath.idPath where tvshow.idShow = 54  group by episode.c12
  1746. 02:29:17 T:3836 M:1728311296   DEBUG: Win32DllLoader::Load(ADVAPI32.DLL)
  1747. 02:29:17 T:3836 M:1728311296   DEBUG: Win32DllLoader::Load(KERNEL32.DLL)
  1748. 02:29:17 T:3836 M:1728311296   DEBUG: Win32DllLoader::Load(NETAPI32.DLL)
  1749. 02:29:17 T:3836 M:1728274432   DEBUG: FreeLibrary(NETAPI32.DLL) -> 084864A0
  1750. 02:29:17 T:3836 M:1728274432   DEBUG: Win32DllLoader::Unload NETAPI32.DLL
  1751. 02:29:17 T:3836 M:1728311296   DEBUG: FreeLibrary(ADVAPI32.DLL) -> 08486130
  1752. 02:29:17 T:3836 M:1728311296   DEBUG: Win32DllLoader::Unload ADVAPI32.DLL
  1753. 02:29:17 T:3836 M:1728311296   DEBUG: Win32DllLoader::Load(USER32.DLL)
  1754. 02:29:17 T:3836 M:1728311296   DEBUG: FreeLibrary(USER32.DLL) -> 08486130
  1755. 02:29:17 T:3836 M:1728311296   DEBUG: Win32DllLoader::Unload USER32.DLL
  1756. 02:29:19 T:3836 M:1728372736   DEBUG: FreeLibrary(KERNEL32.DLL) -> 084812C0
  1757. 02:29:19 T:3836 M:1728520192   DEBUG: Win32DllLoader::Unload KERNEL32.DLL
  1758. 02:29:20 T:3836 M:1729327104   DEBUG: Win32DllLoader::Load(secur32.dll)
  1759. 02:29:20 T:3836 M:1729327104   DEBUG: scraper: NfoScrape returned
  1760. 02:29:20 T:3836 M:1729327104   ERROR: ADDON::CScraper::Run: Unable to parse web site
  1761. 02:29:20 T:3836 M:1729327104   DEBUG: FreeLibrary(secur32.dll) -> 084812C0
  1762. 02:29:20 T:3836 M:1729327104   DEBUG: Win32DllLoader::Unload secur32.dll
  1763. 02:29:20 T:3836 M:1729327104   DEBUG: VideoInfoScanner: Found matching Full NFO file: smb://NICKDESKTOP-PC/TV Shows/The Twilight Zone (1985)/tvshow.nfo
  1764. 02:29:20 T:3836 M:1729212416   DEBUG: VideoInfoScanner: Adding new item to tvshows:smb://NICKDESKTOP-PC/TV Shows/The Twilight Zone (1985)/
  1765. 02:29:20 T:3836 M:1729142784    INFO: Caching image from: smb://NICKDESKTOP-PC/TV Shows/The Twilight Zone (1985)/fanart.jpg to special://masterprofile/Thumbnails/Video/Fanart/070e238a.tbn
  1766. 02:29:20 T:3836 M:1729282048    INFO: Caching image from: smb://NICKDESKTOP-PC/TV Shows/The Twilight Zone (1985)/folder.jpg to special://masterprofile/Thumbnails/Video/0/070e238a.tbn with width 512 and height 512
  1767. 02:29:20 T:3836 M:1728274432   DEBUG: CVideoDatabase::GetStackedTvShowList query: select idShow from tvshow where c00 like (select c00 from tvshow where idShow=55) order by idShow
  1768. 02:29:20 T:3836 M:1728274432   DEBUG: CVideoDatabase::GetSeasonsNav query: select episode.c12,path.strPath,tvshow.c00,tvshow.c08,tvshow.c14,tvshow.c13,count(1),count(files.playCount) from episode join tvshowlinkepisode on tvshowlinkepisode.idEpisode=episode.idEpisode join tvshow on tvshow.idShow=tvshowlinkepisode.idShow join files on files.idFile=episode.idFile  join tvshowlinkpath on tvshowlinkpath.idShow = tvshow.idShow join path on path.idPath = tvshowlinkpath.idPath where tvshow.idShow = 55  group by episode.c12
  1769. 02:29:20 T:3836 M:1728282624   DEBUG: Win32DllLoader::Load(ADVAPI32.DLL)
  1770. 02:29:20 T:3836 M:1728282624   DEBUG: Win32DllLoader::Load(KERNEL32.DLL)
  1771. 02:29:20 T:3836 M:1728282624   DEBUG: Win32DllLoader::Load(NETAPI32.DLL)
  1772. 02:29:20 T:3836 M:1728245760   DEBUG: FreeLibrary(NETAPI32.DLL) -> 08486130
  1773. 02:29:20 T:3836 M:1728245760   DEBUG: Win32DllLoader::Unload NETAPI32.DLL
  1774. 02:29:20 T:3836 M:1728282624   DEBUG: FreeLibrary(ADVAPI32.DLL) -> 08484920
  1775. 02:29:20 T:3836 M:1728282624   DEBUG: Win32DllLoader::Unload ADVAPI32.DLL
  1776. 02:29:20 T:3836 M:1728282624   DEBUG: Win32DllLoader::Load(USER32.DLL)
  1777. 02:29:20 T:3836 M:1728282624   DEBUG: FreeLibrary(USER32.DLL) -> 08484920
  1778. 02:29:20 T:3836 M:1728282624   DEBUG: Win32DllLoader::Unload USER32.DLL
  1779. 02:29:22 T:3836 M:1728344064   DEBUG: FreeLibrary(KERNEL32.DLL) -> 084812C0
  1780. 02:29:22 T:3836 M:1728344064   DEBUG: Win32DllLoader::Unload KERNEL32.DLL
  1781. 02:29:23 T:3836 M:1729298432   DEBUG: Win32DllLoader::Load(secur32.dll)
  1782. 02:29:23 T:3836 M:1729298432   DEBUG: scraper: NfoScrape returned
  1783. 02:29:23 T:3836 M:1729298432   ERROR: ADDON::CScraper::Run: Unable to parse web site
  1784. 02:29:23 T:3836 M:1729298432   DEBUG: FreeLibrary(secur32.dll) -> 084812C0
  1785. 02:29:23 T:3836 M:1729298432   DEBUG: Win32DllLoader::Unload secur32.dll
  1786. 02:29:23 T:3836 M:1729298432   DEBUG: VideoInfoScanner: Found matching Full NFO file: smb://NICKDESKTOP-PC/TV Shows/The Venture Bros/tvshow.nfo
  1787. 02:29:23 T:3836 M:1729339392   DEBUG: VideoInfoScanner: Adding new item to tvshows:smb://NICKDESKTOP-PC/TV Shows/The Venture Bros/
  1788. 02:29:23 T:3836 M:1729572864    INFO: Caching image from: smb://NICKDESKTOP-PC/TV Shows/The Venture Bros/fanart.jpg to special://masterprofile/Thumbnails/Video/Fanart/87e2f3de.tbn
  1789. 02:29:23 T:3836 M:1729204224    INFO: Caching image from: smb://NICKDESKTOP-PC/TV Shows/The Venture Bros/folder.jpg to special://masterprofile/Thumbnails/Video/8/87e2f3de.tbn with width 512 and height 512
  1790. 02:29:23 T:3836 M:1728458752   DEBUG: CVideoDatabase::GetStackedTvShowList query: select idShow from tvshow where c00 like (select c00 from tvshow where idShow=56) order by idShow
  1791. 02:29:23 T:3836 M:1728458752   DEBUG: CVideoDatabase::GetSeasonsNav query: select episode.c12,path.strPath,tvshow.c00,tvshow.c08,tvshow.c14,tvshow.c13,count(1),count(files.playCount) from episode join tvshowlinkepisode on tvshowlinkepisode.idEpisode=episode.idEpisode join tvshow on tvshow.idShow=tvshowlinkepisode.idShow join files on files.idFile=episode.idFile  join tvshowlinkpath on tvshowlinkpath.idShow = tvshow.idShow join path on path.idPath = tvshowlinkpath.idPath where tvshow.idShow = 56  group by episode.c12
  1792. 02:29:23 T:3836 M:1728458752   DEBUG: Win32DllLoader::Load(ADVAPI32.DLL)
  1793. 02:29:23 T:3836 M:1728458752   DEBUG: Win32DllLoader::Load(KERNEL32.DLL)
  1794. 02:29:23 T:3836 M:1728458752   DEBUG: Win32DllLoader::Load(NETAPI32.DLL)
  1795. 02:29:23 T:3836 M:1728421888   DEBUG: FreeLibrary(NETAPI32.DLL) -> 08481310
  1796. 02:29:23 T:3836 M:1728421888   DEBUG: Win32DllLoader::Unload NETAPI32.DLL
  1797. 02:29:23 T:3836 M:1728458752   DEBUG: FreeLibrary(ADVAPI32.DLL) -> 084864A0
  1798. 02:29:23 T:3836 M:1728458752   DEBUG: Win32DllLoader::Unload ADVAPI32.DLL
  1799. 02:29:23 T:3836 M:1728458752   DEBUG: Win32DllLoader::Load(USER32.DLL)
  1800. 02:29:23 T:3836 M:1728458752   DEBUG: FreeLibrary(USER32.DLL) -> 084864A0
  1801. 02:29:23 T:3836 M:1728458752   DEBUG: Win32DllLoader::Unload USER32.DLL
  1802. 02:29:25 T:3836 M:1728434176   DEBUG: FreeLibrary(KERNEL32.DLL) -> 08481360
  1803. 02:29:25 T:3836 M:1728499712   DEBUG: Win32DllLoader::Unload KERNEL32.DLL
  1804. 02:29:26 T:3836 M:1728622592   DEBUG: Win32DllLoader::Load(secur32.dll)
  1805. 02:29:26 T:3836 M:1728622592   DEBUG: scraper: NfoScrape returned
  1806. 02:29:26 T:3836 M:1728622592   ERROR: ADDON::CScraper::Run: Unable to parse web site
  1807. 02:29:26 T:3836 M:1728745472   DEBUG: FreeLibrary(secur32.dll) -> 08481360
  1808. 02:29:26 T:3836 M:1728745472   DEBUG: Win32DllLoader::Unload secur32.dll
  1809. 02:29:26 T:3836 M:1728753664   DEBUG: VideoInfoScanner: Found matching Full NFO file: smb://NICKDESKTOP-PC/TV Shows/The Wire/tvshow.nfo
  1810. 02:29:26 T:3836 M:1728643072   DEBUG: VideoInfoScanner: Adding new item to tvshows:smb://NICKDESKTOP-PC/TV Shows/The Wire/
  1811. 02:29:27 T:3836 M:1728643072    INFO: Caching image from: smb://NICKDESKTOP-PC/TV Shows/The Wire/fanart.jpg to special://masterprofile/Thumbnails/Video/Fanart/103b9944.tbn
  1812. 02:29:27 T:3836 M:1728675840    INFO: Caching image from: smb://NICKDESKTOP-PC/TV Shows/The Wire/folder.jpg to special://masterprofile/Thumbnails/Video/1/103b9944.tbn with width 512 and height 512
  1813. 02:29:27 T:3836 M:1728610304   DEBUG: CVideoDatabase::GetStackedTvShowList query: select idShow from tvshow where c00 like (select c00 from tvshow where idShow=57) order by idShow
  1814. 02:29:27 T:3836 M:1728610304   DEBUG: CVideoDatabase::GetSeasonsNav query: select episode.c12,path.strPath,tvshow.c00,tvshow.c08,tvshow.c14,tvshow.c13,count(1),count(files.playCount) from episode join tvshowlinkepisode on tvshowlinkepisode.idEpisode=episode.idEpisode join tvshow on tvshow.idShow=tvshowlinkepisode.idShow join files on files.idFile=episode.idFile  join tvshowlinkpath on tvshowlinkpath.idShow = tvshow.idShow join path on path.idPath = tvshowlinkpath.idPath where tvshow.idShow = 57  group by episode.c12
  1815. 02:29:27 T:3836 M:1727918080   DEBUG: Win32DllLoader::Load(ADVAPI32.DLL)
  1816. 02:29:27 T:3836 M:1727918080   DEBUG: Win32DllLoader::Load(KERNEL32.DLL)
  1817. 02:29:27 T:3836 M:1727918080   DEBUG: Win32DllLoader::Load(NETAPI32.DLL)
  1818. 02:29:27 T:3836 M:1727881216   DEBUG: FreeLibrary(NETAPI32.DLL) -> 084814F0
  1819. 02:29:27 T:3836 M:1727881216   DEBUG: Win32DllLoader::Unload NETAPI32.DLL
  1820. 02:29:27 T:3836 M:1727918080   DEBUG: FreeLibrary(ADVAPI32.DLL) -> 084878A0
  1821. 02:29:27 T:3836 M:1727918080   DEBUG: Win32DllLoader::Unload ADVAPI32.DLL
  1822. 02:29:27 T:3836 M:1727918080   DEBUG: Win32DllLoader::Load(USER32.DLL)
  1823. 02:29:27 T:3836 M:1727918080   DEBUG: FreeLibrary(USER32.DLL) -> 084878A0
  1824. 02:29:27 T:3836 M:1727918080   DEBUG: Win32DllLoader::Unload USER32.DLL
  1825. 02:29:28 T:3836 M:1728303104   DEBUG: FreeLibrary(KERNEL32.DLL) -> 084811D0
  1826. 02:29:28 T:3836 M:1728454656   DEBUG: Win32DllLoader::Unload KERNEL32.DLL
  1827. 02:29:29 T:3836 M:1728610304   DEBUG: Win32DllLoader::Load(secur32.dll)
  1828. 02:29:29 T:3836 M:1728610304   DEBUG: scraper: NfoScrape returned
  1829. 02:29:29 T:3836 M:1728610304   ERROR: ADDON::CScraper::Run: Unable to parse web site
  1830. 02:29:29 T:3836 M:1728610304   DEBUG: FreeLibrary(secur32.dll) -> 084811D0
  1831. 02:29:29 T:3836 M:1728610304   DEBUG: Win32DllLoader::Unload secur32.dll
  1832. 02:29:29 T:3836 M:1728610304   DEBUG: VideoInfoScanner: Found matching Full NFO file: smb://NICKDESKTOP-PC/TV Shows/The X-Files/tvshow.nfo
  1833. 02:29:29 T:3836 M:1728618496   DEBUG: VideoInfoScanner: Adding new item to tvshows:smb://NICKDESKTOP-PC/TV Shows/The X-Files/
  1834. 02:29:29 T:3836 M:1728524288    INFO: Caching image from: smb://NICKDESKTOP-PC/TV Shows/The X-Files/fanart.jpg to special://masterprofile/Thumbnails/Video/Fanart/8b1c4395.tbn
  1835. 02:29:29 T:3836 M:1728925696    INFO: Caching image from: smb://NICKDESKTOP-PC/TV Shows/The X-Files/folder.jpg to special://masterprofile/Thumbnails/Video/8/8b1c4395.tbn with width 512 and height 512
  1836. 02:29:29 T:3836 M:1729187840   DEBUG: CVideoDatabase::GetStackedTvShowList query: select idShow from tvshow where c00 like (select c00 from tvshow where idShow=58) order by idShow
  1837. 02:29:29 T:3836 M:1729187840   DEBUG: CVideoDatabase::GetSeasonsNav query: select episode.c12,path.strPath,tvshow.c00,tvshow.c08,tvshow.c14,tvshow.c13,count(1),count(files.playCount) from episode join tvshowlinkepisode on tvshowlinkepisode.idEpisode=episode.idEpisode join tvshow on tvshow.idShow=tvshowlinkepisode.idShow join files on files.idFile=episode.idFile  join tvshowlinkpath on tvshowlinkpath.idShow = tvshow.idShow join path on path.idPath = tvshowlinkpath.idPath where tvshow.idShow = 58  group by episode.c12
  1838. 02:29:30 T:3836 M:1729224704  NOTICE: VideoInfoScanner: Finished scan. Scanning for video info took 03:14
  1839. 02:29:30 T:3836 M:1729224704    INFO: Video scan was stopped or finished ... restoring FindRemoteThumbs
  1840. 02:29:30 T:3836 M:1729224704   DEBUG: Thread 3836 terminating
  1841. 02:29:30 T:1220 M:1730203648   DEBUG: ------ Window Deinit (DialogVideoScan.xml) ------
  1842. 02:30:00 T:1220 M:1729277952   DEBUG: SECTION:UnloadDelayed(DLL: special://xbmcbin/system/ImageLib.dll)
  1843. 02:30:00 T:1220 M:1729277952   DEBUG: Win32DllLoader::Unload ImageLib.dll
  1844. 02:30:00 T:1220 M:1721827328   DEBUG: SECTION:UnloadDelayed(DLL: special://xbmcbin/system/libcurl.dll)
  1845. 02:30:00 T:1220 M:1721827328   DEBUG: Win32DllLoader::Unload libcurl.dll
  1846. 02:30:00 T:1220 M:1721827328   DEBUG: FreeLibrary(libidn-11.dll) -> 083BD550
  1847. 02:30:00 T:1220 M:1721827328   DEBUG: Win32DllLoader::Unload libidn-11.dll
  1848. 02:30:00 T:1220 M:1721827328   DEBUG: FreeLibrary(libeay32.dll) -> 083BBA20
  1849. 02:30:00 T:1220 M:1721827328   DEBUG: FreeLibrary(libssl32.dll) -> 083BB9D0
  1850. 02:30:00 T:1220 M:1721827328   DEBUG: Win32DllLoader::Unload libssl32.dll
  1851. 02:30:00 T:1220 M:1721827328   DEBUG: FreeLibrary(libeay32.dll) -> 083BBA20
  1852. 02:30:00 T:1220 M:1721827328   DEBUG: Win32DllLoader::Unload libeay32.dll
  1853. 02:30:02 T:1220 M:1728696320   DEBUG: SDLKeyboard: scancode: 56, sym: 308, unicode: 0, modifier: 0
  1854. 02:30:02 T:1220 M:1729208320   DEBUG: CWinEventsWin32::WndProcWindow is active
  1855. 02:30:02 T:1220 M:1729208320   DEBUG: CWinEventsWin32::WndProcWindow lost focus
  1856. 02:30:02 T:1220 M:1729236992   DEBUG: CAnnouncementManager - Announcement: ApplicationStop from xbmc
  1857. 02:30:02 T:1220 M:1729204224  NOTICE: Storing total System Uptime
  1858. 02:30:02 T:1220 M:1729204224  NOTICE: Saving settings
  1859. 02:30:02 T:1220 M:1729224704  NOTICE: stop all
  1860. 02:30:02 T:1220 M:1729224704   DEBUG: CNetwork::NetworkMessage - Signaling network services to stop
  1861. 02:30:02 T:1220 M:1729232896  NOTICE: ES: Stopping event server
  1862. 02:30:02 T:1220 M:1729241088   DEBUG: CNetwork::NetworkMessage - Waiting for network services to stop
  1863. 02:30:02 T:1220 M:1729241088   DEBUG: CLastfmScrobbler: Journal with 0 entries saved to special://masterprofile/LastfmScrobbler.xml
  1864. 02:30:02 T:1220 M:1729241088   DEBUG: CLibrefmScrobbler: Journal with 0 entries saved to special://masterprofile/LibrefmScrobbler.xml
  1865. 02:30:03 T:3668 M:1728692224   DEBUG: Thread 3668 terminating
  1866. 02:30:03 T:6048 M:1728786432  NOTICE: ES: UDP Event server stopped
  1867. 02:30:03 T:6048 M:1728786432   DEBUG: Thread 6048 terminating
  1868. 02:30:03 T:1220 M:1728782336  NOTICE: stop sap announcement listener
  1869. 02:30:03 T:1220 M:1728782336  NOTICE: clean cached files!
  1870. 02:30:03 T:1220 M:1728778240  NOTICE: unload skin
  1871. 02:30:03 T:1220 M:1728778240   DEBUG: CGUIAudioManager::DeInitialize
  1872. 02:30:03 T:1220 M:1728778240   DEBUG: ------ Window Deinit (MyVideo.xml) ------
  1873. 02:30:03 T:1220 M:1728778240   DEBUG: ------ Window Deinit (Pointer.xml) ------
  1874. 02:30:03 T:1220 M:1728778240   DEBUG: ------ Window Deinit (DialogMuteBug.xml) ------
  1875. 02:30:03 T:1220 M:1729744896  NOTICE: stop python
  1876. 02:30:03 T:1220 M:1750089728  NOTICE: stopped
  1877. 02:30:03 T:1220 M:1750310912  NOTICE: destroy
  1878. 02:30:03 T:1220 M:1750278144    INFO: ADDON: cpluff: 'Plug-in repository.xbmc.org has been uninstalled.'
  1879. 02:30:03 T:1220 M:1750278144    INFO: ADDON: cpluff: 'Plug-in screensaver.rsxs.euphoria has been uninstalled.'
  1880. 02:30:03 T:1220 M:1750278144    INFO: ADDON: cpluff: 'Plug-in screensaver.xbmc.builtin.black has been uninstalled.'
  1881. 02:30:03 T:1220 M:1750278144    INFO: ADDON: cpluff: 'Plug-in visualization.projectm has been uninstalled.'
  1882. 02:30:03 T:1220 M:1750278144    INFO: ADDON: cpluff: 'Plug-in screensaver.xbmc.builtin.dim has been uninstalled.'
  1883. 02:30:03 T:1220 M:1750278144    INFO: ADDON: cpluff: 'Plug-in metadata.themoviedb.org has been uninstalled.'
  1884. 02:30:03 T:1220 M:1750278144    INFO: ADDON: cpluff: 'Plug-in xbmc.metadata has been uninstalled.'
  1885. 02:30:03 T:1220 M:1750278144    INFO: ADDON: cpluff: 'Plug-in skin.confluence has been uninstalled.'
  1886. 02:30:03 T:1220 M:1750278144    INFO: ADDON: cpluff: 'Plug-in visualization.glspectrum has been uninstalled.'
  1887. 02:30:03 T:1220 M:1750278144    INFO: ADDON: cpluff: 'Plug-in visualization.milkdrop has been uninstalled.'
  1888. 02:30:03 T:1220 M:1750278144    INFO: ADDON: cpluff: 'Plug-in xbmc.gui has been uninstalled.'
  1889. 02:30:03 T:1220 M:1750278144    INFO: ADDON: cpluff: 'Plug-in visualization.dxspectrum has been uninstalled.'
  1890. 02:30:03 T:1220 M:1750278144    INFO: ADDON: cpluff: 'Plug-in xbmc.core has been uninstalled.'
  1891. 02:30:03 T:1220 M:1750278144    INFO: ADDON: cpluff: 'Plug-in screensaver.xbmc.builtin.slideshow has been uninstalled.'
  1892. 02:30:03 T:1220 M:1750278144    INFO: ADDON: cpluff: 'Plug-in metadata.common.htbackdrops.com has been uninstalled.'
  1893. 02:30:03 T:1220 M:1750278144    INFO: ADDON: cpluff: 'Plug-in metadata.allmusic.com has been uninstalled.'
  1894. 02:30:03 T:1220 M:1750278144    INFO: ADDON: cpluff: 'Plug-in metadata.common.allmusic.com has been uninstalled.'
  1895. 02:30:03 T:1220 M:1750278144    INFO: ADDON: cpluff: 'Plug-in metadata.tvdb.com has been uninstalled.'
  1896. 02:30:03 T:1220 M:1750278144    INFO: ADDON: cpluff: 'Plug-in weather.xbmc.builtin has been uninstalled.'
  1897. 02:30:03 T:1220 M:1750278144    INFO: ADDON: cpluff: 'Plug-in metadata.common.last.fm has been uninstalled.'
  1898. 02:30:03 T:1220 M:1750278144    INFO: ADDON: cpluff: 'Plug-in metadata.common.dtrailer.com has been uninstalled.'
  1899. 02:30:03 T:1220 M:1750278144    INFO: ADDON: cpluff: 'Plug-in metadata.common.themoviedb.org has been uninstalled.'
  1900. 02:30:03 T:1220 M:1750278144    INFO: ADDON: cpluff: 'Plug-in xbmc.python has been uninstalled.'
  1901. 02:30:03 T:1220 M:1750278144    INFO: ADDON: cpluff: 'Plug-in screensaver.rsxs.plasma has been uninstalled.'
  1902. 02:30:03 T:1220 M:1750278144    INFO: ADDON: cpluff: 'Plug-in visualization.waveform has been uninstalled.'
  1903. 02:30:03 T:1220 M:1750278144    INFO: ADDON: cpluff: 'Plug-in xbmc.addon has been uninstalled.'
  1904. 02:30:03 T:1220 M:1750278144    INFO: ADDON: cpluff: 'Plug-in metadata.mtv.com has been uninstalled.'
  1905. 02:30:03 T:1220 M:1750278144    INFO: ADDON: cpluff: 'Plug-in visualization.itunes has been uninstalled.'
  1906. 02:30:03 T:1220 M:1750278144  NOTICE: unload sections
  1907. 02:30:03 T:1220 M:1750278144   DEBUG: SECTION:UnloadAll(DLL: special://xbmcbin/system/cpluff.dll)
  1908. 02:30:03 T:1220 M:1750278144   DEBUG: Win32DllLoader::Unload cpluff.dll
  1909. 02:30:03 T:1220 M:1750278144   DEBUG: FreeLibrary(libexpat.dll) -> 003B8C18
  1910. 02:30:03 T:1220 M:1750278144   DEBUG: Win32DllLoader::Unload libexpat.dll
  1911. 02:30:03 T:1220 M:1751330816   DEBUG: CLastfmScrobbler: Journal with 0 entries saved to special://masterprofile/LastfmScrobbler.xml
  1912. 02:30:03 T:1220 M:1751330816   DEBUG: CLibrefmScrobbler: Journal with 0 entries saved to special://masterprofile/LibrefmScrobbler.xml